[[{"header":{"parameterUnit":"m.s-1","parameterCategory":1,"la1":31.0,"la2":29.5877,"lo1":-88.7671,"lo2":-86.6584,"dy":0.0162,"dx":0.0185,"nx":115,"ny":88,"refTime":"2023-07-17T06:00:00:Z","depth":0,"parameterNumber":2,"parameterNumberName":"U-component_of_WINDS"},"data":[0.0,0.0,0.0,0.0,0.0,0.0,0.0,0.0,0.0,0.0,0.0,0.0,0.0,0.0,0.0,0.0,0.0,0.0,0.0,0.0,0.0,0.0,0.0,0.0,0.0,0.0,0.0,0.0,0.0,0.0,0.0,0.0,0.0,0.0,0.0,0.0,0.0,0.0,0.0,0.0,0.0,0.0,0.0,0.0,0.0,0.0,0.0,0.0,0.0,0.0,0.0,0.0,0.0,0.0,0.0,0.0,0.0,0.0,0.0,0.0,0.0,0.0,0.0,0.0,0.0,0.0,0.0,0.0,0.0,0.0,0.0,0.0,0.0,0.0,0.0,0.0,0.0,0.0,0.0,0.0,0.0,0.0,0.0,0.0,0.0,0.0,0.0,0.0,0.0,0.0,0.0,0.0,0.0,0.0,0.0,0.0,0.0,0.0,0.0,0.0,0.0,0.0,0.0,0.0,0.0,0.0,0.0,0.0,0.0,0.0,0.0,0.0,0.0,0.0,0.0,0.0,0.0,0.0,0.0,0.0,0.0,0.0,0.0,0.0,0.0,0.0,0.0,0.0,0.0,0.0,0.0,0.0,0.0,0.0,0.0,0.0,0.0,0.0,0.0,0.0,0.0,0.0,0.0,0.0,0.0,0.0,0.0,0.0,0.0,0.0,0.0,0.0,0.0,0.0,0.0,0.0,0.0,0.0,0.0,0.0,0.0,0.0,0.0,0.0,0.0,0.0,0.0,0.0,0.0,0.0,0.0,0.0,0.0,0.0,0.0,0.0,0.0,0.0,0.0,0.0,0.0,0.0,0.0,0.0,0.0,0.0,0.0,0.0,0.0,0.0,0.0,0.0,0.0,0.0,0.0,0.0,0.0,0.0,0.0,0.0,0.0,0.0,0.0,0.0,0.0,0.0,0.0,0.0,0.0,0.0,0.0,0.0,0.0,0.0,0.0,0.0,0.0,0.0,0.0,0.0,0.0,0.0,0.0,0.0,0.0,0.0,0.0,0.0,0.0,0.0,0.0,0.0,0.0,0.0,0.0,0.0,0.0,0.0,0.0,0.0,0.0,0.0,0.0,0.0,0.0,0.0,0.0,0.0,0.0,0.0,0.0,0.0,0.0,0.0,0.0,0.0,0.0,0.0,0.0,0.0,0.0,0.0,0.0,0.0,0.0,0.0,0.0,0.0,0.0,0.0,0.0,0.0,0.0,0.0,0.0,0.0,0.0,0.0,0.0,0.0,0.0,0.0,0.0,0.0,0.0,0.0,0.0,0.0,0.0,0.0,0.0,0.0,0.0,0.0,0.0,0.0,0.0,0.0,0.0,0.0,0.0,0.0,0.0,0.0,0.0,0.0,0.0,0.0,0.0,0.0,0.0,0.0,0.0,0.0,0.0,0.0,0.0,0.0,0.0,0.0,0.0,0.0,0.0,0.0,0.0,0.0,0.0,0.0,0.0,0.0,0.0,0.0,0.0,0.0,0.0,0.0,0.0,0.0,0.0,0.0,0.0,0.0,0.0,0.0,0.0,0.0,0.0,0.0,0.0,0.0,0.0,0.0,0.0,0.0,0.0,0.0,0.0,0.0,0.0,0.0,0.0,0.0,0.0,0.0,0.0,0.0,0.0,0.0,0.0,0.0,0.0,0.0,0.0,0.0,0.0,0.0,0.0,0.0,0.0,0.0,0.0,0.0,0.0,0.0,0.0,0.0,0.0,0.0,0.0,0.0,0.0,0.0,0.0,0.0,0.0,0.0,0.0,0.0,0.0,0.0,0.0,0.0,0.0,0.0,0.0,0.0,0.0,0.0,0.0,0.0,0.0,0.0,0.0,0.0,0.0,0.0,0.0,0.0,0.0,0.0,0.0,0.0,0.0,0.0,0.0,0.0,0.0,0.0,0.0,0.0,0.0,0.0,0.0,0.0,0.0,0.0,0.0,0.0,0.0,0.0,0.0,0.0,0.0,0.0,0.0,0.0,0.0,0.0,0.0,0.0,0.0,0.0,0.0,0.0,0.0,0.0,0.0,0.0,0.0,0.0,0.0,0.0,0.0,0.0,0.0,0.0,0.0,0.0,0.0,0.0,0.0,0.0,0.0,0.0,0.0,0.0,0.0,0.0,0.0,0.0,0.0,0.0,0.0,0.0,0.0,0.0,0.0,0.0,0.0,0.0,0.0,0.0,0.0,0.0,0.0,0.0,0.0,0.0,0.0,0.0,0.0,0.0,0.0,0.0,0.0,0.0,0.0,0.0,0.0,0.0,0.0,0.0,0.0,0.0,0.0,0.0,0.0,0.0,0.0,0.0,0.0,0.0,0.0,0.0,0.0,0.0,0.0,0.0,0.0,0.0,0.0,0.0,0.0,0.0,0.0,0.0,0.0,0.0,0.0,0.0,0.0,0.0,0.0,0.0,0.0,0.0,0.0,0.0,0.0,0.0,0.0,0.0,0.0,0.0,0.0,0.0,0.0,0.0,0.0,0.0,0.0,0.0,0.0,0.0,0.0,0.0,0.0,0.0,0.0,0.0,0.0,0.0,0.0,0.0,0.0,0.0,0.0,0.0,0.0,0.0,0.0,0.0,0.0,0.0,0.0,0.0,0.0,0.0,0.0,0.0,0.0,0.0,0.0,0.0,0.0,0.0,0.0,0.0,0.0,0.0,0.0,0.0,0.0,0.0,0.0,0.0,0.0,0.0,0.0,0.0,0.0,0.0,0.0,0.0,0.0,0.0,0.0,0.0,0.0,0.0,0.0,0.0,0.0,0.0,0.0,0.0,0.0,0.0,0.0,0.0,0.0,0.0,0.0,0.0,0.0,0.0,0.0,0.0,0.0,0.0,0.0,0.0,0.0,0.0,0.0,0.0,0.0,0.0,0.0,0.0,0.0,0.0,0.0,0.0,0.0,0.0,0.0,0.0,0.0,0.0,0.0,0.0,0.0,0.0,0.0,0.0,0.0,0.0,0.0,0.0,0.0,0.0,0.0,0.0,0.0,0.0,0.0,0.0,0.0,0.0,0.0,0.0,0.0,0.0,0.0,0.0,0.0,0.0,0.0,0.0,0.0,0.0,0.0,0.0,0.0,0.0,0.0,0.0,0.0,0.0,0.0,0.0,0.0,0.0,0.0,0.0,0.0,0.0,0.0,0.0,0.0,0.0,0.0,0.0,0.0,0.0,0.0,0.0,0.0,0.0,0.0,0.0,0.0,0.0,0.0,0.0,0.0,0.0,0.0,0.0,0.0,0.0,0.0,0.0,0.0,0.0,0.0,0.0,0.0,0.0,0.0,0.0,0.0,0.0,0.0,0.0,0.0,0.0,0.0,0.0,0.0,0.0,0.0,0.0,0.0,0.0,0.0,0.0,0.0,0.0,0.0,0.0,0.0,0.0,0.0,0.0,0.0,0.0,0.0,0.0,0.0,0.0,0.0,0.0,0.0,0.0,0.0,0.0,0.0,0.0,0.0,0.0,0.0,0.0,0.0,0.0,0.0,0.0,0.0,0.0,0.0,0.0,0.0,0.0,0.0,0.0,0.0,0.0,0.0,0.0,0.0,0.0,0.0,0.0,0.0,0.0,0.0,0.0,0.0,0.0,0.0,0.0,0.0,0.0,0.0,0.0,0.0,0.0,0.0,0.0,0.0,0.0,0.0,0.0,0.0,0.0,0.0,0.0,0.0,0.0,0.0,0.0,0.0,0.0,0.0,0.0,0.0,0.0,0.0,0.0,0.0,0.0,0.0,0.0,0.0,0.0,0.0,0.0,0.0,0.0,0.0,0.0,0.0,0.0,0.0,0.0,0.0,0.0,0.0,0.0,0.0,0.0,0.0,0.0,0.0,0.0,0.0,0.0,0.0,0.0,0.0,0.0,0.0,0.0,0.0,0.0,0.0,0.0,0.0,0.0,0.0,0.0,0.0,0.0,0.0,0.0,0.0,0.0,0.0,0.0,0.0,0.0,0.0,0.0,0.0,0.0,0.0,0.0,0.0,0.0,0.0,0.0,0.0,0.0,0.0,0.0,0.0,0.0,0.0,0.0,0.0,0.0,0.0,0.0,0.0,0.0,0.0,0.0,0.0,0.0,0.0,0.0,0.0,0.0,0.0,0.0,0.0,0.0,0.0,0.0,0.0,0.0,0.0,0.0,0.0,0.0,0.0,0.0,0.0,0.0,0.0,0.0,0.0,0.0,0.0,0.0,0.0,0.0,0.0,0.0,0.0,0.0,0.0,0.0,0.0,0.0,0.0,0.0,0.0,0.0,0.0,0.0,0.0,0.0,0.0,0.0,-0.0149,0.0,0.0,0.0,0.0,0.0,0.0,0.0,0.0,0.0,0.0,0.0,0.0,0.0,0.0,0.0,0.0,0.0,0.0,0.0,0.0,0.0,0.0,0.0,0.0,0.0,0.0,0.0,0.0,0.0,0.0,0.0,0.0,0.0,0.0,0.0,0.0,0.0,0.0,0.0,0.0,0.0,0.0,0.0,0.0,0.0,0.0,0.0,0.0,0.0,0.0,0.0,0.0,0.0,0.0,0.0,0.0,0.0,0.0,0.0,0.0,0.0,0.0,0.0,0.0,0.0,0.0,0.0,0.0,0.0,0.0,0.0,0.0,0.0,0.0,0.0,0.0,0.0,0.0,0.0,0.0,0.0,0.0,0.0,0.0,0.0,0.0,0.0,0.0,0.0,0.0,0.0,0.0,0.0,0.0,0.0,0.0,0.0,0.0,0.0,0.0,0.0,0.0,0.0,0.0,0.0,0.0,0.0,0.0,0.0,0.0,0.3335,0.2469,0.1956,0.1499,0.1063,0.0,0.0,0.0,0.0,0.0,0.0,0.0,0.0,0.0,0.0,0.0,0.0,0.0,0.0,0.0,0.0,0.0,0.0,0.0,0.0,0.0,0.0,0.0,0.0,0.0,0.0,0.0,0.0,0.0,0.0,0.0,0.0,0.0,0.0,0.0,0.0,0.0,0.0,0.0,0.0,0.0,0.0,0.0,0.0,0.0,0.0,0.0,0.0,0.0,0.0,0.0,0.0,0.0,0.0,0.0,0.0,0.0,0.0,0.0,0.0,0.0,0.0,0.0,0.0,0.0,0.0,0.0,0.0,0.0,0.0,0.0,0.0,0.0,0.0,0.0,0.0,0.0,0.0,0.0,0.0,0.0,0.0,0.0,0.0,0.0,0.0,0.0,0.0,0.0,0.0,0.0,0.0,0.0,0.0,0.0,0.0,0.0,0.0,0.0,0.0,0.0,0.0,0.0,0.0,0.0,0.0,0.0,0.0,0.0,0.0,0.0,0.0,0.307,0.2677,0.2297,0.0,0.0,0.0,0.0,0.0,0.0,0.0,0.0,0.0,0.0,0.0,0.0,0.0,0.0,0.0,0.0,0.0,0.0,0.0,0.0,0.0,0.0,0.0,0.0,0.0,0.0,0.0,0.0,0.0,0.0,0.0,0.0,0.0,0.0,0.0,0.0,0.0,0.0,0.0,0.0,0.0,0.0,0.0,0.0,0.0,0.0,0.0,0.0,0.0,0.0,0.0,0.0,0.0,0.0,0.0,0.0,0.0,0.0,0.0,0.0,0.0,0.0,0.0,0.0,0.0,0.0,0.0,0.0,0.0,0.0,0.0,0.0,0.0,0.0,0.0,0.0,0.0,0.0,0.0,0.0,0.0,0.0,0.0,0.0,0.0,0.0,0.0,0.0,0.0,0.0,0.0,0.0,0.0,0.0,0.0,0.0,0.0,0.0,0.0,0.0,0.0,0.0,0.0,0.0,0.0,0.0,0.0,0.0,0.0,0.0,0.4552,0.4289,0.4303,0.0,0.3773,0.0,0.0,0.0,0.0,0.0,0.0,0.0,0.0,0.0,0.0,0.0,0.0,0.0,0.0,0.0,0.0,0.0,0.0,0.0,0.0,0.0,0.0,0.0,0.0,0.0,0.0,0.0,0.0,0.0,0.0,0.0,0.0,0.0,0.0,0.0,0.0,0.0,0.0,0.0,0.0,0.0,0.0,0.0,0.0,0.0,0.0,0.0,0.0,0.0,0.0,0.0,0.0,0.0,0.0,0.0,0.0,0.0,0.0,0.0,0.0,0.0,0.0,0.0,0.0,0.0,0.0,0.0,0.0,0.0,0.0,0.0,0.0,0.0,0.0,0.0,0.0,0.0,0.0,0.0,0.0,0.0,0.0,0.0,0.0,0.0,0.0,0.0,0.0,0.0,0.0,0.0,0.0,0.0,0.0,0.0,0.0,0.0,0.0,0.0,0.0,0.0,0.0,0.0,0.0,0.0,0.0,0.0,0.0,0.0,0.0,0.5107,0.4933,0.4924,0.4938,0.0,0.0,0.0,0.0,0.0,0.0,0.0,0.0,0.0,0.0,0.0,0.0,0.0,0.0,0.0,0.0,0.0,0.0,0.0,0.0,0.0,0.0,0.0,0.0,0.0,0.0,0.0,0.0,0.0,0.0,0.0,0.0,0.0,0.0,0.0,0.0,0.0,0.0,0.0,0.0,0.0,0.0,0.0,0.0,0.0,0.0,0.0,0.0,0.0,0.0,0.0,0.0,0.0,0.0,0.0,0.0,0.0,0.0,0.0,0.0,0.0,0.0,0.0,0.0,0.0,0.0,0.0,0.0,0.0,0.0,0.0,0.0,0.0,0.0,0.0,0.0,0.0,0.0,0.0,0.0,0.0,0.0,0.0,0.0,0.0,0.0,0.0,0.0,0.0,0.0,0.0,0.0,0.0,0.0,0.0,0.0,0.0,0.0,0.0,0.0,0.0,0.0,0.0,0.0,0.0,0.0,0.0,0.0,0.0,0.0,0.5822,0.5681,0.5647,0.5565,0.5653,0.592,0.0,0.0,0.0,0.0,0.0,0.0,0.0,0.0,0.0,0.0,0.0,0.0,0.0,0.0,0.0,0.0,0.0,0.0,0.0,0.0,0.0,0.0,0.0,0.0,0.0,0.0,0.0,0.0,0.0,0.0,0.0,0.0,0.0,0.0,0.0,0.0,0.0,0.0,0.0,0.0,0.0,0.0,0.0,0.0,0.0,0.0,0.0,0.0,0.0,0.0,0.0,0.0,0.0,0.0,0.0,0.0,0.0,0.0,0.0,0.0,0.0,0.0,0.0,0.0,0.0,0.0,0.0,0.0,0.0,0.0,0.0,0.0,0.0,0.0,0.0,0.0,0.0,0.0,0.0,0.0,0.0,0.0,0.0,0.0,0.0,0.0,0.0,0.0,0.0,0.0,0.0,0.0,0.0,0.0,0.0,0.0,0.0,0.0,0.0,0.0,0.0,0.0,0.0,0.0,0.0,0.0,0.0,0.0,0.6319,0.6201,0.6297,0.652,0.6349,0.6347,0.0,0.0,0.0,0.0,0.0,0.0,0.0,0.0,0.0,0.0,0.0,0.0,0.0,0.0,0.0,0.0,0.0,0.0,0.0,0.0,0.0,0.0,0.0,0.0,0.0,0.0,0.0,0.0,0.0,0.0,0.0,0.0,0.0,0.0,0.0,0.0,0.0,0.0,0.0,0.0,0.0,0.0,0.0,0.0,0.0,0.0,0.0,0.0,0.0,0.0,0.0,0.0,0.0,0.0,0.0,0.0,0.0,0.0,0.0,0.0,0.0,0.0,0.0,0.0,0.0,0.0,0.0,0.0,0.0,0.0,0.0,0.0,0.0,0.0,0.0,0.0,0.0,0.0,0.0,0.0,0.0,0.0,0.0,0.0,0.0,0.0,0.0,0.0,0.0,0.0,0.0,0.0,0.0,0.0,0.0,0.0,0.0,0.0,0.0,0.0,0.0,0.0,0.0,0.0,0.0,0.0,0.0,0.0,0.0,0.6621,0.6681,0.6865,0.7132,0.686,0.6925,0.0,0.0,0.0,0.0,0.0,0.0,0.0,0.0,0.0,0.0,0.0,0.0,0.0,0.0,0.0,0.0,0.0,0.0,0.0,0.0,0.0,0.0,0.0,0.0,0.0,0.0,0.0,0.0,0.0,0.0,0.0,0.0,0.0,0.0,0.0,0.0,0.0,0.0,0.0,0.0,0.0,0.0,0.0,0.0,0.0,0.0,0.0,0.0,0.0,0.0,0.0,0.0,0.0,0.0,0.0,0.0,0.0,0.0,0.0,0.0,0.0,0.0,0.0,0.0,0.0,0.0,0.0,0.0,0.0,0.0,0.0,0.0,0.0,0.0,0.0,0.0,0.0,0.0,0.0,0.0,0.0,0.0,0.0,0.0,0.0,0.0,0.0,0.0,0.0,0.0,0.0,0.0,0.0,0.0,0.0,0.0,0.0,0.0,0.0,0.0,0.0,0.0,0.0,0.0,0.0,0.0,0.0,0.0,0.0,0.6954,0.0,0.7247,0.7451,0.7326,0.7503,0.0,0.0,0.0,0.0,0.0,0.0,0.0,0.0,0.0,0.0,0.0,0.0,0.0,0.0,0.0,0.0,0.0,0.0,0.0,0.0,0.0,0.0,0.0,0.0,0.0,0.0,0.0,0.0,0.0,0.0,0.0,0.0,0.0,0.0,0.0,0.0,0.0,0.0,0.0,0.0,0.0,0.0,0.0,0.0,0.0,0.0,0.0,0.0,0.0,0.0,0.0,0.0,0.0,0.0,0.0,0.0,0.0,0.0,0.0,0.0,0.0,0.0,0.0,0.0,0.0,0.0,0.0,0.0,0.0,0.0,0.0,0.0,0.0,0.0,0.0,0.0,0.0,0.0,0.0,0.0,0.0,0.0,0.0,0.0,0.0,0.0,0.0,0.0,0.0,0.0,0.0,0.0,0.0,0.0,0.0,0.0,0.0,0.0,0.0,0.0,0.0,0.0,0.0,0.0,0.0,0.0,0.0,0.0,0.6887,0.7276,0.7373,0.7434,0.742,0.7706,0.7972,0.0,0.0,0.0,0.0,0.0,0.0,0.0,0.0,0.0,0.0,0.0,0.0,0.0,0.0,0.0,0.0,0.0,0.0,0.0,0.0,0.0,0.0,0.0,0.0,0.0,0.0,0.0,0.0,0.0,0.0,0.0,0.0,0.0,0.0,0.0,0.0,0.0,0.0,0.0,0.0,0.0,0.0,0.0,0.0,0.0,0.0,0.0,0.0,0.0,0.0,0.0,0.0,0.0,0.0,0.0,0.0,0.0,0.0,0.0,0.0,0.0,0.0,0.0,0.0,0.0,0.0,0.0,0.0,0.0,0.0,0.0,0.0,0.0,0.0,0.0,0.0,0.0,0.0,0.0,0.0,0.0,0.0,0.0,0.0,0.0,0.0,0.0,0.0,0.0,0.0,0.0,0.0,0.0,0.0,0.0,0.0,0.0,0.0,0.0,0.0,0.0,0.0,0.0,0.0,0.0,0.0,0.0,0.0,0.0,0.7421,0.7912,0.7928,0.7496,0.7841,0.819,0.0,0.0,0.0,0.0,0.0,0.0,0.0,0.0,0.0,0.0,0.0,0.0,0.0,0.0,0.0,0.0,0.0,0.0,0.0,0.0,0.0,0.0,0.0,0.0,0.0,0.0,0.0,0.0,0.0,0.0,0.0,0.0,0.0,0.0,0.0,0.0,0.0,0.0,0.0,0.0,0.0,0.0,0.0,0.0,0.0,0.0,0.0,0.0,0.0,0.0,0.0,0.0,0.0,0.0,0.0,0.0,0.0,0.0,0.0,0.0,0.0,0.0,0.0,0.0,0.0,0.0,0.0,0.0,0.0,0.0,0.0,0.0,0.0,0.0,0.0,0.0,0.0,0.0,0.0,0.0,0.0,0.0,0.0,0.0,0.0,0.0,0.0,0.0,0.0,0.0,0.0,0.0,0.0,0.0,0.0,0.0,0.0,0.0,0.0,0.0,0.0,0.0,0.0,0.0,0.0,0.0,0.0,0.0,0.0,0.7839,0.8273,0.8419,0.8211,0.866,0.8973,0.9156,0.0,0.0,0.0,0.0,0.0,0.0,0.0,0.0,0.0,0.0,0.0,0.0,0.0,0.0,0.0,0.0,0.0,0.0,0.0,0.0,0.0,0.0,0.0,0.0,0.0,0.0,0.0,0.0,0.0,0.0,0.0,0.0,0.0,0.0,0.0,0.0,0.0,0.0,0.0,0.0,0.0,0.0,0.0,0.0,0.0,0.0,0.0,0.0,0.0,0.0,0.0,0.0,0.0,0.0,0.0,0.0,0.0,0.0,0.0,0.0,0.0,0.0,0.0,0.0,0.0,0.0,0.0,0.0,0.0,0.0,0.0,0.0,0.0,0.0,0.0,0.0,0.0,0.0,0.0,0.0,0.0,0.0,0.0,0.0,0.0,0.0,0.0,0.0,0.0,0.0,0.0,0.0,0.0,0.0,0.0,0.0,0.0,0.0,0.0,0.0,0.0,0.0,0.0,0.0,0.0,0.0,0.0,0.0,0.8464,0.8539,0.8856,0.9385,0.9958,1.0172,0.0,0.0,0.0,0.0,0.0,0.0,0.0,0.0,0.0,0.0,0.0,0.0,0.0,0.0,0.0,0.0,0.0,0.0,0.0,0.0,0.0,0.0,0.0,0.0,0.0,0.0,0.0,0.0,0.0,0.0,0.0,0.0,0.0,0.0,0.0,0.0,0.0,0.0,0.0,0.0,0.0,0.0,0.0,0.0,0.0,0.0,0.0,0.0,0.0,0.0,0.0,0.0,0.0,0.0,0.0,0.0,0.0,0.0,0.0,0.0,0.0,0.0,0.0,0.0,0.0,0.0,0.0,0.0,0.0,0.0,0.0,0.0,0.0,0.0,0.0,0.0,0.0,0.0,0.0,0.0,0.0,0.0,0.0,0.0,0.0,0.0,0.0,0.0,0.0,0.0,0.0,0.0,0.0,0.0,0.0,0.0,0.0,0.0,0.0,0.0,0.0,0.0,0.0,0.0,0.0,0.0,0.0,0.0,0.0,0.9166,0.9535,0.9654,0.948,0.9884,1.0107,0.0,0.0,0.0,0.0,0.0,0.0,0.0,0.0,0.0,0.0,0.0,0.0,0.0,0.0,0.0,0.0,0.0,0.0,0.0,0.0,0.0,0.0,0.0,0.0,0.0,0.0,0.0,0.0,0.0,0.0,0.0,0.0,0.0,0.0,0.0,0.0,0.0,0.0,0.0,0.0,0.0,0.0,0.0,0.0,0.0,0.0,0.0,0.0,0.0,0.0,0.0,0.0,0.0,0.0,0.0,0.0,0.0,0.0,0.0,0.0,0.0,0.0,0.0,0.0,0.0,0.0,0.0,0.0,0.0,0.0,0.0,0.0,0.0,0.0,0.0,0.0,0.0,0.0,0.0,0.0,0.0,0.0,0.0,0.0,0.0,0.0,0.0,0.0,0.0,0.0,0.0,0.0,0.0,0.0,0.0,0.0,0.0,0.0,0.0,0.0,0.0,0.0,0.0,0.0,0.0,0.0,0.0,0.0,0.9431,0.9245,1.0144,1.0527,1.0296,1.0426,1.0484,0.0,0.0,0.0,0.0,0.0,0.0,0.0,0.0,0.0,0.0,0.0,0.0,0.0,0.0,0.0,0.0,0.0,0.0,0.0,0.0,0.0,0.0,0.0,0.0,0.0,0.0,0.0,0.0,0.0,0.0,0.0,0.0,0.0,0.0,0.0,0.0,0.0,0.0,0.0,0.0,0.0,0.0,0.0,0.0,0.0,0.0,0.0,0.0,0.0,0.0,0.0,0.0,0.0,0.0,0.0,0.0,0.0,0.0,0.0,0.0,0.0,0.0,0.0,0.0,0.0,0.0,0.0,0.0,0.0,0.0,0.0,0.0,0.0,0.0,0.0,0.0,0.0,0.0,0.0,0.0,0.0,0.0,0.0,0.0,0.0,0.0,0.0,0.0,0.0,0.0,0.0,0.0,0.0,0.0,0.0,0.0,0.0,0.0,0.0,0.0,0.0,0.0,0.0,0.0,0.0,0.0,0.0,0.0,0.9798,0.924,1.0509,1.1247,1.1376,1.1178,1.1062,0.0,0.0,0.0,0.0,0.0,0.0,0.0,0.0,0.0,0.0,0.0,0.0,0.0,0.0,0.0,0.0,0.0,0.0,0.0,0.0,0.0,0.0,0.0,0.0,0.0,0.0,0.0,0.0,0.0,0.0,0.0,0.0,0.0,0.0,0.0,0.0,0.0,0.0,0.0,0.0,0.0,0.0,0.0,0.0,0.0,0.0,0.0,0.0,0.0,0.0,0.0,0.0,0.0,0.0,0.0,0.0,0.0,0.0,0.0,0.0,0.0,0.0,0.0,0.0,0.0,0.0,0.0,0.0,0.0,0.0,0.0,0.0,0.0,0.0,0.0,0.0,0.0,0.0,0.0,0.0,0.0,0.0,0.0,0.0,0.0,0.0,0.0,0.0,0.0,0.0,0.0,0.0,0.0,0.0,0.0,0.0,0.0,0.0,0.0,0.0,0.0,0.0,0.0,0.0,0.0,0.0,0.0,0.0,1.0531,1.0501,1.0945,1.1239,1.1307,1.1015,1.0968,0.0,0.0,0.0,0.0,0.0,0.0,0.0,0.0,0.0,0.0,0.0,0.0,0.0,0.0,0.0,0.0,0.0,0.0,0.0,0.0,0.0,0.0,0.0,0.0,0.0,0.0,0.0,0.0,0.0,0.0,0.0,0.0,0.0,0.0,0.0,0.0,0.0,0.0,0.0,0.0,0.0,0.0,0.0,0.0,0.0,0.0,0.0,0.0,0.3452,0.0,0.0,0.0,0.0,0.0,0.0,0.0,0.0,0.0,0.0,0.0,0.0,0.0,0.0,0.0,0.0,0.0,0.0,0.0,0.0,0.0,0.0,0.0,0.0,0.0,0.0,0.0,0.0,0.0,0.0,0.0,0.0,0.0,0.0,0.0,0.0,0.0,0.0,0.0,0.0,0.0,0.0,0.0,0.0,0.0,0.0,0.0,0.0,0.0,0.0,0.0,0.0,0.0,0.0,0.0,0.0,0.0,0.0,0.0,1.0373,1.0739,1.1038,1.1224,1.1285,1.1294,1.1284,0.0,0.0,0.0,0.0,0.0,0.0,0.0,0.0,0.0,0.0,0.0,0.0,0.0,0.0,0.0,0.0,0.0,0.0,0.0,0.0,0.0,0.0,0.0,0.0,0.0,0.0,0.0,0.0,0.0,0.0,0.0,0.0,0.0,0.0,0.0,0.0,0.0,0.0,0.0,0.0,0.0,0.0,0.0,0.0,0.0,0.0,0.0,0.0,0.0,0.0,0.0,0.0,0.0,0.0,0.0,0.0,0.0,0.0,0.0,0.0,0.0,0.0,0.0,0.0,0.0,0.0,0.0,0.0,0.0,0.0,0.0,0.0,0.0,0.0,0.0,0.0,0.0,0.0,0.0,0.0,0.0,0.0,0.0,0.0,0.0,0.0,0.0,0.0,0.0,0.0,0.0,0.0,0.0,0.0,0.0,0.0,0.0,0.0,0.0,0.0,0.0,0.0,0.0,0.0,0.0,0.0,0.0,0.976,1.0026,1.0836,1.1089,1.1258,1.1427,1.1647,1.157,1.1206,0.0,0.0,0.0,0.0,0.0,0.0,0.0,0.0,0.0,0.0,0.0,0.0,0.0,0.0,0.0,0.0,0.0,0.0,0.0,0.0,0.0,0.0,0.0,0.0,0.0,0.0,0.0,0.0,0.0,0.0,0.0,0.0,0.0,0.0,0.0,0.0,0.0,0.0,0.5344,0.5742,0.0,0.0,0.0,0.0,0.0,0.0,0.0,0.0,0.3414,0.0,0.0,0.0,0.0,0.0,0.0,0.0,0.0,0.0,0.0,0.0,0.0,0.0,0.0,0.0,0.0,0.0,0.0,0.0,0.0,0.0,0.0,0.0,0.0,0.0,0.0,0.0,0.0,0.0,0.0,0.0,0.0,0.0,0.0,0.0,0.0,0.0,0.0,0.0,0.0,0.0,0.0,0.0,0.0,0.0,0.0,0.0,0.0,0.0,0.0,0.0,0.0,0.0,0.0,0.0,0.0,1.038,0.9901,1.0417,1.206,1.1521,1.1433,1.1915,1.1426,1.115,1.1183,0.0,0.0,0.0,0.0,0.0,0.0,0.0,0.0,0.0,0.0,0.0,0.0,0.0,0.0,0.0,0.0,0.0,0.0,0.0,0.0,0.0,0.0,0.0,0.0,0.0,0.0,0.0,0.0,0.0,0.0,0.0,0.0,0.0,0.0,0.0,0.0,0.0,0.0,0.0,0.5716,0.5769,0.0,0.0,0.0,0.0,0.0,0.0,0.0,0.0,0.4127,0.0,0.0,0.0,0.0,0.0,0.0,0.0,0.0,0.0,0.0,0.0,0.0,0.0,0.0,0.0,0.0,0.0,0.0,0.0,0.0,0.0,0.0,0.0,0.0,0.0,0.0,0.0,0.0,0.0,0.0,0.0,0.0,0.0,0.0,0.0,0.0,0.0,0.0,0.0,0.0,0.0,0.0,0.0,0.0,0.0,0.0,0.0,0.0,0.0,0.0,0.0,0.0,0.0,0.0,0.0,1.0399,1.0105,1.0612,1.1967,1.1836,1.184,1.2099,1.2015,1.1914,0.0,0.0,0.0,0.0,0.0,0.0,0.0,0.0,0.0,0.0,0.0,0.0,0.0,0.0,0.0,0.0,0.0,0.0,0.0,0.0,0.0,0.0,0.0,0.0,0.0,0.0,0.0,0.0,0.0,0.0,0.0,0.0,0.0,0.0,0.0,0.0,0.0,0.0,0.0,0.0,0.5913,0.6327,0.6734,0.0,0.0,0.0,0.0,0.0,0.0,0.4592,0.4335,0.0,0.0,0.0,0.0,0.0,0.0,0.0,0.0,0.0,0.0,0.0,0.0,0.0,0.0,0.0,0.0,0.0,0.0,0.0,0.0,0.0,0.0,0.0,0.0,0.0,0.0,0.0,0.0,0.0,0.0,0.0,0.0,0.0,0.0,0.0,0.0,0.0,0.0,0.0,0.0,0.0,0.0,0.0,0.0,0.0,0.0,0.0,0.0,0.0,0.0,0.0,0.0,0.0,0.0,0.0,1.0379,1.0477,1.0939,1.1883,1.2235,1.2362,1.2312,1.245,1.235,0.0,0.0,0.0,0.0,0.0,0.0,0.0,0.0,0.0,0.0,0.0,0.0,0.0,0.0,0.0,0.0,0.0,0.0,0.0,0.0,0.0,0.0,0.0,0.0,0.0,0.0,0.0,0.0,0.0,0.0,0.0,0.0,0.0,0.0,0.0,0.0,0.0,0.0,0.0,0.0,0.0,0.6826,0.7094,0.7072,0.0,0.0,0.0,0.0,0.542,0.5088,0.0,0.0,0.0,0.0,0.0,0.0,0.0,0.0,0.0,0.0,0.0,0.0,0.0,0.0,0.0,0.0,0.0,0.0,0.0,0.0,0.0,0.0,0.0,0.0,0.0,0.0,0.0,0.0,0.0,0.0,0.0,0.0,0.0,0.0,0.0,0.0,0.0,0.0,0.0,0.0,0.0,0.0,0.0,0.0,0.0,0.0,0.0,0.0,0.0,0.0,0.0,0.0,0.0,0.0,0.0,0.0,1.0233,1.104,1.183,1.2623,1.2922,1.3058,1.2976,1.1783,1.122,0.0,0.0,0.0,0.0,0.0,0.0,0.0,0.0,0.0,0.0,0.0,0.0,0.0,0.0,0.0,0.0,0.0,0.0,0.0,0.0,0.0,0.0,0.0,0.0,0.0,0.0,0.0,0.0,0.0,0.0,0.0,0.0,0.0,0.0,0.0,0.0,0.0,0.0,0.0,0.0,0.0,0.6725,0.7202,0.7376,0.73,0.0,0.0,0.6975,0.6792,0.6778,0.0,0.0,0.0,0.0,0.0,0.0,0.0,0.0,0.0,0.0,0.0,0.0,0.0,0.0,0.0,0.0,0.0,0.0,0.0,0.0,0.0,0.0,0.0,0.0,0.0,0.0,0.0,0.0,0.0,0.0,0.0,0.0,0.0,0.0,0.0,0.0,0.0,0.0,0.0,0.0,0.0,0.0,0.0,0.0,0.0,0.0,0.0,0.0,0.0,0.0,0.0,0.0,0.0,0.0,0.0,1.0321,1.0749,1.1459,1.2155,1.283,1.2696,1.2746,1.3048,1.2288,1.2088,0.0,0.0,0.0,0.0,0.0,0.0,0.0,0.0,0.0,0.0,0.0,0.0,0.0,0.0,0.0,0.0,0.0,0.0,0.0,0.0,0.0,0.0,0.0,0.0,0.0,0.0,0.0,0.0,0.0,0.0,0.0,0.0,0.0,0.0,0.0,0.0,0.0,0.0,0.0,0.0,0.0,0.0,0.7118,0.7501,0.0,0.0,0.0,0.7682,0.7497,0.0,0.0,0.0,0.0,0.0,0.0,0.0,0.0,0.0,0.0,0.0,0.0,0.0,0.0,0.0,0.0,0.0,0.0,0.0,0.0,0.0,0.0,0.0,0.0,0.0,0.0,0.0,0.0,0.0,0.0,0.0,0.0,0.0,0.0,0.0,0.0,0.0,0.0,0.0,0.0,0.0,0.0,0.0,0.0,0.0,0.0,0.0,0.0,0.0,0.0,0.0,0.0,0.0,0.0,0.0,0.0,0.0,1.1223,1.2058,1.2716,1.3151,1.316,1.3215,1.3288,1.3221,0.0,0.0,0.0,0.0,0.0,0.0,0.0,0.0,0.0,0.0,0.0,0.0,0.0,0.0,0.0,0.0,0.0,0.0,0.0,0.0,0.0,0.0,0.0,0.0,0.0,0.0,0.0,0.446,0.0,0.0,0.0,0.0,0.0,0.0,0.0,0.0,0.0,0.0,0.0,0.0,0.0,0.0,0.7003,0.715,0.7572,0.7923,0.0,0.0,0.799,0.7865,0.8041,0.7961,0.0,0.0,0.0,0.0,0.0,0.0,0.0,0.0,0.0,0.0,0.0,0.0,0.0,0.0,0.0,0.0,0.0,0.0,0.0,0.0,0.0,0.0,0.0,0.0,0.0,0.0,0.0,0.0,0.0,0.0,0.0,0.0,0.0,0.0,0.0,0.0,0.0,0.0,0.0,0.0,0.0,0.0,0.0,0.0,0.0,0.0,0.0,0.0,0.0,0.0,0.0,0.0,0.0,0.0,0.0,1.1363,1.2992,1.3866,1.3983,1.5139,1.5184,1.407,1.4553,1.4356,0.0,0.0,0.0,0.0,0.0,0.0,0.0,0.0,0.0,0.0,0.0,0.0,0.0,0.0,0.0,0.0,0.0,0.0,0.0,0.0,0.0,0.0,0.0,0.0,0.0,0.0,0.0,0.0,0.0,0.0,0.0,0.0,0.0,0.0,0.0,0.0,0.0,0.0,0.0,0.0,0.0,0.7076,0.7525,0.7584,0.7711,0.0,0.0,0.7811,0.8022,0.8454,0.8499,0.7784,0.0,0.0,0.0,0.0,0.0,0.0,0.0,0.0,0.0,0.0,0.0,0.0,0.0,0.0,0.0,0.0,0.0,0.0,0.0,0.0,0.0,0.0,0.0,0.0,0.0,0.0,0.0,0.0,0.0,0.0,0.0,0.0,0.0,0.0,0.0,0.0,0.0,0.0,0.0,0.0,0.0,0.0,0.0,0.0,0.0,0.0,0.0,0.0,0.0,0.0,0.0,0.0,0.0,1.1781,1.2188,1.3336,1.4243,1.4846,1.5071,1.5198,1.5162,1.534,1.512,0.0,0.0,0.0,0.0,0.0,0.0,0.0,0.0,0.0,0.0,0.0,0.0,0.0,0.0,0.0,0.0,0.0,0.0,0.0,0.0,0.0,0.0,0.0,0.0,0.0,0.0,0.0,0.0,0.3514,0.3089,0.2781,0.0,0.0,0.0,0.0,0.0,0.0,0.0,0.0,0.0,0.0,0.6628,0.7046,0.7436,0.0,0.0,0.8184,0.8184,0.8333,0.8454,0.8393,0.8019,0.7969,0.0,0.0,0.0,0.0,0.0,0.0,0.0,0.0,0.0,0.0,0.0,0.0,0.0,0.0,0.0,0.0,0.0,0.0,0.0,0.0,0.0,0.0,0.0,0.0,0.0,0.0,0.0,0.0,0.0,0.0,0.0,0.0,0.0,0.0,0.0,0.0,0.0,0.0,0.0,0.0,0.0,0.0,0.0,0.0,0.0,0.0,0.0,0.0,0.0,0.0,0.0,0.0,1.1949,1.2718,1.3634,1.4572,1.5613,1.5515,1.565,1.6022,1.6205,1.6075,0.0,0.0,0.0,0.0,0.0,0.0,0.0,0.0,0.0,0.0,0.0,0.0,0.0,0.0,0.0,0.0,0.0,0.0,0.0,0.0,0.0,0.0,0.0,0.0,0.0,0.0,0.0,0.0,0.4067,0.3599,0.3886,0.0,0.0,0.0,0.0,0.0,0.0,0.0,0.0,0.0,0.0,0.6507,0.675,0.7339,0.7853,0.8088,0.8124,0.8162,0.8296,0.8352,0.8342,0.8106,0.0,0.0,0.0,0.0,0.0,0.0,0.0,0.0,0.0,0.0,0.0,0.0,0.0,0.0,0.0,0.0,0.0,0.0,0.0,0.0,0.0,0.0,0.0,0.0,0.0,0.0,0.0,0.0,0.0,0.0,0.5181,0.0,0.0,0.0,0.0,0.0,0.0,0.0,0.0,0.0,0.0,0.0,0.0,0.0,0.0,0.0,0.0,0.0,0.0,0.0,0.0,0.0,0.0,1.1917,1.2789,1.3912,1.5029,1.615,1.6807,1.6941,1.6628,1.7283,1.7455,1.703,0.0,0.0,0.0,0.0,0.0,0.0,0.0,0.0,0.0,0.0,0.0,0.0,0.0,0.0,0.0,0.0,0.0,0.0,0.0,0.0,0.0,0.0,0.0,0.0,0.0,0.0,0.4718,0.3551,0.3331,0.0,0.0,0.0,0.0,0.0,0.0,0.0,0.0,0.0,0.0,0.6347,0.6902,0.675,0.7361,0.7756,0.7488,0.7518,0.7653,0.7925,0.8215,0.8319,0.0,0.0,0.0,0.0,0.0,0.0,0.0,0.0,0.0,0.0,0.0,0.0,0.0,0.0,0.0,0.0,0.0,0.0,0.0,0.0,0.0,0.0,0.0,0.0,0.0,0.0,0.0,0.6688,0.6549,0.0,0.0,0.0,0.0,0.0,0.0,0.0,0.0,0.0,0.0,0.0,0.8237,0.9515,0.0,0.0,0.0,0.0,0.0,0.0,0.0,0.0,0.0,0.0,0.0,0.0,1.2213,1.2686,1.4387,1.566,1.6371,1.7048,1.7408,1.7479,1.7852,1.7679,1.6866,0.0,0.0,0.0,0.0,0.0,0.0,0.0,0.0,0.0,0.0,0.0,0.0,0.0,0.0,0.0,0.0,0.0,0.0,0.0,0.0,0.0,0.0,0.0,0.0,0.0,0.5542,0.0,0.0,0.0,0.0,0.0,0.0,0.0,0.0,0.0,0.0,0.0,0.5624,0.6497,0.6588,0.6805,0.7404,0.7578,0.7621,0.0,0.0,0.0,0.0,0.0,0.0,0.0,0.0,0.0,0.0,0.0,0.0,0.0,0.0,0.876,0.8406,0.8352,0.8257,0.7987,0.0,0.0,0.0,0.0,0.0,0.0,0.0,0.0,0.0,0.0,0.0,0.0,0.0,0.0,0.8063,0.0,0.7671,0.0,0.0,0.0,0.0,0.0,0.0,0.0,0.0,0.7554,0.8286,0.8733,1.0149,1.0705,0.0,1.1921,1.2159,0.0,0.0,0.0,0.0,0.0,0.0,0.0,0.0,1.2166,1.2472,1.4541,1.5998,1.6609,1.7085,1.7447,1.7747,1.8029,1.7841,1.7185,1.6759,1.6233,0.0,0.0,0.0,0.0,0.0,0.0,0.0,0.0,0.0,0.0,0.0,0.0,0.0,0.0,0.0,0.0,0.0,0.0,0.0,0.0,0.0,0.0,0.0,0.629,0.0,0.0,0.0,0.0,0.0,0.0,0.0,0.0,0.0,0.5567,0.5717,0.6136,0.702,0.7002,0.7132,0.7668,0.0,0.0,0.0,0.0,0.0,0.0,0.0,0.8707,0.877,0.8601,0.8591,0.8984,0.9451,0.9748,0.9661,0.0,0.0,0.8979,0.8971,0.898,0.851,0.8339,0.8125,0.7908,0.7688,0.7588,0.0,0.0,0.0,0.0,0.0,0.0,0.0,0.0,1.0731,1.014,0.0,0.9264,0.0,0.0,0.0,0.0,0.0,0.7423,0.0,0.0,0.8544,0.9273,0.9753,1.0684,1.1069,1.0976,1.183,1.2517,1.3011,1.25,0.0,0.0,0.0,0.0,0.0,0.0,1.1815,1.2257,1.4447,1.6048,1.6837,1.6934,1.7118,1.7435,1.7774,1.7921,1.7947,1.8013,1.7404,1.5863,1.5819,0.0,0.0,0.0,0.0,0.0,0.0,0.0,0.0,0.0,0.0,0.0,0.0,0.0,0.0,0.0,0.0,0.0,0.0,0.0,0.0,0.7654,0.0,0.0,0.0,0.0,0.0,0.0,0.0,0.0,0.0,0.0,0.6209,0.6488,0.6784,0.7001,0.0,0.0,0.0,0.0,0.7611,0.7298,0.7769,0.8164,0.822,0.8658,0.9057,0.9045,0.0,0.0,0.9354,0.9701,0.9933,0.9976,1.0086,0.9866,0.9185,0.9244,0.9138,0.855,0.8334,0.8116,0.7949,0.7865,0.7848,1.32,0.0,0.0,0.0,0.0,1.1762,1.1665,1.1582,1.1478,1.1122,1.0615,1.0383,0.0,0.0,0.0,0.0,0.0,0.0,0.9509,0.9314,0.988,1.0677,1.1733,1.178,1.1668,1.1465,1.3135,1.4107,1.4329,1.3573,1.2615,1.1488,0.0,0.0,0.0,0.0,1.2287,1.228,1.4488,1.6028,1.6607,1.6367,1.6273,1.6451,1.684,1.7031,1.6877,1.6903,1.6429,1.5373,1.548,0.0,0.0,0.0,0.0,0.0,0.0,0.0,0.0,0.0,0.0,0.0,0.0,0.0,0.0,0.0,0.0,0.0,0.0,0.0,0.7089,0.7696,0.8055,0.0,0.0,0.0,0.0,0.0,0.0,0.0,0.0,0.0,0.7505,0.7159,0.7107,0.0,0.0,0.7725,0.7757,0.811,0.8287,0.8172,0.8864,0.0,0.0,0.9688,0.9803,0.9551,0.9515,0.953,0.959,1.0071,1.0414,1.0451,1.0443,1.0329,0.9945,0.9841,0.9786,0.9567,0.9287,0.903,0.8888,0.856,0.8434,1.4665,1.4121,1.3042,1.2828,1.3238,1.2969,1.2795,1.2705,1.2459,1.2147,1.1797,1.136,1.1068,1.0903,1.0533,0.0,0.0,0.0,1.0608,1.0691,1.0785,1.1279,1.2135,1.2199,1.2214,1.2344,1.3723,1.478,1.5464,1.4291,1.3334,1.2562,0.0,0.0,1.0855,1.218,1.2811,1.2704,1.4674,1.5869,1.6163,1.6026,1.5948,1.6007,1.612,1.6043,1.5788,1.6021,1.5828,1.5148,1.5247,1.5046,0.0,0.0,0.0,0.0,0.0,0.0,0.0,0.0,0.0,0.0,0.0,1.2209,0.0,0.0,0.0,0.0,0.7705,0.6625,0.6626,0.7532,0.0,0.0,0.0,0.0,0.0,0.0,0.0,0.8009,0.816,0.8323,0.8303,0.7979,0.7775,0.7996,0.7829,0.7847,0.819,0.0,0.8713,0.884,0.9407,0.9829,0.9829,1.0056,1.0173,0.9818,0.9737,0.9812,0.9936,1.026,1.0531,1.0701,1.0792,1.0725,1.064,1.0511,1.0311,0.9974,0.9712,0.946,0.9401,0.9138,0.9087,1.5782,1.6177,1.4439,1.4192,1.4852,1.4094,1.3872,1.4063,1.3538,1.3174,1.2959,1.2282,1.1799,1.142,1.0811,0.0,1.1586,1.0913,1.0967,1.1645,1.1329,1.1357,1.161,1.2061,1.2632,1.3309,1.3757,1.4749,1.6181,1.4718,1.3932,1.3842,1.2525,1.1662,1.1386,1.2582,1.3304,1.3504,1.4903,1.5662,1.5775,1.5933,1.5973,1.5944,1.5545,1.5155,1.4784,1.5314,1.5407,1.498,1.5094,1.5073,1.4865,0.0,0.0,0.0,0.0,0.0,0.0,0.0,0.0,0.0,0.0,0.0,0.0,0.0,0.0,0.0,0.7921,0.0,0.6478,0.7335,0.0,0.0,0.0,0.9013,0.9888,0.9724,0.9453,0.9195,0.0,0.0,0.877,0.8745,0.861,0.8292,0.808,0.8217,0.8757,0.8864,0.8974,0.9291,0.9614,0.9807,0.9833,1.0082,1.0155,0.9933,0.9843,0.9913,1.0168,1.027,1.0515,1.0856,1.0943,1.1055,1.1269,1.1041,1.0724,1.0031,0.9721,0.9641,0.9696,0.9677,0.9653,1.5874,1.587,1.5466,1.5008,1.4459,1.4242,1.421,1.4274,1.4348,1.4114,1.3621,1.3142,1.2572,1.1948,1.1731,1.1849,1.2147,1.2162,1.2159,1.2204,1.2073,1.2105,1.2325,1.2341,1.2627,1.3322,1.3949,1.4746,1.5588,1.4923,1.4257,1.3627,1.362,1.316,1.226,1.3055,1.3704,1.417,1.5175,1.5858,1.6161,1.6325,1.6067,1.5435,1.5149,1.4705,1.3993,1.4063,1.3966,1.3672,1.3823,1.3913,1.3852,1.3523,0.0,0.0,0.0,0.0,0.0,0.0,0.0,0.0,0.0,1.2711,1.3137,0.0,0.8387,0.0,0.8292,0.7716,0.8357,0.869,0.0,0.0,0.9439,0.9214,0.9187,0.9475,0.944,0.8961,0.9279,0.9411,0.9041,0.8801,0.8743,0.896,0.8825,0.8862,0.917,0.9466,0.9646,0.9799,1.0076,1.0392,1.0392,1.0262,1.0193,1.004,0.9926,0.9874,0.9926,1.0166,1.039,1.0526,1.0706,1.0974,1.1255,1.1019,1.0785,1.0516,1.0341,1.0285,1.0273,1.0198,1.014,1.6239,1.6089,1.5884,1.5284,1.4485,1.481,1.481,1.4716,1.4546,1.432,1.3987,1.3518,1.303,1.2443,1.2273,1.2232,1.2292,1.2296,1.2253,1.2151,1.2006,1.1965,1.199,1.1948,1.2184,1.2622,1.3296,1.3931,1.4487,1.4627,1.4486,1.4092,1.4502,1.4268,1.349,1.3699,1.4018,1.4414,1.5148,1.5797,1.6298,1.6115,1.5643,1.4901,1.4611,1.3883,1.2788,1.2995,1.2977,1.2625,1.2867,1.3049,1.3099,1.3007,1.3093,0.0,0.0,0.0,0.0,0.0,0.0,0.0,0.0,0.0,0.0,0.0,0.903,0.8769,0.8313,0.8177,0.8429,0.8616,0.8991,0.9633,0.9411,0.9297,0.9486,0.9721,0.9698,0.9388,0.9599,0.9644,0.9307,0.913,0.9157,0.94,0.94,0.9417,0.9622,0.9999,1.0197,1.0265,1.0392,1.0618,1.0618,1.0418,1.0244,1.0179,1.0077,1.0097,1.0164,1.0269,1.0467,1.0741,1.0805,1.0929,1.1367,1.1278,1.1022,1.0902,1.0812,1.0738,1.0513,1.0432,1.0357,1.6427,1.6367,1.5831,1.5272,1.4722,1.531,1.5401,1.5044,1.4439,1.4155,1.4048,1.3568,1.3183,1.2902,1.2491,1.2371,1.2401,1.2131,1.2022,1.198,1.1778,1.1566,1.1464,1.1566,1.1653,1.1693,1.2324,1.2848,1.3304,1.4118,1.4617,1.4749,1.4994,1.4965,1.4475,1.4268,1.4267,1.453,1.507,1.5659,1.6289,1.5605,1.4987,1.4469,1.4073,1.3211,1.1767,1.2267,1.2394,1.1921,1.2194,1.2457,1.269,1.268,1.3032,0.0,1.3848,0.0,0.0,0.0,0.0,0.0,0.0,0.0,0.0,1.1843,1.0257,0.7758,0.8253,0.8511,0.7967,0.8148,0.8639,0.9376,0.925,0.9392,1.0103,1.011,0.9983,0.9919,0.9862,0.974,0.9536,0.9478,0.9542,0.9703,0.9755,0.9794,1.0069,1.0319,1.0471,1.0491,1.0498,1.0504,1.0514,1.0438,1.0394,1.0384,1.035,1.039,1.051,1.0478,1.0575,1.0997,1.0994,1.1039,1.1533,1.1496,1.1341,1.1105,1.1037,1.0962,1.0663,1.0594,1.0443,1.5371,1.5311,1.5283,1.5012,1.4526,1.4653,1.4687,1.4644,1.4501,1.4315,1.4026,1.3461,1.3068,1.2969,1.2508,1.259,1.3103,1.2789,1.2618,1.2609,1.2447,1.2347,1.2175,1.2149,1.1889,1.142,1.1952,1.2567,1.3307,1.3913,1.4223,1.4242,1.4762,1.4601,1.3781,0.0,0.0,0.0,1.5437,1.5699,1.5873,1.5186,1.4762,1.4641,1.4048,0.0,1.2681,1.2691,1.2533,1.2218,1.1882,0.0,0.0,0.0,0.0,0.0,0.0,0.0,0.0,0.0,0.0,0.0,1.2842,1.2983,1.2934,1.1287,0.9764,0.8835,0.8539,0.8676,0.9407,0.9207,0.9332,0.9843,0.9819,0.98,0.997,0.9983,0.9919,0.9652,0.9728,0.974,0.9542,0.9478,0.9548,0.974,0.9804,0.9843,0.9971,1.0072,1.011,1.011,1.018,1.0194,1.0418,1.0296,1.0373,1.0467,1.0416,1.0339,1.0363,1.052,1.0635,1.0875,1.0961,1.1033,1.118,1.1186,1.1192,1.1117,1.1117,1.1111,1.1037,1.0887,1.0669,1.4757,0.0,1.4488,1.4172,0.0,1.3631,1.3511,1.3564,1.3983,1.4108,1.3934,1.3496,1.3195,1.3055,1.2572,1.2543,1.291,1.2581,1.2462,1.2453,1.2342,1.2239,1.2184,1.2103,1.2006,1.1828,1.2121,1.2581,1.3264,1.3707,1.393,1.4005,1.4412,1.4344,1.3853,1.4133,1.4478,1.4998,1.5128,1.5225,1.5352,1.4874,1.4443,1.4157,0.0,0.0,0.0,0.0,0.0,0.0,0.0,0.0,0.0,0.0,0.0,1.3513,1.3351,1.3287,1.3338,1.3065,1.2685,1.2249,1.2059,1.2077,1.2421,1.1068,1.0154,0.9847,0.9411,0.9344,0.9861,0.9712,0.9637,0.9843,0.9792,0.9734,0.9856,0.9798,0.9728,0.9664,0.967,0.9606,0.9478,0.9478,0.9548,0.9612,0.9676,0.9676,0.9734,0.9926,0.9989,0.9989,0.9989,1.0084,1.0343,1.0392,1.0492,1.074,1.07,1.0707,1.0713,1.0828,1.0912,1.0918,1.1027,1.1117,1.1117,1.1117,1.1037,1.0956,1.0887,1.0887,1.0812,1.0812,1.0743,1.4276,1.4266,1.3562,1.3164,1.2928,1.2544,1.2359,1.2421,0.0,0.0,0.0,1.358,1.3297,1.3041,1.263,1.2481,1.2501,1.2346,1.2272,1.2272,1.2159,1.2102,1.2102,1.2093,1.223,1.2509,1.2492,1.2788,1.3414,1.351,1.3672,1.3896,1.4037,1.413,1.413,1.413,1.4255,1.4393,1.448,1.4597,1.4793,1.4419,1.401,1.3571,1.3868,1.3532,1.2565,1.2839,1.27,1.2172,1.2391,1.2599,1.2662,1.2932,1.3179,1.3411,1.3241,1.3211,1.3243,1.2728,1.2297,1.2058,1.1365,1.1122,1.1553,1.0926,1.0498,1.0491,1.0174,0.9983,0.9983,0.9792,0.967,0.9734,0.9542,0.9478,0.967,0.9606,0.9542,0.9676,0.9612,0.9478,0.9478,0.9478,0.9414,0.9414,0.9414,0.942,0.9478,0.967,0.9862,0.9856,0.9918,1.0108,1.0299,1.0504,1.0695,1.0965,1.1034,1.1105,1.1111,1.1037,1.1037,1.1093,1.1117,1.1117,1.1037,1.1037,1.0956,1.0732,1.0732,1.0663,1.0519,1.0588,1.0588,1.3259,1.3515,1.2765,1.2321,1.2096,1.1941,1.1864,1.1802,1.2903,1.339,1.339,1.3476,1.3268,1.2854,1.283,1.2813,1.2781,1.2841,1.2893,1.2901,1.2833,1.2833,1.2833,1.2764,1.2864,1.3029,1.277,1.3076,1.3699,1.3566,1.3544,1.3775,1.3863,1.383,1.3881,1.395,1.4043,1.404,1.3983,1.395,1.395,1.3467,1.3321,1.3494,1.3545,1.3473,1.3256,1.3295,1.3182,1.2933,1.2724,1.2837,1.3381,1.3195,1.3174,1.3451,1.3201,1.287,1.2482,1.2112,1.1615,1.1059,1.0618,1.0491,1.0674,1.0491,1.0244,1.011,0.9926,0.9804,0.9798,0.953,0.9332,0.9344,0.9139,0.9081,0.9338,0.9338,0.9408,0.9484,0.9548,0.9408,0.9338,0.9338,0.928,0.9145,0.9151,0.9087,0.9151,0.935,0.9542,0.9578,0.9807,1.0044,1.0274,1.056,1.0803,1.1015,1.1075,1.1117,1.1117,1.0962,1.0962,1.1037,1.1049,1.0974,1.0887,1.0812,1.0738,1.0588,1.0513,1.0438,1.0288,1.0293,1.0212,1.2548,1.2292,1.2,1.1673,1.1331,1.1418,1.1411,1.1462,1.1939,1.2336,1.2674,1.2736,1.2691,1.2629,1.2498,1.2531,1.2641,1.2704,1.287,1.3116,1.3059,1.302,1.3042,1.2892,1.2911,1.3015,1.2914,1.3161,1.362,1.3475,1.3434,1.3511,1.3398,1.3346,1.3346,1.3407,1.3459,1.3467,1.3709,1.3821,1.3769,1.3354,1.3233,1.3407,1.3398,1.3374,1.3372,1.3423,1.3412,1.3188,1.3055,1.3074,1.3169,1.3016,1.2852,1.2834,1.2552,1.2174,1.1809,1.131,1.08,1.0308,1.0123,0.9989,0.9989,0.9989,0.9996,0.9926,0.974,0.9612,0.9612,0.9472,0.9338,0.9332,0.921,0.9215,0.9145,0.9215,0.9215,0.9215,0.9215,0.9215,0.9145,0.9139,0.9145,0.9017,0.9022,0.9017,0.9145,0.9274,0.9408,0.9432,0.9706,0.9964,1.0221,1.055,1.081,1.1069,1.1111,1.1117,1.1111,1.0962,1.0887,1.0887,1.0818,1.0749,1.0663,1.0588,1.0513,1.0363,1.0218,1.0067,0.9922,0.9771,0.9695,1.2074,1.1427,1.1436,1.1198,1.0904,1.093,1.1005,1.1123,1.1042,1.1348,1.1772,1.1884,1.2003,1.2197,1.2065,1.2178,1.2394,1.2489,1.2737,1.3184,1.3132,1.3127,1.3162,1.3074,1.3044,1.3103,1.3145,1.328,1.3447,1.3336,1.3224,1.3147,1.2981,1.2928,1.2928,1.292,1.2928,1.2997,1.3346,1.3528,1.3588,1.3354,1.3241,1.318,1.3164,1.3208,1.3216,1.3268,1.326,1.3199,1.307,1.2895,1.2642,1.2451,1.2274,1.1981,1.1677,1.1296,1.0926,1.0364,0.9926,0.9664,0.967,0.9606,0.9478,0.9612,0.974,0.974,0.9606,0.9478,0.9478,0.9478,0.9408,0.9338,0.935,0.928,0.9087,0.9092,0.9163,0.9022,0.9022,0.9022,0.8958,0.8958,0.8958,0.8958,0.8958,0.9087,0.921,0.9274,0.9285,0.9468,0.9718,1.006,1.0305,1.0641,1.0809,1.1019,1.1037,1.0962,1.0962,1.0812,1.0738,1.0663,1.0594,1.0443,1.0368,1.0363,1.0218,0.9992,0.9846,0.9695,0.962,0.9453,0.9321,1.1598,1.1417,1.1083,1.0867,1.0817,1.061,1.0622,1.061,1.0566,1.0685,1.1012,1.1233,1.1387,1.1435,1.1707,1.1955,1.2123,1.2367,1.2694,1.3005,1.3199,1.3251,1.3361,1.3619,1.3793,1.368,1.3597,1.3496,1.3542,1.3199,1.2928,1.2867,1.2683,1.2621,1.2629,1.2552,1.2691,1.2915,1.2752,1.2797,1.3042,1.3042,1.2989,1.2858,1.2875,1.2858,1.2846,1.2674,1.2666,1.2773,1.2397,1.2074,1.2004,1.1509,1.108,1.0961,1.0584,1.0212,0.9709,0.9524,0.9274,0.9081,0.9274,0.9338,0.9338,0.9478,0.9548,0.9548,0.9548,0.9478,0.9478,0.9408,0.9338,0.9274,0.921,0.9022,0.9022,0.9022,0.9092,0.9163,0.9022,0.8958,0.8905,0.8835,0.8835,0.8835,0.8899,0.8958,0.9022,0.918,0.9403,0.9614,0.9991,1.0305,1.0545,1.0821,1.0965,1.0801,1.0807,1.0738,1.0594,1.0443,1.0293,1.0368,1.0293,1.0148,0.9997,0.9922,0.9846,0.962,0.9473,0.9327,0.9347,0.9314,0.9267,1.1328,1.112,1.0985,1.1009,1.093,1.0785,1.0646,1.0634,1.0408,1.0343,1.0578,1.0702,1.1002,1.1452,1.1723,1.1966,1.2251,1.2395,1.2775,1.3294,1.3379,1.3484,1.3637,1.3758,1.3791,1.376,1.3558,1.3404,1.3211,1.2726,1.2428,1.2367,1.2305,1.2313,1.2313,1.2305,1.2321,1.239,1.2313,1.2305,1.2305,1.249,1.2593,1.2585,1.2474,1.2455,1.2397,1.2134,1.1895,1.1674,1.1326,1.0905,1.0521,1.0212,0.9888,0.9564,0.925,0.8941,0.8624,0.8624,0.8689,0.8683,0.8952,0.9145,0.9274,0.9408,0.9478,0.9478,0.9478,0.9478,0.9478,0.9408,0.9408,0.9338,0.928,0.9221,0.9022,0.9092,0.9092,0.8964,0.8964,0.8835,0.8711,0.8776,0.877,0.8705,0.8705,0.8835,0.8899,0.9077,0.9342,0.9724,0.9979,1.029,1.0587,1.0863,1.0932,1.0812,1.0663,1.0594,1.0368,1.0067,0.9922,0.9997,0.9927,0.9776,0.9544,0.9468,0.9387,0.9251,0.9185,0.9128,0.9106,0.912,0.917,1.1037,1.0807,1.1037,1.1117,1.1117,1.0893,1.0738,1.072,1.0324,1.0171,1.0227,1.0271,1.0609,1.1287,1.1565,1.193,1.2269,1.2289,1.267,1.3397,1.3492,1.372,1.3839,1.4042,1.4047,1.3898,1.3573,1.3196,1.2822,1.2391,1.2065,1.2065,1.2065,1.1996,1.1996,1.2003,1.1941,1.1941,1.1941,1.1872,1.1692,1.1954,1.2119,1.2201,1.2093,1.1977,1.1798,1.1544,1.1162,1.0762,1.0301,0.9826,0.9303,0.9057,0.8689,0.8291,0.8037,0.7912,0.7792,0.7982,0.8172,0.8361,0.8694,0.9017,0.921,0.9414,0.9478,0.9478,0.9478,0.9478,0.9478,0.9478,0.9408,0.9338,0.9408,0.935,0.9145,0.9151,0.9157,0.8905,0.8905,0.8776,0.8576,0.8641,0.87,0.8641,0.8641,0.877,0.8803,0.8964,0.9135,0.9603,0.9768,1.0164,1.0682,1.0831,1.0881,1.0594,1.0368,1.0218,0.9992,0.9695,0.9549,0.9625,0.9483,0.9408,0.9322,0.9165,0.9052,0.9091,0.9115,0.9024,0.9063,0.9054,0.915,1.0812,1.0812,1.1037,1.1117,1.1117,1.0893,1.0669,1.0519,1.0271,1.0121,0.9959,1.0093,1.0323,1.057,1.0922,1.1394,1.1921,1.2033,1.2476,1.3178,1.3572,1.3855,1.4114,1.4625,1.4673,1.4301,1.3755,1.3074,1.2204,1.2143,1.2065,1.2065,1.1872,1.1809,1.1809,1.1685,1.1622,1.1622,1.1622,1.149,1.1269,1.1461,1.1551,1.1528,1.1535,1.1436,1.1054,1.0729,1.0441,1.0233,0.9372,0.8907,0.8751,0.8184,0.762,0.7353,0.7283,0.7283,0.7292,0.7503,0.7831,0.8072,0.85,0.8857,0.9026,0.9362,0.9497,0.9508,0.9532,0.9514,0.9508,0.9426,0.9408,0.9478,0.9408,0.9344,0.9274,0.9274,0.9151,0.8969,0.891,0.8781,0.8582,0.8501,0.863,0.8635,0.8641,0.8592,0.8712,0.8799,0.8969,0.9206,0.9443,0.9873,1.0771,1.0738,1.0357,1.0143,0.9992,0.9846,0.9544,0.9322,0.9322,0.9322,0.9327,0.9251,0.9099,0.898,0.8966,0.8946,0.9023,0.9048,0.918,0.9391,0.9447,1.0812,1.0812,1.0887,1.0812,1.0738,1.0663,1.0513,1.0299,1.0067,0.9846,0.9549,0.962,0.962,0.976,1.0035,1.0657,1.1554,1.1627,1.1978,1.2599,1.3053,1.3419,1.371,1.4209,1.4353,1.4109,1.3592,1.2787,1.1994,1.1809,1.1747,1.1622,1.149,1.1428,1.1373,1.131,1.131,1.131,1.131,1.1185,1.0954,1.1094,1.1076,1.0931,1.1168,1.1185,1.0882,1.0378,0.9862,0.9432,0.879,0.8389,0.8101,0.7554,0.703,0.6684,0.661,0.6684,0.6826,0.7034,0.738,0.7862,0.8343,0.8806,0.9089,0.9434,0.9711,0.9749,0.9681,0.961,0.9694,0.9586,0.9408,0.9408,0.9408,0.9408,0.9408,0.9338,0.921,0.9028,0.8905,0.8776,0.8868,0.884,0.8689,0.8501,0.8447,0.8527,0.8476,0.846,0.8609,0.8826,0.897,0.9145,0.9437,0.9916,0.9992,0.9771,0.962,0.9397,0.9175,0.9013,0.8937,0.8937,0.9018,0.9018,0.8865,0.887,0.8803,0.8978,0.9053,0.9209,0.9377,0.9536,0.9473,1.079,1.079,1.0796,1.0766,1.0758,1.0764,1.0605,1.0379,1.0153,0.9766,0.9451,0.9301,0.9194,0.913,0.9279,0.9753,1.0588,1.0956,1.1409,1.2003,1.2452,1.29,1.3266,1.363,1.3775,1.367,1.311,1.2373,1.1758,1.1541,1.1373,1.1247,1.1178,1.1122,1.0996,1.0996,1.0996,1.0989,1.1059,1.1038,1.0907,1.0916,1.0795,1.0511,1.0701,1.0625,1.0432,0.9829,0.9311,0.8763,0.8229,0.7727,0.7237,0.6877,0.652,0.6309,0.623,0.6309,0.6452,0.6738,0.7086,0.7588,0.8155,0.8649,0.8996,0.9357,0.9631,0.973,0.9777,0.9779,0.9728,0.9646,0.9574,0.9432,0.9408,0.9472,0.9478,0.9408,0.9274,0.9022,0.9043,0.9088,0.9194,0.9107,0.887,0.8461,0.8466,0.8348,0.828,0.8202,0.8231,0.8377,0.8482,0.8514,0.8708,0.9008,0.915,0.8927,0.9089,0.8941,0.887,0.8708,0.8627,0.8627,0.8627,0.8703,0.8703,0.8703,0.8845,0.8969,0.9176,0.939,0.953,0.9729,0.9561,1.0684,1.0901,1.0913,1.0954,1.1032,1.1124,1.1089,1.074,1.0428,0.9994,0.9485,0.9127,0.8841,0.8727,0.8677,0.8819,0.918,0.9906,1.0663,1.1335,1.1781,1.2224,1.282,1.3046,1.3164,1.3114,1.2409,1.1882,1.1479,1.1199,1.1059,1.1059,1.087,1.0807,1.0744,1.0744,1.0744,1.0807,1.087,1.0944,1.0982,1.0837,1.0621,1.0329,1.0063,0.982,0.962,0.9221,0.8751,0.8138,0.7538,0.6919,0.6512,0.6281,0.619,0.614,0.6122,0.6115,0.6194,0.6637,0.7009,0.7368,0.7909,0.8445,0.8674,0.908,0.9433,0.9585,0.9805,0.9829,0.9632,0.9728,0.9736,0.9526,0.9408,0.9408,0.9478,0.9478,0.935,0.9121,0.9217,0.9449,0.9541,0.9428,0.9093,0.8831,0.8499,0.8243,0.808,0.8096,0.8006,0.793,0.7974,0.8089,0.8102,0.8102,0.8012,0.8003,0.8322,0.8484,0.8412,0.8331,0.8403,0.8403,0.8551,0.8632,0.8722,0.8751,0.8866,0.9054,0.9261,0.9518,0.9757,0.9861,0.963,1.0693,1.0919,1.0925,1.0884,1.0789,1.0956,1.0869,1.0713,1.0395,0.9979,0.9322,0.8759,0.8329,0.8112,0.7911,0.7886,0.8021,0.8623,0.9382,1.0288,1.0812,1.1335,1.1855,1.2224,1.2337,1.2186,1.1964,1.1553,1.1127,1.0836,1.0688,1.0555,1.0491,1.0364,1.0238,1.0238,1.0238,1.0231,1.0301,1.0309,1.0388,1.0331,1.0178,0.9924,0.9564,0.916,0.8784,0.8556,0.8174,0.7714,0.7279,0.6844,0.6572,0.6493,0.6421,0.6273,0.6273,0.6417,0.664,0.6783,0.7076,0.7543,0.7992,0.8291,0.8659,0.8936,0.9311,0.9669,0.9852,0.991,1.002,0.9923,0.9796,0.9373,0.9408,0.9408,0.9478,0.9408,0.9432,0.9449,0.9336,0.9462,0.9645,0.9578,0.9184,0.8831,0.8548,0.8222,0.8138,0.7997,0.7957,0.7841,0.7846,0.7714,0.7791,0.7791,0.7787,0.7783,0.794,0.8097,0.8102,0.8106,0.8178,0.8345,0.8417,0.8588,0.8674,0.8787,0.8983,0.9171,0.9412,0.963,0.9871,0.9781,0.9607,1.0442,1.0674,1.068,1.0733,1.073,1.0902,1.0896,1.0736,1.0564,1.006,0.9396,0.8813,0.8251,0.7813,0.7446,0.7228,0.7196,0.7407,0.8016,0.8851,0.9765,1.0368,1.0962,1.1558,1.1784,1.165,1.1519,1.1289,1.0957,1.0594,1.0335,1.027,1.0168,0.9983,0.9849,0.9856,0.9926,0.9926,0.9926,0.9978,1.0031,0.9898,0.9723,0.9437,0.9085,0.8623,0.8178,0.7949,0.7642,0.7249,0.6865,0.6641,0.649,0.6483,0.6412,0.6335,0.6335,0.6483,0.6791,0.6846,0.7096,0.7492,0.7799,0.8097,0.8479,0.8775,0.9231,0.9588,0.9931,1.0098,1.0252,1.0313,0.998,0.9591,0.9521,0.9496,0.9478,0.9408,0.9527,0.9663,0.9614,0.9656,0.9856,0.968,0.9331,0.8979,0.8684,0.834,0.8184,0.7992,0.7934,0.7766,0.7625,0.7561,0.7557,0.7557,0.7557,0.7638,0.7714,0.7791,0.7791,0.7949,0.803,0.83,0.8462,0.8714,0.8819,0.896,0.9052,0.9306,0.947,0.9625,0.9707,0.9593,0.9345,1.0063,1.0322,1.0333,1.0614,1.0961,1.0966,1.095,1.089,1.0702,1.025,0.957,0.8939,0.8418,0.7741,0.7248,0.6841,0.6602,0.6641,0.6791,0.7403,0.8399,0.9468,1.0137,1.0962,1.1323,1.1286,1.1112,1.0982,1.0812,1.0337,1.0062,1.0079,0.9857,0.9664,0.9524,0.9664,0.9734,0.967,0.9765,0.9772,0.9863,0.9589,0.9232,0.9034,0.877,0.8403,0.7876,0.7488,0.7099,0.6865,0.6563,0.6335,0.6335,0.6338,0.6338,0.6261,0.6261,0.6412,0.6641,0.6865,0.7022,0.7334,0.7646,0.7876,0.8178,0.8703,0.9155,0.9468,1.0045,1.041,1.0306,1.0395,1.0331,1.0031,0.9655,0.9557,0.952,0.9473,0.9676,0.9952,0.988,0.9825,1.022,0.984,0.9546,0.9271,0.8949,0.8566,0.8201,0.8049,0.7855,0.7718,0.7557,0.7557,0.748,0.748,0.748,0.7557,0.7642,0.7646,0.7667,0.7756,0.794,0.8207,0.8521,0.876,0.8936,0.9066,0.9201,0.9442,0.9573,0.9586,0.9497,0.9401,0.9078,1.0333,1.0555,1.0555,1.0677,1.0819,1.0921,1.0916,1.0733,1.0467,1.0033,0.9515,0.8727,0.8189,0.7729,0.6943,0.629,0.5996,0.618,0.6412,0.6567,0.7334,0.8322,0.9301,1.0288,1.0669,1.0645,1.0589,1.0509,1.0479,0.9931,0.9618,0.9583,0.9415,0.921,0.9145,0.921,0.921,0.9245,0.9277,0.9366,0.9383,0.9164,0.8945,0.8737,0.8479,0.8106,0.7799,0.7253,0.6791,0.649,0.6335,0.6261,0.6261,0.6261,0.6261,0.6338,0.6412,0.6641,0.6791,0.7022,0.718,0.7407,0.7561,0.7795,0.8327,0.878,0.9236,0.9695,1.0218,1.049,1.0399,1.0475,1.0265,0.9886,0.9725,0.957,0.9499,0.9535,0.9742,1.0055,1.0076,1.0153,1.0125,0.9938,0.9625,0.9322,0.9018,0.8708,0.825,0.8025,0.7872,0.7638,0.748,0.748,0.748,0.748,0.748,0.748,0.7565,0.7577,0.7626,0.7688,0.789,0.8102,0.8493,0.8756,0.8987,0.9082,0.9294,0.9512,0.9515,0.9438,0.9374,0.9161,0.8723,0.9951,1.0125,1.0125,1.0207,1.0386,1.0564,1.0477,1.0381,1.012,0.9685,0.9074,0.8372,0.7756,0.7307,0.6612,0.5966,0.55,0.5712,0.5948,0.6103,0.6791,0.771,0.8699,0.9533,0.9922,1.0159,1.0159,1.0171,1.0087,0.9665,0.944,0.9423,0.9122,0.8964,0.8958,0.8952,0.8958,0.8933,0.8937,0.8969,0.892,0.8861,0.8714,0.8585,0.8255,0.7953,0.7488,0.7099,0.6714,0.6412,0.6261,0.6261,0.6261,0.6261,0.6338,0.6412,0.6563,0.6714,0.6949,0.7103,0.7257,0.7484,0.748,0.7787,0.8327,0.8937,0.9473,0.9841,1.0293,1.0438,1.0496,1.0376,1.012,0.9867,0.9884,0.9794,0.9531,0.9599,0.9803,0.999,1.0092,1.0104,1.0185,0.9841,0.9544,0.9241,0.8941,0.8479,0.8097,0.7944,0.7791,0.748,0.7326,0.7249,0.733,0.733,0.7403,0.7403,0.7488,0.7488,0.7642,0.772,0.7944,0.8197,0.8435,0.8726,0.8941,0.9181,0.9397,0.9506,0.9488,0.9235,0.9069,0.8723,0.8285,0.9257,0.9257,0.9257,0.9519,0.9956,0.9951,0.9951,0.9864,0.9602,0.9165,0.8544,0.7918,0.7379,0.6702,0.6249,0.5711,0.5249,0.5321,0.5479,0.5867,0.6405,0.7246,0.8016,0.8699,0.9251,0.9651,0.9781,0.9825,0.9707,0.952,0.9487,0.9377,0.9153,0.8946,0.8909,0.8918,0.8874,0.881,0.8679,0.8669,0.8604,0.8617,0.8543,0.8367,0.8097,0.7718,0.7176,0.6945,0.6791,0.6338,0.6257,0.6261,0.6261,0.6338,0.6412,0.6563,0.6641,0.6872,0.7103,0.7257,0.7334,0.7484,0.748,0.7787,0.8403,0.9099,0.9706,0.9922,1.0293,1.0438,1.0368,1.0276,1.0032,0.9884,1.001,1.0047,0.9845,0.9786,0.9871,1.0064,0.9969,0.9933,0.9911,0.969,0.916,0.9322,0.8941,0.8479,0.8097,0.7787,0.7561,0.7176,0.7099,0.7022,0.7099,0.718,0.7253,0.7338,0.7403,0.7549,0.7633,0.7785,0.8016,0.8201,0.8535,0.8802,0.9011,0.9198,0.9383,0.9323,0.9152,0.8894,0.8636,0.8109,0.7672,0.9174,0.8999,0.9262,0.9345,0.9432,0.9607,0.9432,0.917,0.9087,0.864,0.7998,0.7458,0.7048,0.6791,0.6018,0.5388,0.5104,0.5246,0.5479,0.586,0.5941,0.6405,0.7099,0.7863,0.8498,0.8889,0.9175,0.9236,0.9311,0.9206,0.9202,0.9294,0.9039,0.8981,0.9012,0.8762,0.8652,0.8627,0.8388,0.8299,0.8369,0.8444,0.842,0.8178,0.7868,0.7488,0.7257,0.7103,0.6872,0.6483,0.6338,0.6352,0.6342,0.649,0.657,0.6729,0.6876,0.7107,0.7184,0.7342,0.7484,0.748,0.7553,0.7851,0.8627,0.9327,0.9857,1.0148,1.0368,1.0293,1.0073,0.9992,0.9884,0.9852,1.0018,1.0179,1.0153,1.0194,1.0353,1.0319,1.0112,0.9916,1.0126,0.9765,0.9392,0.9246,0.8941,0.8479,0.8097,0.771,0.733,0.7022,0.6868,0.6791,0.6791,0.6872,0.6945,0.7076,0.7292,0.7415,0.7581,0.782,0.807,0.826,0.8553,0.8784,0.8966,0.9,0.9161,0.8986,0.8723,0.8552,0.8201,0.7672,0.7234,0.8372,0.8288,0.8556,0.8732,0.8819,0.8903,0.8815,0.8552,0.8288,0.8028,0.7643,0.699,0.659,0.629,0.5819,0.5371,0.5118,0.5246,0.5398,0.5631,0.5709,0.5867,0.6099,0.6795,0.7496,0.8209,0.8412,0.8556,0.8656,0.8743,0.8753,0.8973,0.8842,0.8769,0.8824,0.8511,0.8386,0.8334,0.8093,0.798,0.8129,0.8309,0.8331,0.8102,0.7795,0.7492,0.7257,0.7184,0.6945,0.6729,0.6631,0.6638,0.6504,0.657,0.6673,0.6962,0.7057,0.732,0.7426,0.7459,0.748,0.7484,0.7476,0.7936,0.8556,0.9332,0.9868,1.0078,1.0148,1.0073,0.9695,0.9695,0.9695,0.9846,1.0067,1.0288,1.0368,1.0438,1.0513,1.0438,1.0271,1.0121,1.0062,0.9765,0.9468,0.9322,0.8784,0.8403,0.8016,0.7633,0.7253,0.6945,0.6714,0.656,0.656,0.6637,0.6633,0.6802,0.7027,0.7222,0.7401,0.7766,0.8143,0.8285,0.8487,0.8686,0.8873,0.8907,0.8819,0.8727,0.8464,0.8201,0.7852,0.7415,0.6969,0.7312,0.7401,0.7672,0.7848,0.8025,0.8021,0.8025,0.7933,0.758,0.7411,0.72,0.6544,0.6045,0.569,0.5624,0.5345,0.5121,0.5171,0.5323,0.5398,0.5479,0.5637,0.5715,0.6022,0.649,0.759,0.7718,0.7787,0.7901,0.8098,0.8263,0.8498,0.851,0.8466,0.8445,0.8135,0.7981,0.8132,0.7874,0.7717,0.7863,0.8138,0.8169,0.803,0.7723,0.7492,0.7269,0.7138,0.7072,0.6913,0.6983,0.6983,0.6834,0.6798,0.6917,0.7377,0.7359,0.7533,0.766,0.765,0.7541,0.7525,0.7488,0.7791,0.8484,0.9103,0.9559,0.9706,0.9771,0.9695,0.9322,0.9468,0.9695,0.9846,1.0218,1.0443,1.0513,1.0513,1.0513,1.0443,1.0293,1.0212,0.9992,0.9771,0.9549,0.9246,0.8708,0.8327,0.794,0.7633,0.7253,0.6872,0.6641,0.6254,0.6177,0.6193,0.6264,0.6516,0.6743,0.6948,0.7148,0.7517,0.7861,0.8078,0.8281,0.8472,0.856,0.8468,0.8376,0.8376,0.8113,0.7672,0.7411,0.7153,0.6792,0.6605,0.6605,0.6871,0.7139,0.7228,0.7132,0.7048,0.7058,0.6969,0.6704,0.6316,0.5934,0.5653,0.5487,0.5214,0.5115,0.5021,0.5093,0.5171,0.5246,0.5332,0.5416,0.5562,0.5581,0.5721,0.5786,0.6398,0.6938,0.7088,0.7371,0.7711,0.7947,0.7983,0.8032,0.8044,0.7812,0.7684,0.7823,0.753,0.7405,0.7641,0.7845,0.7953,0.7799,0.7569,0.7338,0.7219,0.7156,0.6994,0.6857,0.6986,0.7033,0.7026,0.7267,0.7461,0.762,0.7748,0.7817,0.7939,0.7817,0.7728,0.7758,0.7602,0.7825,0.8277,0.8741,0.9173,0.9387,0.9448,0.9347,0.9099,0.9387,0.9565,0.9787,1.01,1.0466,1.0605,1.0519,1.0438,1.0368,1.0293,1.0218,0.9997,0.9771,0.9473,0.9246,0.8865,0.8484,0.8097,0.7718,0.7415,0.6953,0.6567,0.618,0.5792,0.5814,0.5911,0.6152,0.6441,0.6675,0.6891,0.7253,0.7548,0.7573,0.7852,0.812,0.8116,0.8028,0.7848,0.776,0.7408,0.7139,0.6881,0.6618,0.6441,0.5542,0.5722,0.5988,0.6166,0.634,0.6251,0.6343,0.6438,0.6441,0.6349,0.6095,0.5744,0.5455,0.5306,0.5121,0.5021,0.5018,0.5018,0.5093,0.5174,0.5227,0.5218,0.5349,0.5384,0.5213,0.5263,0.5783,0.6251,0.6483,0.6865,0.7176,0.748,0.7557,0.7706,0.7664,0.7368,0.7293,0.7388,0.7206,0.7194,0.7497,0.7689,0.7718,0.7569,0.7342,0.718,0.7053,0.7107,0.7031,0.6998,0.7184,0.7286,0.7418,0.755,0.7743,0.7831,0.7836,0.799,0.8109,0.8,0.7894,0.7882,0.7709,0.784,0.8392,0.8885,0.9085,0.934,0.9434,0.9429,0.9444,0.9566,0.9844,1.0132,1.033,1.0503,1.0494,1.0455,1.0288,1.0218,1.0218,1.0148,1.0148,0.9846,0.9468,0.917,0.8941,0.8646,0.8268,0.7902,0.7533,0.7234,0.6788,0.6347,0.6023,0.5857,0.5934,0.6154,0.6254,0.6479,0.6685,0.7027,0.7017,0.6959,0.7231,0.7676,0.7764,0.7672,0.7408,0.7143,0.6874,0.6609,0.6346,0.608,0.5908,0.4385,0.4743,0.4924,0.5188,0.5364,0.5455,0.563,0.5813,0.5902,0.5994,0.6051,0.5576,0.5371,0.5309,0.5151,0.5018,0.5018,0.5018,0.5018,0.5031,0.5089,0.5089,0.5145,0.5083,0.5094,0.5176,0.5246,0.5556,0.5944,0.6177,0.6486,0.6637,0.6942,0.7019,0.6908,0.6601,0.6703,0.6855,0.6832,0.698,0.7294,0.7521,0.7618,0.7394,0.7258,0.7066,0.686,0.7006,0.7001,0.7076,0.7228,0.7479,0.7497,0.7603,0.7789,0.7838,0.7781,0.7978,0.8082,0.8094,0.799,0.8069,0.7859,0.8172,0.8569,0.9018,0.9375,0.9495,0.9557,0.9619,0.9671,0.9882,1.0124,1.048,1.0617,1.0623,1.045,1.0279,1.0073,0.9997,1.0078,1.0073,0.9997,0.9771,0.9397,0.917,0.8946,0.8644,0.8344,0.813,0.7791,0.7545,0.7141,0.6709,0.6388,0.6201,0.6188,0.6355,0.6463,0.659,0.6681,0.687,0.6741,0.6609,0.6874,0.7231,0.7319,0.7231,0.6877,0.6523,0.6343,0.5988,0.5636,0.5468,0.5208,0.3135,0.3765,0.3764,0.4034,0.4476,0.4478,0.4746,0.5099,0.5188,0.5371,0.5719,0.5326,0.5215,0.5317,0.514,0.5037,0.5026,0.5034,0.5029,0.5029,0.5056,0.5134,0.5171,0.5098,0.5132,0.5174,0.5093,0.5171,0.5401,0.5476,0.5553,0.5631,0.564,0.5476,0.5805,0.5802,0.577,0.6261,0.6405,0.6637,0.6987,0.7183,0.7232,0.7118,0.7031,0.693,0.6688,0.6809,0.682,0.6685,0.7004,0.7102,0.7204,0.721,0.7316,0.7562,0.772,0.7975,0.8123,0.8096,0.8086,0.8316,0.8401,0.8556,0.8991,0.9321,0.964,0.9322,0.9514,0.9712,0.9819,0.9943,1.0222,1.0493,1.0817,1.0611,1.0445,1.0067,0.9856,0.9614,0.969,0.9771,0.9765,0.9544,0.9322,0.9094,0.8889,0.8672,0.8461,0.8273,0.8032,0.7788,0.7749,0.7396,0.708,0.6807,0.6709,0.6766,0.6763,0.6698,0.6573,0.6634,0.6577,0.652,0.6697,0.6609,0.6517,0.6343,0.6169,0.5899,0.563,0.5277,0.4837,0.4672,0.4516,0.2241,0.296,0.296,0.3138,0.3494,0.3585,0.3941,0.4385,0.4743,0.5104,0.5435,0.5295,0.5183,0.5266,0.5165,0.51,0.5047,0.5028,0.5072,0.5045,0.5145,0.523,0.5202,0.5232,0.5328,0.5107,0.5015,0.4935,0.501,0.5093,0.5165,0.5257,0.5151,0.5192,0.5116,0.5259,0.5534,0.5953,0.627,0.6669,0.6925,0.7049,0.7093,0.6852,0.6836,0.6619,0.6412,0.6417,0.649,0.6433,0.6718,0.6877,0.6966,0.7054,0.7139,0.7231,0.7499,0.7845,0.8097,0.8218,0.836,0.8603,0.8794,0.9114,0.9512,0.9832,0.9996,0.9931,0.9931,1.0001,0.9996,1.0189,1.0361,1.0611,1.0729,1.0503,1.0195,0.9912,0.9648,0.9397,0.916,0.916,0.917,0.9047,0.8904,0.8842,0.8754,0.8636,0.8546,0.8607,0.837,0.8066,0.8098,0.8111,0.7865,0.7602,0.7343,0.7325,0.7159,0.6981,0.6543,0.6401,0.6334,0.608,0.5991,0.5813,0.5719,0.5719,0.5633,0.5366,0.4919,0.4567,0.422,0.3921,0.3869,0.1705,0.2244,0.2334,0.2511,0.2778,0.2959,0.3317,0.376,0.4121,0.4659,0.5164,0.5249,0.5219,0.5136,0.5352,0.5281,0.51,0.5186,0.5116,0.5165,0.5165,0.5159,0.5134,0.5173,0.5187,0.4983,0.4838,0.4777,0.4716,0.4711,0.4793,0.4983,0.4733,0.4791,0.492,0.4964,0.517,0.5504,0.6004,0.642,0.6681,0.6975,0.6916,0.677,0.6619,0.647,0.6066,0.6273,0.6349,0.6144,0.6517,0.6761,0.6805,0.6881,0.7054,0.7143,0.7411,0.768,0.8028,0.8277,0.856,0.8823,0.9078,0.9369,0.9995,1.0294,1.0202,1.0154,1.0159,1.0173,1.0202,1.0188,1.0191,1.0334,1.0496,1.0228,0.9822,0.937,0.9062,0.8846,0.8551,0.8399,0.834,0.8385,0.8408,0.8503,0.8526,0.8586,0.862,0.8655,0.859,0.8337,0.8558,0.8649,0.84,0.8165,0.8021,0.7764,0.7591,0.7234,0.677,0.6413,0.6251,0.5902,0.546,0.5282,0.528,0.5277,0.5188,0.4654,0.4208,0.3944,0.3607,0.3214,0.319,0.1436,0.1525,0.1705,0.1974,0.2243,0.2424,0.2781,0.3227,0.3317,0.3942,0.4823,0.5349,0.5504,0.5423,0.5488,0.5419,0.5356,0.527,0.5132,0.5067,0.5026,0.5053,0.5059,0.492,0.4867,0.4916,0.4773,0.4668,0.4644,0.4296,0.4272,0.4234,0.4183,0.4212,0.4338,0.4475,0.4746,0.5086,0.5591,0.5916,0.6195,0.6496,0.6645,0.6592,0.6592,0.6498,0.5789,0.6143,0.6361,0.5913,0.6376,0.665,0.6767,0.6923,0.7005,0.7058,0.7323,0.7591,0.7852,0.8113,0.838,0.8648,0.8999,0.9428,0.9951,1.0212,1.0207,1.0033,1.0038,0.9951,0.9951,0.9767,0.974,0.9957,1.0023,0.9755,0.926,0.8551,0.8251,0.8163,0.8043,0.7846,0.7598,0.7659,0.7729,0.7824,0.7914,0.7963,0.8342,0.8435,0.869,0.8761,0.903,0.9065,0.8807,0.8644,0.8288,0.8028,0.7768,0.7326,0.6877,0.6526,0.6254,0.5902,0.5549,0.5193,0.4837,0.4656,0.4387,0.3853,0.3506,0.3266,0.2944,0.2533,0.2679,0.0448,0.0897,0.0987,0.1256,0.1705,0.1974,0.2333,0.2781,0.2957,0.3583,0.4478,0.5149,0.555,0.5602,0.5583,0.5568,0.5402,0.5383,0.5219,0.5236,0.5206,0.5127,0.506,0.4937,0.4984,0.4737,0.4606,0.432,0.4022,0.3968,0.3902,0.38,0.3718,0.374,0.3859,0.4155,0.4441,0.4882,0.5318,0.567,0.5854,0.6225,0.6355,0.6101,0.6301,0.6132,0.5735,0.5965,0.6093,0.6221,0.6545,0.6673,0.6769,0.6931,0.6975,0.7005,0.7269,0.7531,0.7698,0.804,0.838,0.8732,0.9087,0.9437,0.9694,0.9864,0.9864,0.9777,0.9777,0.9689,0.9519,0.934,0.9323,0.9492,0.942,0.9199,0.8765,0.8053,0.7741,0.777,0.758,0.743,0.7183,0.6929,0.7064,0.7137,0.7226,0.748,0.7912,0.8297,0.8611,0.8815,0.9082,0.9082,0.8819,0.8732,0.8552,0.8204,0.786,0.7422,0.6982,0.6612,0.6257,0.5905,0.5371,0.4926,0.448,0.3942,0.359,0.3332,0.2921,0.2596,0.2261,0.1916,0.2243,-0.0628,-0.009,0.009,0.0628,0.1346,0.1615,0.1974,0.2424,0.2601,0.3226,0.4121,0.4748,0.5282,0.5463,0.5542,0.541,0.5252,0.5299,0.5229,0.5254,0.5216,0.5241,0.5112,0.4976,0.4831,0.4483,0.4365,0.4081,0.3789,0.3776,0.372,0.358,0.3507,0.3505,0.3692,0.3907,0.4302,0.4569,0.5102,0.5544,0.5625,0.6022,0.6132,0.5877,0.5913,0.5794,0.5683,0.5919,0.6131,0.6352,0.6564,0.6726,0.6842,0.6869,0.7011,0.6956,0.7101,0.7368,0.7538,0.7982,0.8388,0.8732,0.8999,0.9257,0.9432,0.9519,0.9519,0.9515,0.9428,0.9345,0.9183,0.899,0.8811,0.889,0.8807,0.8616,0.8296,0.77,0.7495,0.7377,0.72,0.7027,0.6841,0.6582,0.6702,0.6874,0.7095,0.7386,0.791,0.8257,0.8619,0.8815,0.8995,0.8907,0.8732,0.864,0.8556,0.8239,0.7801,0.7539,0.718,0.6726,0.6263,0.5811,0.528,0.4659,0.4137,0.3706,0.3261,0.2902,0.2402,0.198,0.1533,0.1266,0.1982,-0.1795,-0.1346,-0.0807,0.009,0.1256,0.1436,0.1705,0.2244,0.2333,0.2871,0.3676,0.421,0.4654,0.501,0.5282,0.5162,0.5032,0.5222,0.5262,0.5136,0.5248,0.5196,0.5045,0.49,0.4775,0.4491,0.4253,0.4027,0.3827,0.3631,0.3563,0.3477,0.3383,0.3388,0.358,0.3764,0.3946,0.4036,0.4746,0.5102,0.5407,0.5743,0.5772,0.5642,0.5596,0.5462,0.5516,0.596,0.6266,0.6455,0.671,0.6771,0.6859,0.6646,0.672,0.6789,0.6795,0.7085,0.7453,0.7926,0.8255,0.8496,0.8773,0.8924,0.9183,0.9275,0.9297,0.9239,0.916,0.8958,0.8756,0.8568,0.8496,0.8288,0.8292,0.8086,0.7778,0.7488,0.7279,0.7044,0.6871,0.6622,0.6415,0.6301,0.6367,0.6602,0.688,0.7383,0.7845,0.8201,0.846,0.8548,0.8727,0.864,0.8464,0.8552,0.8476,0.8163,0.7838,0.7578,0.7238,0.6712,0.6233,0.5741,0.5129,0.4439,0.3913,0.3472,0.2771,0.1963,0.1697,0.1246,0.0779,0.0892,0.1817,-0.2064,-0.1705,-0.1346,-0.0538,0.0448,0.1166,0.1705,0.2243,0.2691,0.3138,0.3587,0.4121,0.4387,0.4656,0.4912,0.5022,0.4923,0.4906,0.4952,0.5104,0.5212,0.5142,0.4991,0.4858,0.4711,0.4365,0.4132,0.3995,0.3849,0.3764,0.3676,0.3585,0.3406,0.3315,0.3496,0.3676,0.3857,0.421,0.475,0.5041,0.5201,0.5339,0.5303,0.5085,0.5128,0.5177,0.5328,0.5976,0.6374,0.6677,0.6947,0.6994,0.6997,0.6777,0.6646,0.6685,0.6655,0.6792,0.7012,0.7322,0.7843,0.8173,0.8464,0.8545,0.8702,0.8906,0.891,0.9029,0.9005,0.8902,0.8685,0.8567,0.836,0.8055,0.794,0.7669,0.741,0.7135,0.6871,0.6773,0.659,0.6741,0.6704,0.643,0.6477,0.6592,0.6933,0.7305,0.7764,0.8025,0.8288,0.8285,0.8372,0.8285,0.8285,0.8201,0.8288,0.8047,0.7845,0.7635,0.7205,0.6772,0.6099,0.542,0.4822,0.4219,0.3612,0.2905,0.1718,0.0967,0.1168,0.1478,0.1508,0.163,0.1959,-0.2334,-0.2155,-0.1885,-0.0987,-0.0,0.0987,0.1705,0.2333,0.2868,0.3315,0.3585,0.4034,0.421,0.4387,0.4559,0.478,0.4786,0.4816,0.4872,0.5132,0.5247,0.517,0.5114,0.497,0.4782,0.4418,0.4261,0.4123,0.3857,0.403,0.3942,0.3676,0.3496,0.3496,0.3676,0.3765,0.3853,0.4308,0.4777,0.5285,0.5359,0.5334,0.5223,0.509,0.5138,0.518,0.552,0.5945,0.6555,0.6918,0.7024,0.7096,0.703,0.6798,0.6672,0.6514,0.6585,0.6724,0.6738,0.7079,0.7636,0.7909,0.8159,0.8391,0.85,0.8818,0.8913,0.8958,0.9047,0.8918,0.8754,0.8639,0.8386,0.8084,0.7663,0.7392,0.7119,0.6847,0.674,0.6554,0.6647,0.6809,0.6943,0.6766,0.6669,0.6773,0.6966,0.7323,0.7676,0.794,0.8028,0.8025,0.7937,0.7845,0.7848,0.7852,0.7852,0.794,0.7778,0.7633,0.7164,0.6636,0.586,0.5208,0.4719,0.412,0.3225,0.2308,0.1463,0.1286,0.16,0.193,0.2281,0.251,0.2528,-0.2604,-0.2785,-0.2424,-0.1346,-0.009,0.0897,0.1705,0.2334,0.2689,0.3136,0.3587,0.3765,0.4034,0.43,0.43,0.4345,0.4467,0.4614,0.4766,0.5007,0.522,0.5338,0.5262,0.5184,0.491,0.465,0.448,0.4302,0.3946,0.4032,0.4032,0.3946,0.3765,0.3765,0.3765,0.3942,0.403,0.4312,0.4887,0.5499,0.5676,0.5534,0.5514,0.5482,0.5349,0.5388,0.5712,0.6216,0.6523,0.6742,0.6842,0.6842,0.6736,0.6537,0.6437,0.6429,0.6617,0.6628,0.6725,0.7075,0.7462,0.7889,0.8285,0.8532,0.8753,0.8999,0.9169,0.9279,0.9337,0.9214,0.908,0.8769,0.8362,0.7986,0.7444,0.7188,0.6815,0.6675,0.6587,0.6584,0.6669,0.6874,0.6871,0.6789,0.67,0.6877,0.6969,0.7058,0.7411,0.7764,0.7852,0.768,0.7588,0.7408,0.7411,0.7507,0.7408,0.7492,0.7643,0.7585,0.7092,0.6611,0.5986,0.5351,0.4823,0.3827,0.2137,0.1571,0.1387,0.1508,0.1838,0.2169,0.2413,0.3186,0.3428,-0.2515,-0.2425,-0.1885,-0.1346,-0.0807,0.0359,0.1166,0.1705,0.2332,0.2871,0.3315,0.3585,0.3944,0.4297,0.4297,0.4279,0.4455,0.4548,0.4816,0.4994,0.526,0.5366,0.5371,0.5282,0.5015,0.4837,0.4569,0.4391,0.421,0.4208,0.4297,0.4391,0.3946,0.3857,0.4034,0.4302,0.4297,0.4484,0.5243,0.5786,0.6076,0.5923,0.5838,0.5745,0.5608,0.5639,0.5839,0.6237,0.6539,0.6745,0.6745,0.6845,0.6745,0.6539,0.6437,0.6437,0.6523,0.658,0.668,0.6949,0.7343,0.7928,0.8486,0.8958,0.9172,0.9457,0.9609,0.9716,0.9754,0.9659,0.942,0.9091,0.8644,0.8077,0.7618,0.7063,0.678,0.6358,0.6358,0.6526,0.6615,0.6704,0.6789,0.67,0.67,0.6877,0.7054,0.7146,0.7234,0.7588,0.7676,0.7503,0.7364,0.7282,0.7078,0.7166,0.7058,0.6992,0.7329,0.7483,0.7131,0.6671,0.6008,0.5099,0.3864,0.2252,0.0399,0.0401,0.1203,0.1536,0.1769,0.2206,0.2652,0.3547,0.4134,-0.2322,-0.2128,-0.1418,-0.1059,-0.07,0.0263,0.0963,0.1492,0.2138,0.2781,0.3226,0.3587,0.3944,0.4297,0.4297,0.4385,0.4565,0.4654,0.4832,0.5186,0.5371,0.5463,0.5463,0.5374,0.5193,0.4926,0.4748,0.4569,0.43,0.4032,0.4123,0.4302,0.3946,0.4036,0.4214,0.4569,0.4832,0.5203,0.5695,0.6244,0.6444,0.6475,0.6346,0.624,0.6004,0.6039,0.6039,0.6439,0.6539,0.6642,0.6642,0.6642,0.6642,0.6439,0.6437,0.6437,0.6434,0.6608,0.6752,0.7033,0.7419,0.7997,0.8676,0.9162,0.9647,1.0035,1.0276,1.0354,1.0404,1.0237,0.987,0.9502,0.8906,0.8326,0.7763,0.7122,0.6663,0.621,0.6186,0.6352,0.6435,0.6612,0.6612,0.6523,0.6609,0.6877,0.6966,0.7054,0.7143,0.7319,0.7408,0.7319,0.7296,0.7255,0.7145,0.7075,0.7118,0.7187,0.7363,0.7361,0.7092,0.6694,0.606,0.4424,0.2561,0.1297,0.0403,0.0605,0.1214,0.1656,0.2531,0.3403,0.398,0.4371,0.4862,-0.2118,-0.1821,-0.0957,-0.0431,-0.0,0.0423,0.0847,0.1354,0.2016,0.2675,0.3112,0.3652,0.4001,0.4263,0.4355,0.4552,0.4741,0.4839,0.5015,0.5371,0.5463,0.5552,0.5552,0.5463,0.5193,0.5099,0.4832,0.4389,0.3944,0.3765,0.3765,0.3857,0.3765,0.3944,0.4391,0.475,0.5191,0.5908,0.6326,0.6872,0.7165,0.7338,0.7434,0.7362,0.7165,0.7059,0.6848,0.6742,0.6642,0.6539,0.6437,0.6437,0.6437,0.6437,0.6437,0.6439,0.6439,0.6731,0.6915,0.7208,0.771,0.8212,0.8726,0.9387,0.996,1.0445,1.0595,1.1009,1.1038,1.0743,1.039,1.0,0.9444,0.8767,0.8012,0.7403,0.6803,0.6433,0.6183,0.626,0.6346,0.6532,0.6505,0.6421,0.6607,0.6837,0.6956,0.7052,0.7207,0.73,0.7303,0.7214,0.7208,0.7292,0.7309,0.7247,0.7419,0.752,0.7528,0.7637,0.7662,0.7033,0.6124,0.4702,0.3185,0.2109,0.1418,0.1827,0.2253,0.2613,0.3613,0.4836,0.5448,0.5861,0.5895,-0.1959,-0.1783,-0.0605,-0.0086,-0.0,0.0086,0.0427,0.0843,0.1615,0.2221,0.2821,0.3338,0.3886,0.438,0.4483,0.4685,0.4914,0.5104,0.5282,0.5463,0.5552,0.5555,0.5644,0.5463,0.5191,0.4921,0.4565,0.403,0.3585,0.3496,0.3496,0.3406,0.3585,0.4034,0.4478,0.4837,0.5636,0.6435,0.7002,0.7631,0.8204,0.8081,0.8004,0.7892,0.7707,0.7308,0.6995,0.6645,0.6542,0.6437,0.6437,0.6437,0.6437,0.6437,0.6437,0.6437,0.6539,0.6842,0.7042,0.7341,0.7836,0.8432,0.9027,0.9715,1.0207,1.0609,1.097,1.1482,1.1525,1.1221,1.084,1.0475,0.9892,0.9119,0.825,0.7587,0.6948,0.6663,0.629,0.6272,0.6358,0.6323,0.6388,0.6412,0.6593,0.6822,0.7085,0.7197,0.7414,0.7485,0.7495,0.7417,0.7283,0.7253,0.7366,0.76,0.7773,0.7896,0.7966,0.8062,0.8243,0.7791,0.7126,0.5727,0.4321,0.3742,0.3462,0.3386,0.3738,0.4225,0.5452,0.7028,0.7892,0.8339,0.7913,-0.2008,-0.1662,-0.0673,-0.0169,-0.0,-0.0,0.0252,0.0663,0.123,0.1889,0.2579,0.3125,0.3778,0.4353,0.4555,0.4761,0.5095,0.5371,0.5463,0.5555,0.5644,0.5644,0.5552,0.5371,0.5015,0.4656,0.4028,0.3405,0.3048,0.296,0.2871,0.3047,0.3406,0.3855,0.4389,0.5191,0.5899,0.6697,0.7323,0.8105,0.8894,0.8726,0.8464,0.8286,0.8045,0.7658,0.7146,0.6785,0.6542,0.6437,0.6437,0.6437,0.6437,0.6437,0.6437,0.6439,0.6639,0.6942,0.7238,0.7537,0.7935,0.8531,0.8928,0.9418,1.0006,1.0404,1.1198,1.1609,1.1476,1.125,1.1033,1.0581,0.9917,0.9084,0.829,0.7658,0.7147,0.6854,0.6503,0.6192,0.6318,0.64,0.6447,0.6545,0.6638,0.6638,0.6913,0.7503,0.7653,0.7684,0.7782,0.7795,0.7658,0.7685,0.7798,0.8048,0.8222,0.8333,0.8423,0.8844,0.9073,0.8739,0.811,0.7419,0.6853,0.6507,0.6246,0.61,0.6076,0.6494,0.7968,0.9474,1.0155,1.0484,1.0036,-0.2063,-0.1467,-0.0899,-0.0414,-0.0,-0.0,0.0327,0.0649,0.1192,0.1754,0.2288,0.3056,0.3542,0.4108,0.459,0.4805,0.5097,0.5371,0.5555,0.5644,0.5644,0.5463,0.5371,0.5191,0.4656,0.403,0.3405,0.2956,0.2688,0.2511,0.2602,0.278,0.3226,0.3673,0.4567,0.5371,0.6086,0.6923,0.7656,0.8298,0.8766,0.9202,0.8921,0.8721,0.8521,0.8286,0.7645,0.7077,0.6701,0.6603,0.6521,0.6505,0.6488,0.6486,0.6456,0.6556,0.6742,0.7042,0.7241,0.7543,0.8035,0.8528,0.8726,0.9118,0.9608,1.0301,1.1096,1.1332,1.1202,1.1274,1.1057,1.0608,0.9841,0.9139,0.8333,0.765,0.7348,0.7053,0.6722,0.6394,0.6366,0.6543,0.6579,0.6676,0.6676,0.6768,0.7061,0.7631,0.8044,0.8037,0.7994,0.8193,0.8311,0.8333,0.834,0.8466,0.863,0.8935,0.9127,0.9669,1.01,1.028,1.0386,1.0237,0.9689,0.9493,0.9411,0.9412,0.9328,0.9239,1.0313,1.1626,1.1801,1.2128,1.2023,-0.2006,-0.1385,-0.1245,-0.0755,-0.0,0.0754,0.0912,0.0812,0.151,0.199,0.2204,0.2756,0.3413,0.4165,0.4262,0.457,0.5102,0.5374,0.5552,0.5644,0.5466,0.5282,0.5013,0.4567,0.3939,0.3403,0.2957,0.2599,0.2331,0.2243,0.2244,0.2423,0.2959,0.3583,0.4387,0.5287,0.6212,0.7085,0.7818,0.8413,0.8902,0.9184,0.903,0.8866,0.8536,0.8128,0.7632,0.7064,0.684,0.6733,0.6711,0.6657,0.6616,0.6578,0.6551,0.6707,0.6891,0.7172,0.7478,0.7753,0.824,0.8627,0.8928,0.9122,0.9513,0.9912,1.0507,1.0703,1.0719,1.1113,1.096,1.0378,0.9698,0.9068,0.8293,0.7831,0.7353,0.7374,0.7308,0.6913,0.6744,0.6828,0.6801,0.69,0.7003,0.7118,0.7274,0.7855,0.8083,0.8181,0.8276,0.847,0.8762,0.889,0.889,0.8958,0.9095,0.9414,0.9916,1.0596,1.137,1.2226,1.2355,1.2552,1.2715,1.2566,1.2628,1.259,1.2551,1.2491,1.2934,1.3706,1.3748,1.3542,1.3217]},{"header":{"parameterUnit":"m.s-1","parameterCategory":1,"la1":31.0,"la2":29.5877,"lo1":-88.7671,"lo2":-86.6584,"dy":0.0162,"dx":0.0185,"nx":115,"ny":88,"refTime":"2023-07-17T06:00:00:Z","depth":0,"parameterNumber":3,"parameterNumberName":"V-component_of_WINDS"},"data":[0.0,0.0,0.0,0.0,0.0,0.0,0.0,0.0,0.0,0.0,0.0,0.0,0.0,0.0,0.0,0.0,0.0,0.0,0.0,0.0,0.0,0.0,0.0,0.0,0.0,0.0,0.0,0.0,0.0,0.0,0.0,0.0,0.0,0.0,0.0,0.0,0.0,0.0,0.0,0.0,0.0,0.0,0.0,0.0,0.0,0.0,0.0,0.0,0.0,0.0,0.0,0.0,0.0,0.0,0.0,0.0,0.0,0.0,0.0,0.0,0.0,0.0,0.0,0.0,0.0,0.0,0.0,0.0,0.0,0.0,0.0,0.0,0.0,0.0,0.0,0.0,0.0,0.0,0.0,0.0,0.0,0.0,0.0,0.0,0.0,0.0,0.0,0.0,0.0,0.0,0.0,0.0,0.0,0.0,0.0,0.0,0.0,0.0,0.0,0.0,0.0,0.0,0.0,0.0,0.0,0.0,0.0,0.0,0.0,0.0,0.0,0.0,0.0,0.0,0.0,0.0,0.0,0.0,0.0,0.0,0.0,0.0,0.0,0.0,0.0,0.0,0.0,0.0,0.0,0.0,0.0,0.0,0.0,0.0,0.0,0.0,0.0,0.0,0.0,0.0,0.0,0.0,0.0,0.0,0.0,0.0,0.0,0.0,0.0,0.0,0.0,0.0,0.0,0.0,0.0,0.0,0.0,0.0,0.0,0.0,0.0,0.0,0.0,0.0,0.0,0.0,0.0,0.0,0.0,0.0,0.0,0.0,0.0,0.0,0.0,0.0,0.0,0.0,0.0,0.0,0.0,0.0,0.0,0.0,0.0,0.0,0.0,0.0,0.0,0.0,0.0,0.0,0.0,0.0,0.0,0.0,0.0,0.0,0.0,0.0,0.0,0.0,0.0,0.0,0.0,0.0,0.0,0.0,0.0,0.0,0.0,0.0,0.0,0.0,0.0,0.0,0.0,0.0,0.0,0.0,0.0,0.0,0.0,0.0,0.0,0.0,0.0,0.0,0.0,0.0,0.0,0.0,0.0,0.0,0.0,0.0,0.0,0.0,0.0,0.0,0.0,0.0,0.0,0.0,0.0,0.0,0.0,0.0,0.0,0.0,0.0,0.0,0.0,0.0,0.0,0.0,0.0,0.0,0.0,0.0,0.0,0.0,0.0,0.0,0.0,0.0,0.0,0.0,0.0,0.0,0.0,0.0,0.0,0.0,0.0,0.0,0.0,0.0,0.0,0.0,0.0,0.0,0.0,0.0,0.0,0.0,0.0,0.0,0.0,0.0,0.0,0.0,0.0,0.0,0.0,0.0,0.0,0.0,0.0,0.0,0.0,0.0,0.0,0.0,0.0,0.0,0.0,0.0,0.0,0.0,0.0,0.0,0.0,0.0,0.0,0.0,0.0,0.0,0.0,0.0,0.0,0.0,0.0,0.0,0.0,0.0,0.0,0.0,0.0,0.0,0.0,0.0,0.0,0.0,0.0,0.0,0.0,0.0,0.0,0.0,0.0,0.0,0.0,0.0,0.0,0.0,0.0,0.0,0.0,0.0,0.0,0.0,0.0,0.0,0.0,0.0,0.0,0.0,0.0,0.0,0.0,0.0,0.0,0.0,0.0,0.0,0.0,0.0,0.0,0.0,0.0,0.0,0.0,0.0,0.0,0.0,0.0,0.0,0.0,0.0,0.0,0.0,0.0,0.0,0.0,0.0,0.0,0.0,0.0,0.0,0.0,0.0,0.0,0.0,0.0,0.0,0.0,0.0,0.0,0.0,0.0,0.0,0.0,0.0,0.0,0.0,0.0,0.0,0.0,0.0,0.0,0.0,0.0,0.0,0.0,0.0,0.0,0.0,0.0,0.0,0.0,0.0,0.0,0.0,0.0,0.0,0.0,0.0,0.0,0.0,0.0,0.0,0.0,0.0,0.0,0.0,0.0,0.0,0.0,0.0,0.0,0.0,0.0,0.0,0.0,0.0,0.0,0.0,0.0,0.0,0.0,0.0,0.0,0.0,0.0,0.0,0.0,0.0,0.0,0.0,0.0,0.0,0.0,0.0,0.0,0.0,0.0,0.0,0.0,0.0,0.0,0.0,0.0,0.0,0.0,0.0,0.0,0.0,0.0,0.0,0.0,0.0,0.0,0.0,0.0,0.0,0.0,0.0,0.0,0.0,0.0,0.0,0.0,0.0,0.0,0.0,0.0,0.0,0.0,0.0,0.0,0.0,0.0,0.0,0.0,0.0,0.0,0.0,0.0,0.0,0.0,0.0,0.0,0.0,0.0,0.0,0.0,0.0,0.0,0.0,0.0,0.0,0.0,0.0,0.0,0.0,0.0,0.0,0.0,0.0,0.0,0.0,0.0,0.0,0.0,0.0,0.0,0.0,0.0,0.0,0.0,0.0,0.0,0.0,0.0,0.0,0.0,0.0,0.0,0.0,0.0,0.0,0.0,0.0,0.0,0.0,0.0,0.0,0.0,0.0,0.0,0.0,0.0,0.0,0.0,0.0,0.0,0.0,0.0,0.0,0.0,0.0,0.0,0.0,0.0,0.0,0.0,0.0,0.0,0.0,0.0,0.0,0.0,0.0,0.0,0.0,0.0,0.0,0.0,0.0,0.0,0.0,0.0,0.0,0.0,0.0,0.0,0.0,0.0,0.0,0.0,0.0,0.0,0.0,0.0,0.0,0.0,0.0,0.0,0.0,0.0,0.0,0.0,0.0,0.0,0.0,0.0,0.0,0.0,0.0,0.0,0.0,0.0,0.0,0.0,0.0,0.0,0.0,0.0,0.0,0.0,0.0,0.0,0.0,0.0,0.0,0.0,0.0,0.0,0.0,0.0,0.0,0.0,0.0,0.0,0.0,0.0,0.0,0.0,0.0,0.0,0.0,0.0,0.0,0.0,0.0,0.0,0.0,0.0,0.0,0.0,0.0,0.0,0.0,0.0,0.0,0.0,0.0,0.0,0.0,0.0,0.0,0.0,0.0,0.0,0.0,0.0,0.0,0.0,0.0,0.0,0.0,0.0,0.0,0.0,0.0,0.0,0.0,0.0,0.0,0.0,0.0,0.0,0.0,0.0,0.0,0.0,0.0,0.0,0.0,0.0,0.0,0.0,0.0,0.0,0.0,0.0,0.0,0.0,0.0,0.0,0.0,0.0,0.0,0.0,0.0,0.0,0.0,0.0,0.0,0.0,0.0,0.0,0.0,0.0,0.0,0.0,0.0,0.0,0.0,0.0,0.0,0.0,0.0,0.0,0.0,0.0,0.0,0.0,0.0,0.0,0.0,0.0,0.0,0.0,0.0,0.0,0.0,0.0,0.0,0.0,0.0,0.0,0.0,0.0,0.0,0.0,0.0,0.0,0.0,0.0,0.0,0.0,0.0,0.0,0.0,0.0,0.0,0.0,0.0,0.0,0.0,0.0,0.0,0.0,0.0,0.0,0.0,0.0,0.0,0.0,0.0,0.0,0.0,0.0,0.0,0.0,0.0,0.0,0.0,0.0,0.0,0.0,0.0,0.0,0.0,0.0,0.0,0.0,0.0,0.0,0.0,0.0,0.0,0.0,0.0,0.0,0.0,0.0,0.0,0.0,0.0,0.0,0.0,0.0,0.0,0.0,0.0,0.0,0.0,0.0,0.0,0.0,0.0,0.0,0.0,0.0,0.0,0.0,0.0,0.0,0.0,0.0,0.0,0.0,0.0,0.0,0.0,0.0,0.0,0.0,0.0,0.0,0.0,0.0,0.0,0.0,0.0,0.0,0.0,0.0,0.0,0.0,0.0,0.0,0.0,0.0,0.0,0.0,0.0,0.0,0.0,0.0,0.0,0.0,0.0,0.0,0.0,0.0,0.0,0.0,0.0,0.0,0.0,0.0,0.0,0.0,0.0,0.0,0.0,0.0,0.0,0.0,0.0,0.0,0.0,0.0,0.0,0.0,0.0,0.0,0.0,0.0,0.0,0.0,0.0,0.0,0.0,0.0,0.0,0.0,0.0,0.0,0.0,0.0,0.0,0.0,0.0,0.0,0.0,0.0,0.0,0.0,0.0,0.0,0.0,0.0,0.0,0.0,0.0,0.0,0.0,0.0,0.0,0.0,0.0,0.0,0.0,0.0,0.0,0.0,0.0,0.0,0.0,0.0,0.0,0.0,0.0,0.0,0.0,0.0,0.0,0.0,0.0,0.0,0.0,0.0,0.0,0.0,0.0,0.0,0.0,0.0,0.0,0.0,0.0,0.0,0.0,0.0,0.0,0.0,0.0,0.0,0.0,0.0,0.0,-0.8534,0.0,0.0,0.0,0.0,0.0,0.0,0.0,0.0,0.0,0.0,0.0,0.0,0.0,0.0,0.0,0.0,0.0,0.0,0.0,0.0,0.0,0.0,0.0,0.0,0.0,0.0,0.0,0.0,0.0,0.0,0.0,0.0,0.0,0.0,0.0,0.0,0.0,0.0,0.0,0.0,0.0,0.0,0.0,0.0,0.0,0.0,0.0,0.0,0.0,0.0,0.0,0.0,0.0,0.0,0.0,0.0,0.0,0.0,0.0,0.0,0.0,0.0,0.0,0.0,0.0,0.0,0.0,0.0,0.0,0.0,0.0,0.0,0.0,0.0,0.0,0.0,0.0,0.0,0.0,0.0,0.0,0.0,0.0,0.0,0.0,0.0,0.0,0.0,0.0,0.0,0.0,0.0,0.0,0.0,0.0,0.0,0.0,0.0,0.0,0.0,0.0,0.0,0.0,0.0,0.0,0.0,0.0,0.0,0.0,0.0,-1.0499,-0.9811,-0.9508,-0.9333,-0.9334,0.0,0.0,0.0,0.0,0.0,0.0,0.0,0.0,0.0,0.0,0.0,0.0,0.0,0.0,0.0,0.0,0.0,0.0,0.0,0.0,0.0,0.0,0.0,0.0,0.0,0.0,0.0,0.0,0.0,0.0,0.0,0.0,0.0,0.0,0.0,0.0,0.0,0.0,0.0,0.0,0.0,0.0,0.0,0.0,0.0,0.0,0.0,0.0,0.0,0.0,0.0,0.0,0.0,0.0,0.0,0.0,0.0,0.0,0.0,0.0,0.0,0.0,0.0,0.0,0.0,0.0,0.0,0.0,0.0,0.0,0.0,0.0,0.0,0.0,0.0,0.0,0.0,0.0,0.0,0.0,0.0,0.0,0.0,0.0,0.0,0.0,0.0,0.0,0.0,0.0,0.0,0.0,0.0,0.0,0.0,0.0,0.0,0.0,0.0,0.0,0.0,0.0,0.0,0.0,0.0,0.0,0.0,0.0,0.0,0.0,0.0,0.0,-0.9886,-1.008,-1.0153,0.0,0.0,0.0,0.0,0.0,0.0,0.0,0.0,0.0,0.0,0.0,0.0,0.0,0.0,0.0,0.0,0.0,0.0,0.0,0.0,0.0,0.0,0.0,0.0,0.0,0.0,0.0,0.0,0.0,0.0,0.0,0.0,0.0,0.0,0.0,0.0,0.0,0.0,0.0,0.0,0.0,0.0,0.0,0.0,0.0,0.0,0.0,0.0,0.0,0.0,0.0,0.0,0.0,0.0,0.0,0.0,0.0,0.0,0.0,0.0,0.0,0.0,0.0,0.0,0.0,0.0,0.0,0.0,0.0,0.0,0.0,0.0,0.0,0.0,0.0,0.0,0.0,0.0,0.0,0.0,0.0,0.0,0.0,0.0,0.0,0.0,0.0,0.0,0.0,0.0,0.0,0.0,0.0,0.0,0.0,0.0,0.0,0.0,0.0,0.0,0.0,0.0,0.0,0.0,0.0,0.0,0.0,0.0,0.0,0.0,-0.9231,-0.9249,-1.0077,0.0,-1.0805,0.0,0.0,0.0,0.0,0.0,0.0,0.0,0.0,0.0,0.0,0.0,0.0,0.0,0.0,0.0,0.0,0.0,0.0,0.0,0.0,0.0,0.0,0.0,0.0,0.0,0.0,0.0,0.0,0.0,0.0,0.0,0.0,0.0,0.0,0.0,0.0,0.0,0.0,0.0,0.0,0.0,0.0,0.0,0.0,0.0,0.0,0.0,0.0,0.0,0.0,0.0,0.0,0.0,0.0,0.0,0.0,0.0,0.0,0.0,0.0,0.0,0.0,0.0,0.0,0.0,0.0,0.0,0.0,0.0,0.0,0.0,0.0,0.0,0.0,0.0,0.0,0.0,0.0,0.0,0.0,0.0,0.0,0.0,0.0,0.0,0.0,0.0,0.0,0.0,0.0,0.0,0.0,0.0,0.0,0.0,0.0,0.0,0.0,0.0,0.0,0.0,0.0,0.0,0.0,0.0,0.0,0.0,0.0,0.0,0.0,-0.8846,-0.89,-0.9876,-1.0649,0.0,0.0,0.0,0.0,0.0,0.0,0.0,0.0,0.0,0.0,0.0,0.0,0.0,0.0,0.0,0.0,0.0,0.0,0.0,0.0,0.0,0.0,0.0,0.0,0.0,0.0,0.0,0.0,0.0,0.0,0.0,0.0,0.0,0.0,0.0,0.0,0.0,0.0,0.0,0.0,0.0,0.0,0.0,0.0,0.0,0.0,0.0,0.0,0.0,0.0,0.0,0.0,0.0,0.0,0.0,0.0,0.0,0.0,0.0,0.0,0.0,0.0,0.0,0.0,0.0,0.0,0.0,0.0,0.0,0.0,0.0,0.0,0.0,0.0,0.0,0.0,0.0,0.0,0.0,0.0,0.0,0.0,0.0,0.0,0.0,0.0,0.0,0.0,0.0,0.0,0.0,0.0,0.0,0.0,0.0,0.0,0.0,0.0,0.0,0.0,0.0,0.0,0.0,0.0,0.0,0.0,0.0,0.0,0.0,0.0,-0.8393,-0.8583,-0.8907,-0.9687,-1.0465,-1.1252,0.0,0.0,0.0,0.0,0.0,0.0,0.0,0.0,0.0,0.0,0.0,0.0,0.0,0.0,0.0,0.0,0.0,0.0,0.0,0.0,0.0,0.0,0.0,0.0,0.0,0.0,0.0,0.0,0.0,0.0,0.0,0.0,0.0,0.0,0.0,0.0,0.0,0.0,0.0,0.0,0.0,0.0,0.0,0.0,0.0,0.0,0.0,0.0,0.0,0.0,0.0,0.0,0.0,0.0,0.0,0.0,0.0,0.0,0.0,0.0,0.0,0.0,0.0,0.0,0.0,0.0,0.0,0.0,0.0,0.0,0.0,0.0,0.0,0.0,0.0,0.0,0.0,0.0,0.0,0.0,0.0,0.0,0.0,0.0,0.0,0.0,0.0,0.0,0.0,0.0,0.0,0.0,0.0,0.0,0.0,0.0,0.0,0.0,0.0,0.0,0.0,0.0,0.0,0.0,0.0,0.0,0.0,0.0,-0.8125,-0.8118,-0.851,-0.9311,-0.9547,-1.006,0.0,0.0,0.0,0.0,0.0,0.0,0.0,0.0,0.0,0.0,0.0,0.0,0.0,0.0,0.0,0.0,0.0,0.0,0.0,0.0,0.0,0.0,0.0,0.0,0.0,0.0,0.0,0.0,0.0,0.0,0.0,0.0,0.0,0.0,0.0,0.0,0.0,0.0,0.0,0.0,0.0,0.0,0.0,0.0,0.0,0.0,0.0,0.0,0.0,0.0,0.0,0.0,0.0,0.0,0.0,0.0,0.0,0.0,0.0,0.0,0.0,0.0,0.0,0.0,0.0,0.0,0.0,0.0,0.0,0.0,0.0,0.0,0.0,0.0,0.0,0.0,0.0,0.0,0.0,0.0,0.0,0.0,0.0,0.0,0.0,0.0,0.0,0.0,0.0,0.0,0.0,0.0,0.0,0.0,0.0,0.0,0.0,0.0,0.0,0.0,0.0,0.0,0.0,0.0,0.0,0.0,0.0,0.0,0.0,-0.7855,-0.7753,-0.8109,-0.8926,-0.9186,-0.9982,0.0,0.0,0.0,0.0,0.0,0.0,0.0,0.0,0.0,0.0,0.0,0.0,0.0,0.0,0.0,0.0,0.0,0.0,0.0,0.0,0.0,0.0,0.0,0.0,0.0,0.0,0.0,0.0,0.0,0.0,0.0,0.0,0.0,0.0,0.0,0.0,0.0,0.0,0.0,0.0,0.0,0.0,0.0,0.0,0.0,0.0,0.0,0.0,0.0,0.0,0.0,0.0,0.0,0.0,0.0,0.0,0.0,0.0,0.0,0.0,0.0,0.0,0.0,0.0,0.0,0.0,0.0,0.0,0.0,0.0,0.0,0.0,0.0,0.0,0.0,0.0,0.0,0.0,0.0,0.0,0.0,0.0,0.0,0.0,0.0,0.0,0.0,0.0,0.0,0.0,0.0,0.0,0.0,0.0,0.0,0.0,0.0,0.0,0.0,0.0,0.0,0.0,0.0,0.0,0.0,0.0,0.0,0.0,0.0,-0.7589,0.0,-0.7636,-0.8167,-0.8692,-0.9604,0.0,0.0,0.0,0.0,0.0,0.0,0.0,0.0,0.0,0.0,0.0,0.0,0.0,0.0,0.0,0.0,0.0,0.0,0.0,0.0,0.0,0.0,0.0,0.0,0.0,0.0,0.0,0.0,0.0,0.0,0.0,0.0,0.0,0.0,0.0,0.0,0.0,0.0,0.0,0.0,0.0,0.0,0.0,0.0,0.0,0.0,0.0,0.0,0.0,0.0,0.0,0.0,0.0,0.0,0.0,0.0,0.0,0.0,0.0,0.0,0.0,0.0,0.0,0.0,0.0,0.0,0.0,0.0,0.0,0.0,0.0,0.0,0.0,0.0,0.0,0.0,0.0,0.0,0.0,0.0,0.0,0.0,0.0,0.0,0.0,0.0,0.0,0.0,0.0,0.0,0.0,0.0,0.0,0.0,0.0,0.0,0.0,0.0,0.0,0.0,0.0,0.0,0.0,0.0,0.0,0.0,0.0,0.0,-0.7649,-0.7308,-0.7182,-0.7147,-0.7134,-0.798,-0.8854,0.0,0.0,0.0,0.0,0.0,0.0,0.0,0.0,0.0,0.0,0.0,0.0,0.0,0.0,0.0,0.0,0.0,0.0,0.0,0.0,0.0,0.0,0.0,0.0,0.0,0.0,0.0,0.0,0.0,0.0,0.0,0.0,0.0,0.0,0.0,0.0,0.0,0.0,0.0,0.0,0.0,0.0,0.0,0.0,0.0,0.0,0.0,0.0,0.0,0.0,0.0,0.0,0.0,0.0,0.0,0.0,0.0,0.0,0.0,0.0,0.0,0.0,0.0,0.0,0.0,0.0,0.0,0.0,0.0,0.0,0.0,0.0,0.0,0.0,0.0,0.0,0.0,0.0,0.0,0.0,0.0,0.0,0.0,0.0,0.0,0.0,0.0,0.0,0.0,0.0,0.0,0.0,0.0,0.0,0.0,0.0,0.0,0.0,0.0,0.0,0.0,0.0,0.0,0.0,0.0,0.0,0.0,0.0,0.0,-0.7104,-0.741,-0.7393,-0.7082,-0.7875,-0.8706,0.0,0.0,0.0,0.0,0.0,0.0,0.0,0.0,0.0,0.0,0.0,0.0,0.0,0.0,0.0,0.0,0.0,0.0,0.0,0.0,0.0,0.0,0.0,0.0,0.0,0.0,0.0,0.0,0.0,0.0,0.0,0.0,0.0,0.0,0.0,0.0,0.0,0.0,0.0,0.0,0.0,0.0,0.0,0.0,0.0,0.0,0.0,0.0,0.0,0.0,0.0,0.0,0.0,0.0,0.0,0.0,0.0,0.0,0.0,0.0,0.0,0.0,0.0,0.0,0.0,0.0,0.0,0.0,0.0,0.0,0.0,0.0,0.0,0.0,0.0,0.0,0.0,0.0,0.0,0.0,0.0,0.0,0.0,0.0,0.0,0.0,0.0,0.0,0.0,0.0,0.0,0.0,0.0,0.0,0.0,0.0,0.0,0.0,0.0,0.0,0.0,0.0,0.0,0.0,0.0,0.0,0.0,0.0,0.0,-0.7374,-0.7681,-0.7782,-0.769,-0.8436,-0.9091,-0.9648,0.0,0.0,0.0,0.0,0.0,0.0,0.0,0.0,0.0,0.0,0.0,0.0,0.0,0.0,0.0,0.0,0.0,0.0,0.0,0.0,0.0,0.0,0.0,0.0,0.0,0.0,0.0,0.0,0.0,0.0,0.0,0.0,0.0,0.0,0.0,0.0,0.0,0.0,0.0,0.0,0.0,0.0,0.0,0.0,0.0,0.0,0.0,0.0,0.0,0.0,0.0,0.0,0.0,0.0,0.0,0.0,0.0,0.0,0.0,0.0,0.0,0.0,0.0,0.0,0.0,0.0,0.0,0.0,0.0,0.0,0.0,0.0,0.0,0.0,0.0,0.0,0.0,0.0,0.0,0.0,0.0,0.0,0.0,0.0,0.0,0.0,0.0,0.0,0.0,0.0,0.0,0.0,0.0,0.0,0.0,0.0,0.0,0.0,0.0,0.0,0.0,0.0,0.0,0.0,0.0,0.0,0.0,0.0,-0.7963,-0.7997,-0.8259,-0.8751,-0.9368,-0.9823,0.0,0.0,0.0,0.0,0.0,0.0,0.0,0.0,0.0,0.0,0.0,0.0,0.0,0.0,0.0,0.0,0.0,0.0,0.0,0.0,0.0,0.0,0.0,0.0,0.0,0.0,0.0,0.0,0.0,0.0,0.0,0.0,0.0,0.0,0.0,0.0,0.0,0.0,0.0,0.0,0.0,0.0,0.0,0.0,0.0,0.0,0.0,0.0,0.0,0.0,0.0,0.0,0.0,0.0,0.0,0.0,0.0,0.0,0.0,0.0,0.0,0.0,0.0,0.0,0.0,0.0,0.0,0.0,0.0,0.0,0.0,0.0,0.0,0.0,0.0,0.0,0.0,0.0,0.0,0.0,0.0,0.0,0.0,0.0,0.0,0.0,0.0,0.0,0.0,0.0,0.0,0.0,0.0,0.0,0.0,0.0,0.0,0.0,0.0,0.0,0.0,0.0,0.0,0.0,0.0,0.0,0.0,0.0,0.0,-0.8585,-0.9048,-0.9121,-0.8763,-0.9503,-0.9889,0.0,0.0,0.0,0.0,0.0,0.0,0.0,0.0,0.0,0.0,0.0,0.0,0.0,0.0,0.0,0.0,0.0,0.0,0.0,0.0,0.0,0.0,0.0,0.0,0.0,0.0,0.0,0.0,0.0,0.0,0.0,0.0,0.0,0.0,0.0,0.0,0.0,0.0,0.0,0.0,0.0,0.0,0.0,0.0,0.0,0.0,0.0,0.0,0.0,0.0,0.0,0.0,0.0,0.0,0.0,0.0,0.0,0.0,0.0,0.0,0.0,0.0,0.0,0.0,0.0,0.0,0.0,0.0,0.0,0.0,0.0,0.0,0.0,0.0,0.0,0.0,0.0,0.0,0.0,0.0,0.0,0.0,0.0,0.0,0.0,0.0,0.0,0.0,0.0,0.0,0.0,0.0,0.0,0.0,0.0,0.0,0.0,0.0,0.0,0.0,0.0,0.0,0.0,0.0,0.0,0.0,0.0,0.0,-0.9268,-0.8927,-0.9711,-0.9903,-0.9434,-0.9981,-1.0258,0.0,0.0,0.0,0.0,0.0,0.0,0.0,0.0,0.0,0.0,0.0,0.0,0.0,0.0,0.0,0.0,0.0,0.0,0.0,0.0,0.0,0.0,0.0,0.0,0.0,0.0,0.0,0.0,0.0,0.0,0.0,0.0,0.0,0.0,0.0,0.0,0.0,0.0,0.0,0.0,0.0,0.0,0.0,0.0,0.0,0.0,0.0,0.0,0.0,0.0,0.0,0.0,0.0,0.0,0.0,0.0,0.0,0.0,0.0,0.0,0.0,0.0,0.0,0.0,0.0,0.0,0.0,0.0,0.0,0.0,0.0,0.0,0.0,0.0,0.0,0.0,0.0,0.0,0.0,0.0,0.0,0.0,0.0,0.0,0.0,0.0,0.0,0.0,0.0,0.0,0.0,0.0,0.0,0.0,0.0,0.0,0.0,0.0,0.0,0.0,0.0,0.0,0.0,0.0,0.0,0.0,0.0,0.0,-0.9841,-0.9321,-1.0149,-1.0534,-1.0424,-1.0608,-1.0729,0.0,0.0,0.0,0.0,0.0,0.0,0.0,0.0,0.0,0.0,0.0,0.0,0.0,0.0,0.0,0.0,0.0,0.0,0.0,0.0,0.0,0.0,0.0,0.0,0.0,0.0,0.0,0.0,0.0,0.0,0.0,0.0,0.0,0.0,0.0,0.0,0.0,0.0,0.0,0.0,0.0,0.0,0.0,0.0,0.0,0.0,0.0,0.0,0.0,0.0,0.0,0.0,0.0,0.0,0.0,0.0,0.0,0.0,0.0,0.0,0.0,0.0,0.0,0.0,0.0,0.0,0.0,0.0,0.0,0.0,0.0,0.0,0.0,0.0,0.0,0.0,0.0,0.0,0.0,0.0,0.0,0.0,0.0,0.0,0.0,0.0,0.0,0.0,0.0,0.0,0.0,0.0,0.0,0.0,0.0,0.0,0.0,0.0,0.0,0.0,0.0,0.0,0.0,0.0,0.0,0.0,0.0,0.0,-1.0764,-1.0547,-1.0569,-1.0572,-1.0498,-1.0777,-1.0825,0.0,0.0,0.0,0.0,0.0,0.0,0.0,0.0,0.0,0.0,0.0,0.0,0.0,0.0,0.0,0.0,0.0,0.0,0.0,0.0,0.0,0.0,0.0,0.0,0.0,0.0,0.0,0.0,0.0,0.0,0.0,0.0,0.0,0.0,0.0,0.0,0.0,0.0,0.0,0.0,0.0,0.0,0.0,0.0,0.0,0.0,0.0,0.0,-1.4517,0.0,0.0,0.0,0.0,0.0,0.0,0.0,0.0,0.0,0.0,0.0,0.0,0.0,0.0,0.0,0.0,0.0,0.0,0.0,0.0,0.0,0.0,0.0,0.0,0.0,0.0,0.0,0.0,0.0,0.0,0.0,0.0,0.0,0.0,0.0,0.0,0.0,0.0,0.0,0.0,0.0,0.0,0.0,0.0,0.0,0.0,0.0,0.0,0.0,0.0,0.0,0.0,0.0,0.0,0.0,0.0,0.0,0.0,0.0,-1.0835,-1.1024,-1.0753,-1.0559,-1.0523,-1.105,-1.1089,0.0,0.0,0.0,0.0,0.0,0.0,0.0,0.0,0.0,0.0,0.0,0.0,0.0,0.0,0.0,0.0,0.0,0.0,0.0,0.0,0.0,0.0,0.0,0.0,0.0,0.0,0.0,0.0,0.0,0.0,0.0,0.0,0.0,0.0,0.0,0.0,0.0,0.0,0.0,0.0,0.0,0.0,0.0,0.0,0.0,0.0,0.0,0.0,0.0,0.0,0.0,0.0,0.0,0.0,0.0,0.0,0.0,0.0,0.0,0.0,0.0,0.0,0.0,0.0,0.0,0.0,0.0,0.0,0.0,0.0,0.0,0.0,0.0,0.0,0.0,0.0,0.0,0.0,0.0,0.0,0.0,0.0,0.0,0.0,0.0,0.0,0.0,0.0,0.0,0.0,0.0,0.0,0.0,0.0,0.0,0.0,0.0,0.0,0.0,0.0,0.0,0.0,0.0,0.0,0.0,0.0,0.0,-1.108,-1.0893,-1.1419,-1.0897,-1.0637,-1.0656,-1.1247,-1.1271,-1.0635,0.0,0.0,0.0,0.0,0.0,0.0,0.0,0.0,0.0,0.0,0.0,0.0,0.0,0.0,0.0,0.0,0.0,0.0,0.0,0.0,0.0,0.0,0.0,0.0,0.0,0.0,0.0,0.0,0.0,0.0,0.0,0.0,0.0,0.0,0.0,0.0,0.0,0.0,-1.2073,-1.3285,0.0,0.0,0.0,0.0,0.0,0.0,0.0,0.0,-1.4787,0.0,0.0,0.0,0.0,0.0,0.0,0.0,0.0,0.0,0.0,0.0,0.0,0.0,0.0,0.0,0.0,0.0,0.0,0.0,0.0,0.0,0.0,0.0,0.0,0.0,0.0,0.0,0.0,0.0,0.0,0.0,0.0,0.0,0.0,0.0,0.0,0.0,0.0,0.0,0.0,0.0,0.0,0.0,0.0,0.0,0.0,0.0,0.0,0.0,0.0,0.0,0.0,0.0,0.0,0.0,0.0,-1.2705,-1.2011,-1.1984,-1.2654,-1.1321,-1.085,-1.1307,-1.1082,-1.0862,-1.0659,0.0,0.0,0.0,0.0,0.0,0.0,0.0,0.0,0.0,0.0,0.0,0.0,0.0,0.0,0.0,0.0,0.0,0.0,0.0,0.0,0.0,0.0,0.0,0.0,0.0,0.0,0.0,0.0,0.0,0.0,0.0,0.0,0.0,0.0,0.0,0.0,0.0,0.0,0.0,-1.4058,-1.4836,0.0,0.0,0.0,0.0,0.0,0.0,0.0,0.0,-1.6866,0.0,0.0,0.0,0.0,0.0,0.0,0.0,0.0,0.0,0.0,0.0,0.0,0.0,0.0,0.0,0.0,0.0,0.0,0.0,0.0,0.0,0.0,0.0,0.0,0.0,0.0,0.0,0.0,0.0,0.0,0.0,0.0,0.0,0.0,0.0,0.0,0.0,0.0,0.0,0.0,0.0,0.0,0.0,0.0,0.0,0.0,0.0,0.0,0.0,0.0,0.0,0.0,0.0,0.0,0.0,-1.2841,-1.2096,-1.1943,-1.2446,-1.153,-1.1187,-1.1482,-1.1654,-1.1505,0.0,0.0,0.0,0.0,0.0,0.0,0.0,0.0,0.0,0.0,0.0,0.0,0.0,0.0,0.0,0.0,0.0,0.0,0.0,0.0,0.0,0.0,0.0,0.0,0.0,0.0,0.0,0.0,0.0,0.0,0.0,0.0,0.0,0.0,0.0,0.0,0.0,0.0,0.0,0.0,-1.501,-1.596,-1.7206,0.0,0.0,0.0,0.0,0.0,0.0,-1.6988,-1.6914,0.0,0.0,0.0,0.0,0.0,0.0,0.0,0.0,0.0,0.0,0.0,0.0,0.0,0.0,0.0,0.0,0.0,0.0,0.0,0.0,0.0,0.0,0.0,0.0,0.0,0.0,0.0,0.0,0.0,0.0,0.0,0.0,0.0,0.0,0.0,0.0,0.0,0.0,0.0,0.0,0.0,0.0,0.0,0.0,0.0,0.0,0.0,0.0,0.0,0.0,0.0,0.0,0.0,0.0,0.0,-1.2932,-1.2267,-1.199,-1.2092,-1.1764,-1.1629,-1.1683,-1.2075,-1.1926,0.0,0.0,0.0,0.0,0.0,0.0,0.0,0.0,0.0,0.0,0.0,0.0,0.0,0.0,0.0,0.0,0.0,0.0,0.0,0.0,0.0,0.0,0.0,0.0,0.0,0.0,0.0,0.0,0.0,0.0,0.0,0.0,0.0,0.0,0.0,0.0,0.0,0.0,0.0,0.0,0.0,-1.7001,-1.8009,-1.8185,0.0,0.0,0.0,0.0,-1.7868,-1.76,0.0,0.0,0.0,0.0,0.0,0.0,0.0,0.0,0.0,0.0,0.0,0.0,0.0,0.0,0.0,0.0,0.0,0.0,0.0,0.0,0.0,0.0,0.0,0.0,0.0,0.0,0.0,0.0,0.0,0.0,0.0,0.0,0.0,0.0,0.0,0.0,0.0,0.0,0.0,0.0,0.0,0.0,0.0,0.0,0.0,0.0,0.0,0.0,0.0,0.0,0.0,0.0,0.0,0.0,0.0,0.0,-1.3098,-1.3275,-1.3081,-1.2568,-1.2316,-1.223,-1.226,-1.1528,-1.093,0.0,0.0,0.0,0.0,0.0,0.0,0.0,0.0,0.0,0.0,0.0,0.0,0.0,0.0,0.0,0.0,0.0,0.0,0.0,0.0,0.0,0.0,0.0,0.0,0.0,0.0,0.0,0.0,0.0,0.0,0.0,0.0,0.0,0.0,0.0,0.0,0.0,0.0,0.0,0.0,0.0,-1.7293,-1.8763,-1.8968,-1.9018,0.0,0.0,-2.0114,-2.03,-2.086,0.0,0.0,0.0,0.0,0.0,0.0,0.0,0.0,0.0,0.0,0.0,0.0,0.0,0.0,0.0,0.0,0.0,0.0,0.0,0.0,0.0,0.0,0.0,0.0,0.0,0.0,0.0,0.0,0.0,0.0,0.0,0.0,0.0,0.0,0.0,0.0,0.0,0.0,0.0,0.0,0.0,0.0,0.0,0.0,0.0,0.0,0.0,0.0,0.0,0.0,0.0,0.0,0.0,0.0,0.0,-1.4012,-1.3636,-1.3535,-1.3207,-1.2608,-1.2101,-1.1991,-1.2382,-1.2128,-1.1775,0.0,0.0,0.0,0.0,0.0,0.0,0.0,0.0,0.0,0.0,0.0,0.0,0.0,0.0,0.0,0.0,0.0,0.0,0.0,0.0,0.0,0.0,0.0,0.0,0.0,0.0,0.0,0.0,0.0,0.0,0.0,0.0,0.0,0.0,0.0,0.0,0.0,0.0,0.0,0.0,0.0,0.0,-1.969,-1.9799,0.0,0.0,0.0,-2.1252,-2.1318,0.0,0.0,0.0,0.0,0.0,0.0,0.0,0.0,0.0,0.0,0.0,0.0,0.0,0.0,0.0,0.0,0.0,0.0,0.0,0.0,0.0,0.0,0.0,0.0,0.0,0.0,0.0,0.0,0.0,0.0,0.0,0.0,0.0,0.0,0.0,0.0,0.0,0.0,0.0,0.0,0.0,0.0,0.0,0.0,0.0,0.0,0.0,0.0,0.0,0.0,0.0,0.0,0.0,0.0,0.0,0.0,0.0,-1.3983,-1.3871,-1.3459,-1.2811,-1.2434,-1.2377,-1.2555,-1.2935,0.0,0.0,0.0,0.0,0.0,0.0,0.0,0.0,0.0,0.0,0.0,0.0,0.0,0.0,0.0,0.0,0.0,0.0,0.0,0.0,0.0,0.0,0.0,0.0,0.0,0.0,0.0,-0.7208,0.0,0.0,0.0,0.0,0.0,0.0,0.0,0.0,0.0,0.0,0.0,0.0,0.0,0.0,-1.9504,-2.0052,-2.0252,-2.0641,0.0,0.0,-2.1805,-2.2058,-2.2243,-2.2023,0.0,0.0,0.0,0.0,0.0,0.0,0.0,0.0,0.0,0.0,0.0,0.0,0.0,0.0,0.0,0.0,0.0,0.0,0.0,0.0,0.0,0.0,0.0,0.0,0.0,0.0,0.0,0.0,0.0,0.0,0.0,0.0,0.0,0.0,0.0,0.0,0.0,0.0,0.0,0.0,0.0,0.0,0.0,0.0,0.0,0.0,0.0,0.0,0.0,0.0,0.0,0.0,0.0,0.0,0.0,-1.397,-1.4557,-1.4359,-1.3327,-1.4179,-1.4159,-1.312,-1.369,-1.3387,0.0,0.0,0.0,0.0,0.0,0.0,0.0,0.0,0.0,0.0,0.0,0.0,0.0,0.0,0.0,0.0,0.0,0.0,0.0,0.0,0.0,0.0,0.0,0.0,0.0,0.0,0.0,0.0,0.0,0.0,0.0,0.0,0.0,0.0,0.0,0.0,0.0,0.0,0.0,0.0,0.0,-1.9311,-1.935,-2.0018,-2.0763,0.0,0.0,-2.2056,-2.281,-2.3548,-2.3511,-2.1983,0.0,0.0,0.0,0.0,0.0,0.0,0.0,0.0,0.0,0.0,0.0,0.0,0.0,0.0,0.0,0.0,0.0,0.0,0.0,0.0,0.0,0.0,0.0,0.0,0.0,0.0,0.0,0.0,0.0,0.0,0.0,0.0,0.0,0.0,0.0,0.0,0.0,0.0,0.0,0.0,0.0,0.0,0.0,0.0,0.0,0.0,0.0,0.0,0.0,0.0,0.0,0.0,0.0,-1.5284,-1.5186,-1.514,-1.4944,-1.4653,-1.4618,-1.4486,-1.4326,-1.4621,-1.4285,0.0,0.0,0.0,0.0,0.0,0.0,0.0,0.0,0.0,0.0,0.0,0.0,0.0,0.0,0.0,0.0,0.0,0.0,0.0,0.0,0.0,0.0,0.0,0.0,0.0,0.0,0.0,0.0,-1.0502,-1.2052,-1.4143,0.0,0.0,0.0,0.0,0.0,0.0,0.0,0.0,0.0,0.0,-1.9387,-2.1368,-2.1443,0.0,0.0,-2.3271,-2.3436,-2.3695,-2.3548,-2.3217,-2.2645,-2.1896,0.0,0.0,0.0,0.0,0.0,0.0,0.0,0.0,0.0,0.0,0.0,0.0,0.0,0.0,0.0,0.0,0.0,0.0,0.0,0.0,0.0,0.0,0.0,0.0,0.0,0.0,0.0,0.0,0.0,0.0,0.0,0.0,0.0,0.0,0.0,0.0,0.0,0.0,0.0,0.0,0.0,0.0,0.0,0.0,0.0,0.0,0.0,0.0,0.0,0.0,0.0,0.0,-1.5573,-1.5988,-1.5684,-1.5627,-1.5819,-1.5448,-1.5312,-1.5405,-1.5581,-1.5321,0.0,0.0,0.0,0.0,0.0,0.0,0.0,0.0,0.0,0.0,0.0,0.0,0.0,0.0,0.0,0.0,0.0,0.0,0.0,0.0,0.0,0.0,0.0,0.0,0.0,0.0,0.0,0.0,-1.2335,-1.3917,-1.6341,0.0,0.0,0.0,0.0,0.0,0.0,0.0,0.0,0.0,0.0,-1.988,-2.2077,-2.2094,-2.2331,-2.3656,-2.3932,-2.4043,-2.4265,-2.375,-2.3235,-2.305,0.0,0.0,0.0,0.0,0.0,0.0,0.0,0.0,0.0,0.0,0.0,0.0,0.0,0.0,0.0,0.0,0.0,0.0,0.0,0.0,0.0,0.0,0.0,0.0,0.0,0.0,0.0,0.0,0.0,0.0,-1.5711,0.0,0.0,0.0,0.0,0.0,0.0,0.0,0.0,0.0,0.0,0.0,0.0,0.0,0.0,0.0,0.0,0.0,0.0,0.0,0.0,0.0,0.0,-1.5671,-1.6006,-1.6217,-1.6402,-1.6578,-1.7028,-1.6867,-1.6127,-1.6545,-1.642,-1.5673,0.0,0.0,0.0,0.0,0.0,0.0,0.0,0.0,0.0,0.0,0.0,0.0,0.0,0.0,0.0,0.0,0.0,0.0,0.0,0.0,0.0,0.0,0.0,0.0,0.0,0.0,-1.3703,-1.4513,-1.5506,0.0,0.0,0.0,0.0,0.0,0.0,0.0,0.0,0.0,0.0,-1.9829,-2.0778,-2.0931,-2.153,-2.2365,-2.3217,-2.331,-2.3553,-2.4389,-2.4375,-2.3989,0.0,0.0,0.0,0.0,0.0,0.0,0.0,0.0,0.0,0.0,0.0,0.0,0.0,0.0,0.0,0.0,0.0,0.0,0.0,0.0,0.0,0.0,0.0,0.0,0.0,0.0,0.0,-1.6657,-1.6733,0.0,0.0,0.0,0.0,0.0,0.0,0.0,0.0,0.0,0.0,0.0,-1.8075,-1.8277,0.0,0.0,0.0,0.0,0.0,0.0,0.0,0.0,0.0,0.0,0.0,0.0,-1.6133,-1.6237,-1.7299,-1.7778,-1.7555,-1.8044,-1.8106,-1.771,-1.7697,-1.7147,-1.5935,0.0,0.0,0.0,0.0,0.0,0.0,0.0,0.0,0.0,0.0,0.0,0.0,0.0,0.0,0.0,0.0,0.0,0.0,0.0,0.0,0.0,0.0,0.0,0.0,0.0,-1.2091,0.0,0.0,0.0,0.0,0.0,0.0,0.0,0.0,0.0,0.0,0.0,-1.9295,-2.1419,-2.0736,-2.079,-2.2957,-2.2982,-2.3112,0.0,0.0,0.0,0.0,0.0,0.0,0.0,0.0,0.0,0.0,0.0,0.0,0.0,0.0,-2.4911,-2.4414,-2.4783,-2.5226,-2.5333,0.0,0.0,0.0,0.0,0.0,0.0,0.0,0.0,0.0,0.0,0.0,0.0,0.0,0.0,-1.8004,0.0,-1.7855,0.0,0.0,0.0,0.0,0.0,0.0,0.0,0.0,-1.7905,-1.8288,-1.8836,-1.929,-1.9412,0.0,-1.9358,-1.8723,0.0,0.0,0.0,0.0,0.0,0.0,0.0,0.0,-1.6144,-1.6402,-1.7956,-1.8649,-1.8528,-1.8809,-1.8874,-1.862,-1.8347,-1.7763,-1.6814,-1.6469,-1.5608,0.0,0.0,0.0,0.0,0.0,0.0,0.0,0.0,0.0,0.0,0.0,0.0,0.0,0.0,0.0,0.0,0.0,0.0,0.0,0.0,0.0,0.0,0.0,-1.4729,0.0,0.0,0.0,0.0,0.0,0.0,0.0,0.0,0.0,-1.9413,-1.9613,-2.0549,-2.2607,-2.1711,-2.1628,-2.3775,0.0,0.0,0.0,0.0,0.0,0.0,0.0,-2.6023,-2.6023,-2.5338,-2.4949,-2.537,-2.6323,-2.6964,-2.6725,0.0,0.0,-2.6076,-2.6429,-2.6838,-2.6991,-2.7065,-2.7211,-2.758,-2.7723,-2.7832,0.0,0.0,0.0,0.0,0.0,0.0,0.0,0.0,-2.0396,-2.0675,0.0,-2.0096,0.0,0.0,0.0,0.0,0.0,-1.677,0.0,0.0,-1.8428,-1.9012,-1.9777,-2.02,-2.0281,-2.011,-1.9984,-1.9838,-1.9658,-1.8708,0.0,0.0,0.0,0.0,0.0,0.0,-1.5822,-1.6564,-1.8082,-1.9041,-1.9369,-1.931,-1.9095,-1.8779,-1.8486,-1.8316,-1.8263,-1.8171,-1.7177,-1.5119,-1.4881,0.0,0.0,0.0,0.0,0.0,0.0,0.0,0.0,0.0,0.0,0.0,0.0,0.0,0.0,0.0,0.0,0.0,0.0,0.0,0.0,-1.7394,0.0,0.0,0.0,0.0,0.0,0.0,0.0,0.0,0.0,0.0,-2.1301,-2.1728,-2.2189,-2.2204,0.0,0.0,0.0,0.0,-2.3423,-2.3502,-2.4828,-2.5892,-2.5874,-2.6451,-2.6874,-2.6837,0.0,0.0,-2.5527,-2.6835,-2.7665,-2.686,-2.7339,-2.7669,-2.7058,-2.7038,-2.7115,-2.7326,-2.7475,-2.7621,-2.8421,-2.8849,-2.9036,-2.2077,0.0,0.0,0.0,0.0,-2.0069,-2.0103,-2.0061,-2.0814,-2.0918,-2.0501,-2.0378,0.0,0.0,0.0,0.0,0.0,0.0,-2.0865,-2.155,-2.1188,-2.1651,-2.2781,-2.2272,-2.2176,-2.2501,-2.275,-2.2576,-2.2064,-2.1203,-1.9707,-1.7691,0.0,0.0,0.0,0.0,-1.7146,-1.7295,-1.8967,-1.9793,-1.9617,-1.9078,-1.872,-1.8512,-1.895,-1.8832,-1.8178,-1.8127,-1.7313,-1.5644,-1.5345,0.0,0.0,0.0,0.0,0.0,0.0,0.0,0.0,0.0,0.0,0.0,0.0,0.0,0.0,0.0,0.0,0.0,0.0,0.0,-1.5829,-1.8354,-1.9812,0.0,0.0,0.0,0.0,0.0,0.0,0.0,0.0,0.0,-2.4358,-2.3055,-2.2539,0.0,0.0,-2.3427,-2.4053,-2.4596,-2.4949,-2.4966,-2.63,0.0,0.0,-2.7938,-2.827,-2.7738,-2.744,-2.729,-2.7269,-2.8051,-2.8613,-2.8329,-2.8498,-2.8768,-2.9296,-2.9413,-2.9678,-3.0344,-3.0615,-3.0732,-3.0997,-3.113,-3.1204,-2.393,-2.282,-2.1283,-2.0933,-2.1392,-2.1373,-2.1295,-2.1145,-2.1471,-2.147,-2.1174,-2.0923,-2.0925,-2.1056,-2.0784,0.0,0.0,0.0,-2.175,-2.2166,-2.199,-2.2377,-2.3188,-2.2823,-2.297,-2.3586,-2.365,-2.3653,-2.3586,-2.276,-2.1653,-2.0202,0.0,0.0,-1.6635,-1.7722,-1.8211,-1.8143,-1.9561,-2.022,-1.996,-1.9441,-1.9176,-1.9076,-1.9211,-1.8867,-1.8003,-1.8188,-1.7733,-1.6531,-1.6279,-1.5581,0.0,0.0,0.0,0.0,0.0,0.0,0.0,0.0,0.0,0.0,0.0,-1.1536,0.0,0.0,0.0,0.0,-1.5123,-1.5329,-1.7038,-1.8759,0.0,0.0,0.0,0.0,0.0,0.0,0.0,-2.4649,-2.5114,-2.5615,-2.6135,-2.4926,-2.4109,-2.4428,-2.4276,-2.4332,-2.4837,0.0,-2.6042,-2.6041,-2.7126,-2.7951,-2.7951,-2.8596,-2.8927,-2.8513,-2.8479,-2.8495,-2.8452,-2.8772,-2.9131,-2.9402,-2.9452,-2.9871,-3.1122,-3.1413,-3.15,-3.1874,-3.2016,-3.2194,-3.2516,-3.2672,-3.2767,-2.5628,-2.5889,-2.322,-2.2822,-2.3768,-2.2446,-2.2308,-2.2948,-2.2421,-2.2365,-2.2558,-2.182,-2.1619,-2.1821,-2.1103,0.0,-2.0688,-2.0852,-2.0956,-2.0901,-2.1648,-2.2052,-2.2185,-2.2565,-2.3144,-2.3886,-2.3472,-2.3718,-2.4446,-2.3783,-2.3301,-2.3036,-2.0339,-1.8484,-1.7617,-1.8653,-1.9177,-1.9108,-2.0048,-2.0503,-2.0466,-2.0393,-2.0262,-2.0135,-1.9455,-1.8715,-1.7934,-1.8332,-1.828,-1.754,-1.7364,-1.6888,-1.5941,0.0,0.0,0.0,0.0,0.0,0.0,0.0,0.0,0.0,0.0,0.0,0.0,0.0,0.0,0.0,-1.7896,0.0,-1.855,-1.9235,0.0,0.0,0.0,-2.3946,-2.61,-2.6536,-2.6696,-2.6703,0.0,0.0,-2.699,-2.6916,-2.6302,-2.4782,-2.5242,-2.567,-2.5615,-2.63,-2.682,-2.6794,-2.753,-2.8083,-2.8157,-2.8669,-2.9079,-2.9052,-2.9206,-2.9203,-2.9115,-2.9204,-2.949,-3.0031,-3.027,-3.079,-3.2496,-3.276,-3.2762,-3.2306,-3.2299,-3.2547,-3.3264,-3.3473,-3.3663,-2.5778,-2.5274,-2.4513,-2.3786,-2.3139,-2.2791,-2.2742,-2.2955,-2.3414,-2.3374,-2.3009,-2.2994,-2.2798,-2.247,-2.2297,-2.2169,-2.2141,-2.2754,-2.311,-2.3196,-2.3441,-2.3885,-2.4452,-2.3962,-2.4386,-2.5455,-2.5295,-2.5541,-2.6202,-2.5461,-2.4447,-2.3367,-2.3123,-2.201,-2.0204,-2.0792,-2.1002,-2.0715,-2.1275,-2.1431,-2.1253,-2.1862,-2.1714,-2.0577,-2.0473,-1.9782,-1.8485,-1.8578,-1.8284,-1.7499,-1.7455,-1.7258,-1.6804,-1.5625,0.0,0.0,0.0,0.0,0.0,0.0,0.0,0.0,0.0,-1.4622,-1.8936,0.0,-1.7292,0.0,-2.0916,-2.1343,-2.2502,-2.3399,0.0,0.0,-2.5079,-2.4976,-2.5588,-2.6211,-2.6659,-2.6783,-2.7335,-2.7724,-2.7826,-2.7288,-2.6711,-2.6206,-2.6375,-2.6486,-2.6443,-2.7106,-2.7622,-2.7672,-2.8257,-2.8746,-2.8746,-2.8979,-2.9189,-2.916,-2.924,-2.9299,-2.924,-2.9736,-3.0175,-3.0356,-3.0872,-3.1647,-3.2687,-3.2932,-3.3194,-3.3608,-3.3825,-3.3904,-3.4132,-3.4154,-3.4233,-2.663,-2.6127,-2.5794,-2.5063,-2.4108,-2.3933,-2.3933,-2.4014,-2.4208,-2.407,-2.3745,-2.4015,-2.375,-2.3158,-2.3204,-2.3005,-2.264,-2.3126,-2.3413,-2.3466,-2.3563,-2.3868,-2.4314,-2.3833,-2.4173,-2.5177,-2.5005,-2.5261,-2.5868,-2.5722,-2.5217,-2.4408,-2.5118,-2.4712,-2.3131,-2.2575,-2.2217,-2.1985,-2.2458,-2.2772,-2.2849,-2.3122,-2.276,-2.1682,-2.1359,-2.039,-1.8607,-1.882,-1.8619,-1.7864,-1.8123,-1.821,-1.8029,-1.7418,-1.691,0.0,0.0,0.0,0.0,0.0,0.0,0.0,0.0,0.0,0.0,0.0,-2.0523,-2.2994,-2.2997,-2.3252,-2.4137,-2.4672,-2.5389,-2.6465,-2.6213,-2.6254,-2.6974,-2.7451,-2.7769,-2.7855,-2.8278,-2.8614,-2.8643,-2.831,-2.7973,-2.7892,-2.7892,-2.7742,-2.7361,-2.7849,-2.8401,-2.8397,-2.8746,-2.8975,-2.8975,-2.9421,-2.9751,-2.9773,-3.0117,-3.0398,-3.0376,-3.0691,-3.1057,-3.1418,-3.1829,-3.2427,-3.3247,-3.3463,-3.3672,-3.4059,-3.4293,-3.4316,-3.4386,-3.439,-3.4413,-2.7612,-2.7375,-2.6875,-2.632,-2.5758,-2.5481,-2.538,-2.5412,-2.4884,-2.4642,-2.4703,-2.4859,-2.4534,-2.3887,-2.3994,-2.3638,-2.2959,-2.3058,-2.3093,-2.3137,-2.3241,-2.3325,-2.3375,-2.3325,-2.363,-2.4241,-2.4058,-2.4292,-2.489,-2.547,-2.5705,-2.5675,-2.6502,-2.6451,-2.5584,-2.4101,-2.3281,-2.3141,-2.377,-2.4344,-2.4726,-2.4378,-2.3868,-2.3156,-2.2413,-2.104,-1.9109,-1.9442,-1.9361,-1.8713,-1.9234,-1.9553,-1.9542,-1.9432,-1.9504,0.0,-1.9869,0.0,0.0,0.0,0.0,0.0,0.0,0.0,0.0,-2.3754,-2.446,-2.4607,-2.4487,-2.4543,-2.4889,-2.4892,-2.5449,-2.6847,-2.7056,-2.7668,-2.8931,-2.9156,-2.92,-2.9222,-2.9262,-2.9323,-2.9349,-2.9388,-2.9368,-2.9212,-2.9153,-2.8852,-2.8239,-2.8544,-2.8966,-2.9021,-2.904,-2.9058,-2.9283,-2.989,-3.0401,-3.059,-3.1158,-3.1741,-3.164,-3.1774,-3.2071,-3.263,-3.2858,-3.3234,-3.3975,-3.4111,-3.4142,-3.4179,-3.4221,-3.4245,-3.434,-3.4381,-3.4427,-2.7589,-2.7063,-2.6876,-2.6805,-2.6894,-2.6847,-2.636,-2.5622,-2.5501,-2.5561,-2.5699,-2.5183,-2.4971,-2.4912,-2.495,-2.4843,-2.4643,-2.4698,-2.4764,-2.4746,-2.4828,-2.49,-2.4963,-2.491,-2.4927,-2.5059,-2.4918,-2.5205,-2.5837,-2.5893,-2.5925,-2.5959,-2.6631,-2.6341,-2.512,0.0,0.0,0.0,-2.5564,-2.5999,-2.603,-2.6302,-2.5959,-2.5105,-2.4455,0.0,-2.1636,-2.1653,-2.1383,-2.0639,-2.0789,0.0,0.0,0.0,0.0,0.0,0.0,0.0,0.0,0.0,0.0,0.0,-2.467,-2.5344,-2.5523,-2.5804,-2.5771,-2.5299,-2.5338,-2.5931,-2.7126,-2.7318,-2.7688,-2.8587,-2.8719,-2.887,-2.9163,-2.92,-2.9222,-2.927,-2.9286,-2.9323,-2.9368,-2.9388,-2.9386,-2.9323,-2.9302,-2.9206,-2.8956,-2.9045,-2.9156,-2.9156,-2.9152,-2.9396,-3.0042,-3.0331,-3.0779,-3.1283,-3.1589,-3.1819,-3.1894,-3.2377,-3.273,-3.298,-3.3486,-3.3956,-3.4154,-3.4173,-3.4191,-3.4216,-3.4216,-3.4197,-3.4221,-3.4269,-3.4358,-2.79,0.0,-2.7247,-2.7369,0.0,-2.7642,-2.7397,-2.6911,-2.6718,-2.6674,-2.6766,-2.6486,-2.6179,-2.59,-2.592,-2.5717,-2.5338,-2.5372,-2.5409,-2.5392,-2.5446,-2.5517,-2.5544,-2.5517,-2.5455,-2.5366,-2.5271,-2.5372,-2.5617,-2.5915,-2.6061,-2.6065,-2.6822,-2.6837,-2.6191,-2.644,-2.6253,-2.5462,-2.6335,-2.6774,-2.6725,-2.6971,-2.6739,-2.5939,0.0,0.0,0.0,0.0,0.0,0.0,0.0,0.0,0.0,0.0,0.0,-2.3884,-2.4086,-2.4344,-2.4694,-2.5368,-2.5865,-2.6118,-2.7085,-2.7611,-2.7415,-2.7568,-2.7523,-2.724,-2.7331,-2.7725,-2.8436,-2.8611,-2.8802,-2.9206,-2.9265,-2.9304,-2.9243,-2.9283,-2.9286,-2.9307,-2.9326,-2.9347,-2.9388,-2.9388,-2.9386,-2.9365,-2.9344,-2.9344,-2.9304,-2.924,-2.9218,-2.9218,-2.9218,-2.9496,-3.0253,-3.0835,-3.1358,-3.2098,-3.2688,-3.2953,-3.2971,-3.3324,-3.3584,-3.3603,-3.3937,-3.4216,-3.4216,-3.4216,-3.4221,-3.4227,-3.4269,-3.4269,-3.4293,-3.4293,-3.4335,-2.8477,-2.7848,-2.7806,-2.7911,-2.8042,-2.8174,-2.8255,-2.8228,0.0,0.0,0.0,-2.7689,-2.7414,-2.6887,-2.6932,-2.6613,-2.6063,-2.6029,-2.6021,-2.6021,-2.6074,-2.61,-2.61,-2.6083,-2.5932,-2.5647,-2.5612,-2.5509,-2.5362,-2.5952,-2.6264,-2.6411,-2.7109,-2.7434,-2.7434,-2.7434,-2.6951,-2.6099,-2.6808,-2.7166,-2.7105,-2.7261,-2.7057,-2.6492,-2.6359,-2.572,-2.4527,-2.4275,-2.3884,-2.3257,-2.3804,-2.4202,-2.4323,-2.4975,-2.5727,-2.6464,-2.6702,-2.7087,-2.7765,-2.8091,-2.8282,-2.8406,-2.8669,-2.8785,-2.8594,-2.8839,-2.904,-2.9021,-2.9134,-2.92,-2.92,-2.9265,-2.9326,-2.9304,-2.9368,-2.9388,-2.9326,-2.9347,-2.9368,-2.9344,-2.9365,-2.9388,-2.9388,-2.9388,-2.9409,-2.9409,-2.9409,-2.9427,-2.9388,-2.9326,-2.9262,-2.9243,-2.9428,-2.9776,-3.0557,-3.1395,-3.2196,-3.3012,-3.3709,-3.4179,-3.4197,-3.4221,-3.4221,-3.4141,-3.4216,-3.4216,-3.4221,-3.4221,-3.4227,-3.4298,-3.4298,-3.434,-3.4404,-3.4363,-3.4363,-2.9779,-2.9148,-2.8503,-2.8336,-2.8496,-2.8476,-2.8466,-2.8492,-2.7989,-2.776,-2.776,-2.7783,-2.7818,-2.7883,-2.783,-2.7794,-2.7723,-2.7695,-2.7649,-2.7667,-2.7677,-2.7677,-2.7677,-2.7688,-2.7275,-2.6567,-2.6476,-2.637,-2.6316,-2.6341,-2.6725,-2.733,-2.7504,-2.7587,-2.7539,-2.7526,-2.7413,-2.7261,-2.7444,-2.7526,-2.7526,-2.7766,-2.7771,-2.7514,-2.7467,-2.7023,-2.6017,-2.5953,-2.5594,-2.4843,-2.4972,-2.5331,-2.5843,-2.6179,-2.6713,-2.7426,-2.7677,-2.7918,-2.8201,-2.8362,-2.8569,-2.881,-2.8975,-2.9021,-2.8934,-2.9021,-2.913,-2.9156,-2.924,-2.9302,-2.9283,-2.933,-2.9373,-2.9411,-2.9434,-2.9472,-2.9392,-2.9392,-2.939,-2.9407,-2.9386,-2.939,-2.9392,-2.9392,-2.9431,-2.9453,-2.9471,-2.9491,-2.9471,-2.9429,-2.9368,-2.9479,-2.9959,-3.0683,-3.1388,-3.2261,-3.3003,-3.39,-3.4086,-3.4216,-3.4216,-3.4245,-3.4245,-3.4221,-3.4258,-3.4282,-3.4269,-3.4293,-3.4316,-3.4363,-3.4386,-3.4409,-3.4454,-3.4473,-3.4476,-3.1057,-3.0423,-3.0077,-3.0017,-3.0106,-3.0136,-3.0118,-3.0056,-2.9365,-2.8712,-2.8136,-2.8109,-2.8172,-2.82,-2.8237,-2.8478,-2.8899,-2.8872,-2.9076,-2.9458,-2.9505,-2.9244,-2.8785,-2.8788,-2.833,-2.7441,-2.7381,-2.7285,-2.7168,-2.7175,-2.7391,-2.7701,-2.7777,-2.7824,-2.7824,-2.7795,-2.7748,-2.7766,-2.7647,-2.7569,-2.7617,-2.7842,-2.79,-2.7795,-2.7777,-2.7572,-2.7116,-2.707,-2.69,-2.6597,-2.6619,-2.6806,-2.7151,-2.7289,-2.7561,-2.8,-2.8191,-2.8335,-2.851,-2.8712,-2.8887,-2.9108,-2.9193,-2.9218,-2.9218,-2.9218,-2.9237,-2.924,-2.9323,-2.9365,-2.9365,-2.937,-2.9392,-2.9373,-2.9433,-2.9451,-2.9453,-2.9451,-2.9451,-2.9451,-2.9451,-2.9451,-2.9453,-2.9434,-2.9453,-2.9492,-2.9511,-2.9492,-2.9453,-2.9412,-2.939,-2.9465,-3.0095,-3.0894,-3.1693,-3.247,-3.3268,-3.4067,-3.4197,-3.4216,-3.4197,-3.4245,-3.4269,-3.4269,-3.4311,-3.4354,-3.434,-3.4363,-3.4386,-3.4431,-3.4495,-3.4539,-3.4602,-3.4645,-3.4666,-3.208,-3.1611,-3.1421,-3.1403,-3.1444,-3.1518,-3.1513,-3.1409,-3.0754,-2.9953,-2.9137,-2.8691,-2.845,-2.8389,-2.8424,-2.8864,-2.9557,-2.9602,-3.0006,-3.0686,-3.0751,-3.037,-2.9737,-2.9712,-2.9298,-2.8585,-2.8351,-2.8158,-2.8035,-2.7959,-2.7882,-2.7876,-2.7996,-2.8042,-2.8042,-2.8025,-2.8042,-2.8032,-2.7824,-2.7736,-2.7707,-2.7842,-2.7917,-2.7946,-2.7911,-2.7847,-2.7864,-2.7818,-2.78,-2.7829,-2.7869,-2.7971,-2.8065,-2.8129,-2.8228,-2.8396,-2.8543,-2.8676,-2.8839,-2.9067,-2.924,-2.9307,-2.9326,-2.9347,-2.9388,-2.9365,-2.9323,-2.9323,-2.9347,-2.9388,-2.9388,-2.9388,-2.939,-2.9392,-2.9429,-2.9431,-2.9491,-2.951,-2.9509,-2.9511,-2.9511,-2.9511,-2.9531,-2.9531,-2.9531,-2.9531,-2.9531,-2.9491,-2.9433,-2.9412,-2.945,-2.9802,-3.0358,-3.1191,-3.1953,-3.2748,-3.3515,-3.4165,-3.4221,-3.4245,-3.4245,-3.4293,-3.4316,-3.434,-3.4381,-3.4427,-3.445,-3.4431,-3.4495,-3.4561,-3.4623,-3.4666,-3.4687,-3.4975,-3.5092,-3.2753,-3.2693,-3.1961,-3.156,-3.1639,-3.1709,-3.1747,-3.1709,-3.158,-3.1478,-3.1096,-2.9454,-2.8724,-2.8662,-2.8616,-2.9042,-2.9817,-2.9674,-3.0088,-3.0826,-3.0722,-3.0657,-3.0545,-3.041,-3.0267,-3.0018,-2.9325,-2.8942,-2.8877,-2.8304,-2.8042,-2.8071,-2.8154,-2.8182,-2.82,-2.8191,-2.8172,-2.8177,-2.8144,-2.8081,-2.7968,-2.7968,-2.8014,-2.8053,-2.8088,-2.8053,-2.8187,-2.8136,-2.8119,-2.8027,-2.8174,-2.8272,-2.828,-2.8485,-2.8676,-2.8742,-2.8883,-2.9038,-2.923,-2.9312,-2.9412,-2.9472,-2.9412,-2.9392,-2.9392,-2.9388,-2.9386,-2.9386,-2.9386,-2.9388,-2.9388,-2.939,-2.9392,-2.9412,-2.9433,-2.9511,-2.9511,-2.9511,-2.951,-2.9509,-2.9511,-2.9531,-2.9587,-2.9588,-2.9588,-2.9588,-2.9569,-2.9531,-2.9511,-2.9565,-2.9822,-3.0493,-3.1213,-3.1953,-3.2697,-3.3552,-3.3998,-3.4255,-3.4274,-3.4316,-3.4381,-3.4427,-3.4473,-3.445,-3.4473,-3.4536,-3.458,-3.4602,-3.4623,-3.4687,-3.4747,-3.4807,-3.4883,-3.5376,-3.5833,-3.3611,-3.3722,-3.3314,-3.3141,-3.3147,-3.3194,-3.3259,-3.3222,-3.2761,-3.2557,-3.2317,-3.108,-3.0436,-3.0227,-3.0145,-3.0574,-3.1301,-3.1266,-3.1618,-3.2293,-3.23,-3.1959,-3.1363,-3.1267,-3.0975,-3.0368,-2.958,-2.9242,-2.9158,-2.8584,-2.8246,-2.8273,-2.83,-2.8318,-2.8318,-2.83,-2.8336,-2.8327,-2.8318,-2.83,-2.83,-2.8219,-2.8451,-2.8945,-2.9035,-2.9341,-2.9746,-2.9475,-2.9256,-2.9261,-2.8937,-2.8785,-2.8906,-2.9038,-2.9129,-2.9217,-2.9338,-2.9474,-2.9589,-2.9589,-2.957,-2.9551,-2.9512,-2.9453,-2.9412,-2.939,-2.9388,-2.9388,-2.9388,-2.9388,-2.9388,-2.939,-2.939,-2.9392,-2.9431,-2.947,-2.9511,-2.951,-2.951,-2.9549,-2.9549,-2.9588,-2.9645,-2.9626,-2.9607,-2.9626,-2.9626,-2.9588,-2.9569,-2.9923,-3.0557,-3.1318,-3.2139,-3.2635,-3.3073,-3.3682,-3.4152,-3.4293,-3.434,-3.4381,-3.445,-3.4539,-3.4602,-3.458,-3.462,-3.4663,-3.4708,-3.4728,-3.473,-3.4827,-3.4885,-3.4981,-3.5531,-3.5911,-3.6442,-3.4221,-3.4274,-3.4221,-3.4216,-3.4216,-3.4288,-3.4316,-3.426,-3.3769,-3.353,-3.3452,-3.2825,-3.2409,-3.2097,-3.1561,-3.1696,-3.2383,-3.2437,-3.2794,-3.3368,-3.3393,-3.2919,-3.2211,-3.2102,-3.1737,-3.1034,-3.0131,-2.9465,-2.914,-2.8667,-2.8424,-2.8424,-2.8424,-2.8432,-2.8432,-2.845,-2.8476,-2.8476,-2.8476,-2.8484,-2.858,-2.8683,-2.9079,-2.9638,-2.9745,-3.0212,-3.1141,-3.0673,-3.0461,-3.0604,-2.9917,-2.9582,-2.9731,-2.9623,-2.957,-2.9644,-2.9734,-2.9787,-2.9859,-2.9789,-2.9717,-2.9644,-2.9589,-2.9492,-2.9433,-2.9409,-2.9388,-2.9388,-2.9388,-2.9388,-2.9388,-2.9388,-2.939,-2.9392,-2.939,-2.9429,-2.9453,-2.9471,-2.949,-2.9587,-2.9587,-2.9626,-2.9664,-2.9645,-2.9608,-2.9645,-2.9645,-2.9607,-2.972,-3.0263,-3.1088,-3.1907,-3.2713,-3.3246,-3.3371,-3.3836,-3.425,-3.4381,-3.445,-3.4495,-3.4561,-3.4666,-3.4727,-3.4706,-3.4785,-3.4806,-3.4788,-3.481,-3.5001,-3.5152,-3.5247,-3.5532,-3.6348,-3.6652,-3.7393,-3.4293,-3.4293,-3.4221,-3.4216,-3.4216,-3.4288,-3.4358,-3.4404,-3.4398,-3.4442,-3.4449,-3.4349,-3.43,-3.4041,-3.2408,-3.1955,-3.2533,-3.2617,-3.2931,-3.3455,-3.3382,-3.3244,-3.305,-3.2848,-3.2763,-3.2501,-3.1076,-2.9712,-2.8577,-2.8434,-2.8424,-2.8424,-2.8484,-2.851,-2.851,-2.8562,-2.8587,-2.8587,-2.8587,-2.8619,-2.8791,-2.9471,-2.9897,-3.0031,-3.005,-3.0588,-3.1433,-3.1607,-3.1663,-3.173,-3.114,-3.0809,-3.0772,-3.0281,-3.0004,-3.0051,-3.0048,-3.0048,-3.0086,-3.0094,-3.0011,-2.9866,-2.9889,-2.9663,-2.9755,-2.9692,-2.9669,-2.9481,-2.9556,-2.95,-2.9481,-2.9446,-2.939,-2.9388,-2.939,-2.9411,-2.9412,-2.9412,-2.9471,-2.9568,-2.9606,-2.9645,-2.9683,-2.9645,-2.9608,-2.9626,-2.9645,-2.972,-2.9889,-3.0433,-3.1278,-3.2105,-3.2931,-3.3599,-3.4162,-3.4316,-3.4413,-3.4517,-3.4561,-3.4623,-3.4708,-3.4788,-3.4788,-3.4788,-3.4807,-3.4827,-3.4868,-3.5039,-3.5305,-3.5552,-3.5855,-3.6291,-3.7164,-3.8017,-3.8607,-3.4293,-3.4293,-3.4269,-3.4293,-3.4316,-3.434,-3.4386,-3.4491,-3.4539,-3.4623,-3.4727,-3.4687,-3.4687,-3.4607,-3.3877,-3.3543,-3.3555,-3.3529,-3.3592,-3.3698,-3.3567,-3.3422,-3.3304,-3.3073,-3.3011,-3.284,-3.1446,-2.9942,-2.8603,-2.851,-2.8536,-2.8587,-2.8619,-2.8644,-2.8687,-2.8712,-2.8712,-2.8712,-2.8712,-2.8761,-2.8912,-2.9673,-3.043,-3.1083,-3.1538,-3.2256,-3.3245,-3.2914,-3.2767,-3.2893,-3.2241,-3.1863,-3.1897,-3.177,-3.171,-3.1785,-3.1781,-3.1785,-3.1775,-3.173,-3.1651,-3.1535,-3.1411,-3.1223,-3.1183,-3.11,-3.1036,-3.0921,-3.0472,-3.0248,-3.0057,-2.9723,-2.939,-2.939,-2.939,-2.939,-2.939,-2.9392,-2.9433,-2.953,-2.9587,-2.9626,-2.97,-2.9607,-2.957,-2.9645,-2.9701,-2.9983,-3.0565,-3.1299,-3.2128,-3.294,-3.377,-3.4431,-3.4615,-3.4583,-3.4561,-3.4645,-3.4687,-3.4768,-3.4848,-3.4849,-3.4869,-3.4869,-3.4868,-3.4868,-3.4907,-3.4926,-3.5306,-3.6007,-3.631,-3.6936,-3.7961,-3.8605,-3.9083,-3.4484,-3.475,-3.4769,-3.4941,-3.5189,-3.5208,-3.5236,-3.5323,-3.5409,-3.5518,-3.5583,-3.5642,-3.5549,-3.5303,-3.5244,-3.4873,-3.4363,-3.4227,-3.4099,-3.3895,-3.3753,-3.3605,-3.3462,-3.3316,-3.3256,-3.3003,-3.165,-3.0243,-2.9101,-2.8746,-2.8687,-2.8737,-2.8743,-2.8785,-2.8834,-2.8834,-2.8834,-2.8815,-2.881,-2.8943,-2.9368,-3.0197,-3.1131,-3.2112,-3.2934,-3.3697,-3.439,-3.3998,-3.386,-3.3885,-3.3315,-3.2813,-3.2645,-3.2703,-3.2776,-3.2837,-3.2812,-3.2837,-3.2809,-3.2752,-3.2638,-3.2545,-3.2408,-3.2279,-3.2164,-3.2102,-3.2,-3.1827,-3.1486,-3.1014,-3.0621,-3.0134,-2.9686,-2.9465,-2.939,-2.937,-2.9388,-2.939,-2.9412,-2.9511,-2.9811,-2.996,-3.0071,-3.0261,-3.0433,-3.0509,-3.0527,-3.0884,-3.1448,-3.2295,-3.3013,-3.36,-3.4339,-3.4794,-3.4927,-3.4831,-3.4753,-3.4831,-3.483,-3.4888,-3.4926,-3.4927,-3.4927,-3.4927,-3.4927,-3.4908,-3.4908,-3.4908,-3.5476,-3.6311,-3.6803,-3.7313,-3.8224,-3.902,-3.9444,-3.4946,-3.5656,-3.5693,-3.6109,-3.6657,-3.667,-3.6844,-3.6846,-3.6975,-3.6974,-3.7007,-3.7298,-3.6825,-3.635,-3.6141,-3.5704,-3.4866,-3.4545,-3.434,-3.4124,-3.3972,-3.3815,-3.3615,-3.3549,-3.3419,-3.3291,-3.191,-3.0753,-2.9904,-2.9174,-2.881,-2.881,-2.8881,-2.8905,-2.8929,-2.8929,-2.8929,-2.8905,-2.8881,-2.9271,-3.0173,-3.1033,-3.1974,-3.3011,-3.3971,-3.4529,-3.4687,-3.4714,-3.4775,-3.4904,-3.4358,-3.3632,-3.3116,-3.3081,-3.2999,-3.3127,-3.3031,-3.2993,-3.3018,-3.2991,-3.2974,-3.2896,-3.2629,-3.2656,-3.2657,-3.2465,-3.2364,-3.236,-3.207,-3.1654,-3.1019,-3.0621,-3.0188,-2.9537,-2.939,-2.939,-2.9388,-2.9388,-2.9429,-2.9603,-3.0146,-3.0667,-3.0966,-3.1327,-3.171,-3.1845,-3.1996,-3.2164,-3.2406,-3.3086,-3.3671,-3.401,-3.4541,-3.5035,-3.5092,-3.5092,-3.5053,-3.5015,-3.5001,-3.5002,-3.5039,-3.5039,-3.5001,-3.5001,-3.4945,-3.4946,-3.4984,-3.5097,-3.5894,-3.6652,-3.7144,-3.7825,-3.8772,-3.9551,-3.9728,-3.6391,-3.6569,-3.6587,-3.6742,-3.7014,-3.6986,-3.6991,-3.7057,-3.7167,-3.7241,-3.739,-3.7566,-3.7184,-3.6592,-3.6436,-3.5942,-3.5091,-3.4908,-3.4711,-3.4454,-3.4293,-3.4124,-3.3947,-3.3815,-3.3441,-3.281,-3.1788,-3.0899,-3.0161,-2.9373,-2.897,-2.8998,-2.9021,-2.9067,-2.9112,-2.9112,-2.9112,-2.9093,-2.9089,-2.9521,-3.0383,-3.1329,-3.2281,-3.3237,-3.4196,-3.4791,-3.4908,-3.4964,-3.5056,-3.516,-3.4993,-3.4802,-3.4616,-3.4611,-3.4644,-3.4691,-3.4691,-3.4625,-3.4563,-3.4496,-3.4397,-3.4377,-3.4276,-3.4205,-3.4093,-3.3941,-3.386,-3.3719,-3.3259,-3.267,-3.2269,-3.1235,-3.0373,-2.9504,-2.939,-2.939,-2.9388,-2.939,-2.969,-3.0197,-3.0538,-3.0949,-3.1547,-3.2077,-3.2294,-3.2392,-3.2468,-3.2673,-3.3257,-3.3633,-3.4124,-3.4651,-3.503,-3.516,-3.5143,-3.5143,-3.5124,-3.5105,-3.5089,-3.5073,-3.5092,-3.5111,-3.5075,-3.5096,-3.5058,-3.5097,-3.5116,-3.5571,-3.6368,-3.7126,-3.775,-3.8622,-3.9589,-3.9973,-4.0015,-3.7337,-3.7535,-3.7554,-3.7742,-3.8047,-3.8019,-3.8,-3.8066,-3.8093,-3.821,-3.8398,-3.8556,-3.8001,-3.7156,-3.7012,-3.6339,-3.5369,-3.5226,-3.5072,-3.4851,-3.4626,-3.445,-3.4245,-3.4049,-3.3744,-3.3128,-3.2305,-3.1661,-3.1157,-3.0125,-2.9595,-2.9617,-2.9322,-2.92,-2.9225,-2.9243,-2.924,-2.924,-2.924,-2.982,-3.0872,-3.1632,-3.2564,-3.3744,-3.4508,-3.4908,-3.5075,-3.5127,-3.5196,-3.5239,-3.5315,-3.5398,-3.5446,-3.5407,-3.546,-3.5474,-3.5474,-3.5407,-3.535,-3.522,-3.527,-3.5248,-3.5181,-3.5073,-3.4983,-3.487,-3.4752,-3.4574,-3.407,-3.3552,-3.3015,-3.2218,-3.1176,-3.0418,-2.9744,-2.9444,-2.9388,-2.939,-2.9762,-3.0416,-3.0963,-3.1584,-3.2238,-3.2943,-3.3084,-3.3222,-3.328,-3.3449,-3.409,-3.4276,-3.471,-3.5028,-3.5119,-3.5193,-3.5174,-3.5174,-3.5174,-3.5176,-3.516,-3.5143,-3.5143,-3.5127,-3.5129,-3.5247,-3.5248,-3.5609,-3.5704,-3.6273,-3.6994,-3.7676,-3.834,-3.8965,-3.9669,-3.9958,-4.0077,-3.7885,-3.8524,-3.8561,-3.8931,-3.9524,-3.9543,-3.9486,-3.9604,-3.9595,-3.9633,-3.9863,-3.9909,-3.9184,-3.8049,-3.7728,-3.691,-3.5624,-3.5398,-3.535,-3.5207,-3.4982,-3.4728,-3.4498,-3.4245,-3.4087,-3.3975,-3.321,-3.2821,-3.2548,-3.1121,-3.0513,-3.0342,-2.9675,-2.9307,-2.9312,-2.9307,-2.9304,-2.9326,-2.9397,-3.0299,-3.1766,-3.2115,-3.3011,-3.4622,-3.4851,-3.5001,-3.5164,-3.5229,-3.5289,-3.5315,-3.5412,-3.5474,-3.5474,-3.5493,-3.5493,-3.5507,-3.5507,-3.546,-3.5398,-3.5315,-3.5304,-3.5261,-3.5215,-3.5164,-3.5075,-3.4908,-3.4772,-3.4728,-3.4464,-3.405,-3.3448,-3.297,-3.2519,-3.1815,-3.0623,-2.9855,-2.9518,-2.9595,-3.0227,-3.0857,-3.1576,-3.239,-3.3168,-3.4036,-3.4423,-3.46,-3.4604,-3.468,-3.4829,-3.4864,-3.5069,-3.5179,-3.5174,-3.5174,-3.519,-3.519,-3.519,-3.5174,-3.5196,-3.5215,-3.531,-3.535,-3.545,-3.5549,-3.5837,-3.6141,-3.652,-3.7051,-3.7601,-3.8226,-3.8757,-3.9176,-3.9559,-3.9924,-4.0118,-3.9248,-3.9392,-3.9392,-3.95,-3.9684,-3.9717,-3.9698,-3.9708,-3.9758,-3.987,-4.0017,-4.0196,-3.9372,-3.7991,-3.7924,-3.7088,-3.583,-3.5501,-3.546,-3.5432,-3.5261,-3.5001,-3.4713,-3.4454,-3.4358,-3.4284,-3.3585,-3.3078,-3.2985,-3.1499,-3.0737,-3.0626,-2.9859,-2.9433,-2.9453,-2.9433,-2.9433,-2.9544,-3.0107,-3.0876,-3.1931,-3.2766,-3.3676,-3.4718,-3.4983,-3.5111,-3.5181,-3.5258,-3.535,-3.5446,-3.5474,-3.5507,-3.5507,-3.5507,-3.5507,-3.5493,-3.546,-3.5398,-3.535,-3.5304,-3.5293,-3.5226,-3.5193,-3.5162,-3.502,-3.4889,-3.4771,-3.4666,-3.4495,-3.4311,-3.4012,-3.3477,-3.2806,-3.2086,-3.1563,-3.1059,-3.059,-3.0947,-3.1619,-3.2381,-3.2702,-3.3209,-3.3911,-3.4373,-3.4706,-3.4788,-3.4868,-3.4927,-3.5038,-3.511,-3.5145,-3.5176,-3.519,-3.519,-3.519,-3.519,-3.519,-3.519,-3.5212,-3.5269,-3.5499,-3.5785,-3.5961,-3.6174,-3.6786,-3.7186,-3.7432,-3.7831,-3.8343,-3.8873,-3.9254,-3.9694,-3.981,-4.008,-4.0177,-3.9911,-3.9867,-3.9867,-3.9826,-3.98,-3.9773,-3.9796,-3.9781,-3.9848,-3.9956,-4.0099,-4.0252,-3.944,-3.8035,-3.7983,-3.7141,-3.5732,-3.556,-3.5541,-3.5515,-3.535,-3.5141,-3.4889,-3.467,-3.4602,-3.4573,-3.4023,-3.3795,-3.3515,-3.2112,-3.1364,-3.1063,-3.0073,-2.9549,-2.9531,-2.9512,-2.9531,-2.9681,-3.0413,-3.1278,-3.2165,-3.3072,-3.3999,-3.4756,-3.5057,-3.5147,-3.5229,-3.5289,-3.5364,-3.546,-3.5507,-3.5507,-3.5507,-3.5507,-3.5493,-3.546,-3.5412,-3.5364,-3.5339,-3.5308,-3.5277,-3.5209,-3.519,-3.5124,-3.502,-3.4869,-3.4747,-3.4604,-3.4473,-3.4409,-3.433,-3.3938,-3.3362,-3.2786,-3.2842,-3.2542,-3.1418,-3.1643,-3.2315,-3.2932,-3.3269,-3.3571,-3.4383,-3.4604,-3.4708,-3.479,-3.4888,-3.4983,-3.5073,-3.5108,-3.5143,-3.519,-3.5223,-3.5239,-3.5242,-3.5242,-3.5207,-3.5207,-3.5608,-3.5608,-3.5954,-3.6317,-3.6589,-3.6973,-3.7661,-3.8176,-3.8346,-3.8611,-3.9142,-3.9597,-3.9903,-4.0002,-4.008,-4.0177,-4.027,-4.0098,-4.0098,-4.0098,-4.0036,-3.993,-3.9911,-3.9911,-3.9933,-3.9996,-4.0099,-4.0196,-4.0264,-3.9333,-3.8007,-3.7847,-3.7102,-3.5651,-3.5601,-3.5596,-3.5534,-3.5422,-3.5219,-3.5072,-3.4889,-3.4827,-3.48,-3.4682,-3.4548,-3.4135,-3.2929,-3.2287,-3.1912,-3.0655,-2.9962,-3.0075,-2.9869,-2.9719,-2.9982,-3.0772,-3.1525,-3.2392,-3.3318,-3.4263,-3.485,-3.5073,-3.5179,-3.5273,-3.532,-3.535,-3.5493,-3.5488,-3.5507,-3.5507,-3.5493,-3.546,-3.5412,-3.5398,-3.5354,-3.5308,-3.5277,-3.5261,-3.5209,-3.519,-3.5124,-3.5001,-3.4868,-3.4703,-3.4602,-3.4473,-3.4409,-3.445,-3.4416,-3.4142,-3.3636,-3.4067,-3.3649,-3.2711,-3.2259,-3.254,-3.3175,-3.3387,-3.3805,-3.428,-3.4647,-3.4791,-3.4788,-3.4888,-3.4983,-3.5073,-3.5124,-3.5193,-3.5273,-3.5289,-3.5304,-3.5289,-3.5293,-3.5258,-3.528,-3.5985,-3.6293,-3.6695,-3.7022,-3.7313,-3.7772,-3.8499,-3.8899,-3.9032,-3.945,-3.9848,-3.9982,-4.0041,-4.012,-4.0196,-4.0306,-4.0411,-4.0137,-4.0176,-4.0117,-4.0077,-4.0057,-4.0015,-4.0057,-4.0118,-4.0157,-4.0215,-4.0208,-3.9756,-3.8977,-3.8031,-3.7469,-3.6598,-3.5751,-3.5631,-3.5596,-3.5496,-3.5502,-3.5422,-3.5289,-3.5107,-3.5059,-3.5002,-3.4848,-3.4771,-3.4447,-3.3767,-3.3181,-3.2953,-3.205,-3.158,-3.1429,-3.081,-3.0678,-3.0847,-3.1581,-3.2089,-3.2655,-3.3866,-3.4736,-3.5075,-3.5126,-3.5229,-3.5277,-3.5308,-3.5354,-3.5407,-3.5493,-3.557,-3.5512,-3.5446,-3.5451,-3.5441,-3.5373,-3.5327,-3.5312,-3.5299,-3.5209,-3.519,-3.5155,-3.5049,-3.4927,-3.4807,-3.4661,-3.4536,-3.445,-3.4473,-3.4558,-3.4561,-3.447,-3.4358,-3.437,-3.4364,-3.4005,-3.387,-3.3863,-3.4016,-3.4139,-3.4298,-3.4461,-3.4626,-3.4749,-3.4809,-3.4888,-3.4983,-3.5073,-3.5141,-3.5242,-3.5304,-3.5335,-3.535,-3.535,-3.5354,-3.532,-3.5573,-3.6246,-3.6859,-3.7264,-3.8012,-3.8379,-3.8858,-3.9395,-3.9624,-3.9623,-3.9776,-4.008,-4.0119,-4.0177,-4.0234,-4.0307,-4.0411,-4.0511,-4.0252,-4.0289,-4.0253,-4.0215,-4.0196,-4.0158,-4.0177,-4.0234,-4.0289,-4.0362,-4.0257,-3.9642,-3.8859,-3.8097,-3.7263,-3.6482,-3.5847,-3.5631,-3.5589,-3.5553,-3.554,-3.5534,-3.5495,-3.5369,-3.5267,-3.5208,-3.5039,-3.4964,-3.4718,-3.4112,-3.3545,-3.3487,-3.2713,-3.2166,-3.209,-3.1487,-3.1298,-3.1656,-3.2161,-3.2612,-3.3219,-3.4281,-3.5039,-3.5092,-3.5162,-3.5248,-3.5277,-3.5312,-3.532,-3.5441,-3.5777,-3.5816,-3.5523,-3.5451,-3.5571,-3.5814,-3.5477,-3.5583,-3.5701,-3.5474,-3.519,-3.5209,-3.5171,-3.507,-3.4964,-3.4826,-3.4698,-3.4577,-3.4536,-3.4558,-3.4666,-3.4666,-3.4666,-3.4623,-3.4539,-3.4454,-3.445,-3.4409,-3.4386,-3.4409,-3.4398,-3.4442,-3.452,-3.4626,-3.4728,-3.4788,-3.4908,-3.5001,-3.5072,-3.5157,-3.5258,-3.532,-3.5364,-3.5393,-3.5393,-3.5379,-3.536,-3.5825,-3.6577,-3.7156,-3.7638,-3.8601,-3.9581,-3.9831,-3.9928,-4.0005,-4.0024,-4.0177,-4.0196,-4.0196,-4.0252,-4.0307,-4.0396,-4.0499,-4.0558,-4.0438,-4.0422,-4.0411,-4.0377,-4.0342,-4.0323,-4.0342,-4.0341,-4.0408,-4.0479,-4.0319,-3.9639,-3.8711,-3.8073,-3.7076,-3.6308,-3.5867,-3.5662,-3.562,-3.5589,-3.5596,-3.5591,-3.5579,-3.5509,-3.5446,-3.5327,-3.5179,-3.5124,-3.4918,-3.4391,-3.4091,-3.3771,-3.3204,-3.3034,-3.2656,-3.203,-3.2008,-3.2615,-3.2798,-3.3097,-3.3724,-3.4562,-3.5037,-3.5129,-3.5198,-3.5248,-3.5334,-3.548,-3.5553,-3.5565,-3.6347,-3.6347,-3.5998,-3.5806,-3.6002,-3.6668,-3.6173,-3.6217,-3.643,-3.5993,-3.5477,-3.54,-3.5229,-3.5143,-3.5002,-3.4886,-3.4764,-3.4703,-3.4645,-3.4666,-3.4788,-3.4728,-3.4666,-3.4623,-3.4495,-3.4427,-3.4386,-3.4386,-3.4386,-3.4427,-3.4473,-3.4476,-3.4561,-3.4645,-3.4727,-3.4809,-3.4927,-3.502,-3.5089,-3.5157,-3.5258,-3.5354,-3.5398,-3.5468,-3.5482,-3.5578,-3.5526,-3.6037,-3.6829,-3.7487,-3.8105,-3.9128,-3.9976,-4.0152,-4.0251,-4.0291,-4.0272,-4.0272,-4.0271,-4.0271,-4.0325,-4.0411,-4.0479,-4.0566,-4.0588,-4.0559,-4.0559,-4.0515,-4.0489,-4.0473,-4.045,-4.0485,-4.0543,-4.0558,-4.0603,-4.0447,-3.9123,-3.8395,-3.7846,-3.6524,-3.5828,-3.5723,-3.5673,-3.5662,-3.5631,-3.5678,-3.5705,-3.5623,-3.5739,-3.5618,-3.5528,-3.5383,-3.5281,-3.5232,-3.5054,-3.478,-3.4767,-3.4579,-3.4447,-3.4163,-3.3836,-3.3285,-3.3553,-3.362,-3.3748,-3.4116,-3.467,-3.5147,-3.5181,-3.5231,-3.528,-3.5484,-3.5975,-3.6404,-3.655,-3.7241,-3.749,-3.7452,-3.7386,-3.7507,-3.7455,-3.725,-3.7175,-3.7349,-3.6776,-3.6356,-3.611,-3.5763,-3.5295,-3.5152,-3.5059,-3.5151,-3.5034,-3.4956,-3.4883,-3.4868,-3.5034,-3.4783,-3.4701,-3.4652,-3.4502,-3.4419,-3.4404,-3.4409,-3.445,-3.4473,-3.4495,-3.458,-3.4645,-3.4747,-3.4809,-3.4907,-3.5002,-3.5073,-3.5179,-3.5264,-3.5358,-3.5432,-3.5501,-3.5566,-3.5701,-3.5804,-3.6279,-3.7002,-3.7853,-3.8589,-3.9615,-4.0236,-4.037,-4.0396,-4.0363,-4.0344,-4.0362,-4.0377,-4.0394,-4.046,-4.0489,-4.0573,-4.0636,-4.0665,-4.0718,-4.0713,-4.0675,-4.0648,-4.0602,-4.0615,-4.0621,-4.0646,-4.0665,-4.066,-4.0185,-3.9013,-3.8206,-3.7754,-3.6439,-3.5723,-3.5704,-3.5704,-3.5673,-3.5681,-3.6049,-3.5991,-3.5794,-3.6026,-3.5952,-3.5747,-3.5509,-3.5449,-3.5407,-3.5315,-3.5273,-3.519,-3.5174,-3.5122,-3.4931,-3.4296,-3.4312,-3.4391,-3.427,-3.4213,-3.4527,-3.5045,-3.5179,-3.5231,-3.5299,-3.5293,-3.5458,-3.6144,-3.6596,-3.6861,-3.784,-3.8377,-3.861,-3.8843,-3.8925,-3.8489,-3.8089,-3.7997,-3.8151,-3.7636,-3.7139,-3.7082,-3.6659,-3.6491,-3.6348,-3.6311,-3.6101,-3.6116,-3.6153,-3.6134,-3.619,-3.6017,-3.58,-3.5334,-3.5154,-3.4899,-3.4596,-3.4465,-3.4454,-3.4495,-3.4495,-3.4536,-3.4536,-3.4623,-3.4728,-3.4829,-3.4888,-3.5003,-3.5114,-3.5278,-3.5439,-3.5959,-3.6185,-3.6463,-3.6479,-3.6466,-3.6434,-3.6774,-3.7371,-3.8204,-3.8902,-3.9854,-4.0312,-4.05,-4.0492,-4.043,-4.0413,-4.0411,-4.046,-4.0508,-4.0534,-4.0579,-4.064,-4.0681,-4.0746,-4.0859,-4.0839,-4.0837,-4.0784,-4.0742,-4.075,-4.0706,-4.072,-4.0707,-4.0713,-4.0488,-3.9057,-3.8218,-3.7773,-3.6651,-3.5704,-3.5704,-3.5704,-3.5704,-3.58,-3.6207,-3.6207,-3.6041,-3.6168,-3.6245,-3.5701,-3.5631,-3.5584,-3.5522,-3.5482,-3.5427,-3.5379,-3.53,-3.5285,-3.5128,-3.4769,-3.4889,-3.486,-3.4745,-3.4695,-3.507,-3.5381,-3.546,-3.5548,-3.5675,-3.5933,-3.6132,-3.6899,-3.7318,-3.7721,-3.8527,-3.9394,-3.949,-4.0046,-4.007,-3.9404,-3.8678,-3.8778,-3.8856,-3.8494,-3.7997,-3.796,-3.7785,-3.7639,-3.749,-3.7204,-3.7256,-3.7387,-3.7291,-3.7194,-3.706,-3.7206,-3.6817,-3.625,-3.5843,-3.5577,-3.4997,-3.4701,-3.4558,-3.458,-3.4577,-3.4558,-3.458,-3.4645,-3.4768,-3.4829,-3.4907,-3.5325,-3.5437,-3.5567,-3.5883,-3.6673,-3.7172,-3.757,-3.7665,-3.7558,-3.7481,-3.7473,-3.8108,-3.8859,-3.9398,-3.998,-4.028,-4.0579,-4.0534,-4.0492,-4.0476,-4.0492,-4.0554,-4.0612,-4.0621,-4.0675,-4.0745,-4.0846,-4.0939,-4.0974,-4.098,-4.096,-4.0954,-4.0869,-4.0888,-4.0858,-4.0796,-4.0784,-4.08,-4.0694,-3.9131,-3.8319,-3.7831,-3.6574,-3.5839,-3.5762,-3.582,-3.5781,-3.5781,-3.5974,-3.5963,-3.5662,-3.5712,-3.5944,-3.5681,-3.5673,-3.5662,-3.5608,-3.5577,-3.5565,-3.5553,-3.5611,-3.5577,-3.5644,-3.5624,-3.5432,-3.5507,-3.5422,-3.5379,-3.553,-3.6109,-3.6358,-3.6619,-3.7034,-3.739,-3.7454,-3.8127,-3.8681,-3.8902,-3.9719,-4.0277,-4.0338,-4.0377,-4.0457,-4.0312,-4.0183,-4.0093,-3.9924,-3.9352,-3.8875,-3.8707,-3.8288,-3.7813,-3.7813,-3.7733,-3.7612,-3.739,-3.7463,-3.7553,-3.7627,-3.7432,-3.7175,-3.6896,-3.6517,-3.611,-3.5548,-3.5108,-3.4945,-3.4668,-3.4647,-3.4645,-3.4626,-3.4708,-3.4788,-3.4849,-3.5002,-3.5439,-3.5931,-3.6195,-3.661,-3.7441,-3.8087,-3.8495,-3.8674,-3.8604,-3.8541,-3.8373,-3.8849,-3.9495,-3.9813,-4.0179,-4.0386,-4.0593,-4.0564,-4.0579,-4.0574,-4.0621,-4.0668,-4.0688,-4.0706,-4.0773,-4.0867,-4.1004,-4.1238,-4.1052,-4.1046,-4.1046,-4.1013,-4.0964,-4.0976,-4.0924,-4.0859,-4.0839,-4.0834,-4.0595,-3.9549,-3.8717,-3.8075,-3.734,-3.6875,-3.6488,-3.6353,-3.6091,-3.5897,-3.6041,-3.6068,-3.5875,-3.6087,-3.6192,-3.577,-3.5684,-3.5676,-3.5646,-3.5673,-3.5623,-3.5709,-3.6079,-3.6369,-3.64,-3.6833,-3.703,-3.7064,-3.6972,-3.6882,-3.6915,-3.713,-3.736,-3.7425,-3.7805,-3.8022,-3.8315,-3.8868,-3.9311,-3.9499,-4.0145,-4.0554,-4.0539,-4.0523,-4.0489,-4.0492,-4.0463,-4.0358,-4.0248,-3.9945,-3.9755,-3.9624,-3.9261,-3.9088,-3.8873,-3.8712,-3.865,-3.8748,-3.8748,-3.8669,-3.865,-3.8701,-3.8331,-3.7939,-3.7418,-3.6629,-3.6148,-3.5741,-3.5388,-3.5071,-3.4791,-3.4791,-3.4829,-3.4982,-3.5059,-3.5135,-3.5439,-3.597,-3.6653,-3.7281,-3.7755,-3.836,-3.8932,-3.9428,-3.9538,-3.9569,-3.9618,-3.9522,-3.9592,-4.01,-4.0174,-4.0414,-4.0563,-4.0681,-4.0694,-4.072,-4.0694,-4.0694,-4.0725,-4.0761,-4.0798,-4.0878,-4.1014,-4.1671,-4.2108,-4.1117,-4.1111,-4.1106,-4.1056,-4.1019,-4.1026,-4.0999,-4.0921,-4.0926,-4.0888,-4.0591,-3.9871,-3.8988,-3.8369,-3.8083,-3.758,-3.6875,-3.6903,-3.64,-3.6176,-3.6176,-3.6137,-3.5963,-3.6234,-3.6331,-3.6024,-3.6142,-3.6288,-3.6434,-3.6396,-3.6405,-3.6024,-3.657,-3.7015,-3.7373,-3.7702,-3.799,-3.7962,-3.7906,-3.7858,-3.7892,-3.8097,-3.8247,-3.8392,-3.8517,-3.8662,-3.8846,-3.9604,-4.0086,-3.992,-4.0574,-4.0949,-4.0665,-4.0573,-4.0523,-4.0508,-4.0479,-4.0449,-4.0362,-4.0232,-4.0272,-4.0215,-4.0118,-3.9791,-3.9719,-3.9804,-3.9807,-3.9618,-3.9637,-3.9694,-3.9807,-3.975,-3.9407,-3.8905,-3.8497,-3.7517,-3.6656,-3.623,-3.5684,-3.5154,-3.4945,-3.4982,-3.5077,-3.5267,-3.5362,-3.5419,-3.5856,-3.6464,-3.7338,-3.8252,-3.8747,-3.9221,-3.9414,-3.9834,-3.9947,-4.0135,-4.0323,-4.0413,-4.0466,-4.0511,-4.0453,-4.0491,-4.0615,-4.0707,-4.0788,-4.0812,-4.0792,-4.0773,-4.0784,-4.0849,-4.0897,-4.0963,-4.1229,-4.2006,-4.2928,-4.1108,-4.1104,-4.1117,-4.1105,-4.1091,-4.11,-4.1058,-4.1006,-4.0999,-4.0943,-4.0751,-3.9956,-3.9166,-3.8586,-3.8438,-3.7955,-3.6938,-3.6911,-3.6516,-3.6052,-3.5762,-3.5955,-3.5994,-3.6151,-3.6355,-3.6723,-3.688,-3.7346,-3.7821,-3.7705,-3.7492,-3.7162,-3.7443,-3.7695,-3.8074,-3.853,-3.8655,-3.8631,-3.8562,-3.8434,-3.8568,-3.8816,-3.9187,-3.9394,-3.9928,-4.0458,-4.0546,-4.1106,-4.133,-4.0784,-4.1426,-4.1403,-4.0988,-4.0823,-4.077,-4.0543,-4.0495,-4.0466,-4.0396,-4.0325,-4.029,-4.0253,-4.0176,-4.0038,-3.9911,-3.9845,-3.9826,-3.987,-3.9889,-3.9911,-3.9911,-3.9916,-3.9802,-3.9567,-3.9107,-3.8409,-3.7487,-3.6672,-3.61,-3.5359,-3.5186,-3.5391,-3.5744,-3.6031,-3.5976,-3.6035,-3.6835,-3.7464,-3.8421,-3.926,-3.9605,-3.9929,-3.9909,-4.0061,-4.0139,-4.0234,-4.0289,-4.0362,-4.0432,-4.0515,-4.0554,-4.0631,-4.0635,-4.0707,-4.0776,-4.0823,-4.0867,-4.0868,-4.0878,-4.0952,-4.1101,-4.1493,-4.2104,-4.2953,-4.3805,-4.1111,-4.1103,-4.1101,-4.1114,-4.1117,-4.1105,-4.1086,-4.1058,-4.1007,-4.0957,-4.0888,-4.0474,-4.0126,-3.9862,-3.9727,-3.8999,-3.7839,-3.7704,-3.7135,-3.6679,-3.6466,-3.6477,-3.6585,-3.6878,-3.7226,-3.7239,-3.7511,-3.7919,-3.8266,-3.8566,-3.8749,-3.8583,-3.861,-3.8844,-3.9185,-3.9528,-3.9753,-3.976,-3.9724,-3.9714,-3.9767,-3.9868,-4.0125,-4.0223,-4.0351,-4.1029,-4.1461,-4.1783,-4.2021,-4.2259,-4.2526,-4.2131,-4.1562,-4.1416,-4.1131,-4.077,-4.0704,-4.0636,-4.0545,-4.0419,-4.029,-4.0215,-4.0157,-4.0076,-3.9994,-3.9933,-3.9933,-3.9954,-3.9954,-3.9975,-4.0036,-4.0058,-3.9982,-3.9922,-3.9618,-3.9068,-3.8347,-3.7484,-3.6812,-3.6167,-3.6048,-3.6119,-3.6527,-3.6934,-3.6769,-3.6715,-3.7613,-3.8479,-3.9329,-3.9888,-4.0081,-4.0177,-4.0138,-4.0138,-4.0196,-4.0215,-4.0234,-4.0326,-4.0435,-4.0537,-4.0635,-4.0598,-4.0654,-4.0726,-4.08,-4.0856,-4.0908,-4.0943,-4.1035,-4.1193,-4.1773,-4.244,-4.3144,-4.3884,-4.467,-4.1108,-4.1113,-4.1113,-4.1108,-4.1111,-4.1101,-4.1105,-4.11,-4.105,-4.0986,-4.0926,-4.0877,-4.0812,-4.0808,-4.0718,-3.9751,-3.8589,-3.8307,-3.7804,-3.7386,-3.7116,-3.729,-3.7564,-3.7799,-3.7975,-3.788,-3.8307,-3.8829,-3.9349,-3.9213,-3.9532,-3.9918,-4.0081,-4.0062,-4.0182,-4.0574,-4.0927,-4.0898,-4.0815,-4.0738,-4.0667,-4.0907,-4.1029,-4.1165,-4.1416,-4.1886,-4.2453,-4.2796,-4.2943,-4.3148,-4.3274,-4.3072,-4.2598,-4.2179,-4.1898,-4.157,-4.1328,-4.1261,-4.1171,-4.059,-4.0328,-4.0215,-4.0176,-4.0098,-4.0057,-4.0036,-4.0036,-4.0017,-4.0038,-4.0077,-4.0175,-4.0138,-4.0158,-4.0101,-4.0139,-3.9681,-3.903,-3.8276,-3.768,-3.7086,-3.7041,-3.7015,-3.7367,-3.781,-3.8007,-3.8016,-3.875,-3.9372,-3.9768,-4.0136,-4.012,-4.0177,-4.0157,-4.0177,-4.0215,-4.0215,-4.0253,-4.0498,-4.0605,-4.0674,-4.0719,-4.0737,-4.0693,-4.07,-4.0792,-4.0888,-4.1081,-4.1318,-4.1434,-4.15,-4.2295,-4.3197,-4.3899,-4.4611,-4.5406,-4.1113,-4.1111,-4.1105,-4.1113,-4.1114,-4.1108,-4.1117,-4.1111,-4.1086,-4.1052,-4.0988,-4.0917,-4.0849,-4.0807,-4.0812,-3.9882,-3.8875,-3.9007,-3.8667,-3.7738,-3.7939,-3.8183,-3.8322,-3.8518,-3.8888,-3.9413,-3.9636,-3.9993,-4.068,-4.0482,-4.0723,-4.077,-4.0719,-4.0777,-4.0918,-4.096,-4.0982,-4.0974,-4.0858,-4.0815,-4.1071,-4.1519,-4.1732,-4.2143,-4.2504,-4.2935,-4.3361,-4.3795,-4.3891,-4.3844,-4.424,-4.3994,-4.3308,-4.3183,-4.3033,-4.2864,-4.2903,-4.2915,-4.2813,-4.1257,-4.0575,-4.0405,-4.0406,-4.0253,-4.0175,-4.0174,-4.0269,-4.0422,-4.048,-4.0406,-4.033,-4.031,-4.0405,-4.0289,-4.0308,-4.0191,-3.9555,-3.8975,-3.8339,-3.8005,-3.7997,-3.8041,-3.8334,-3.8689,-3.9094,-3.9451,-4.0038,-4.0326,-4.0358,-4.0307,-4.0233,-4.0215,-4.0196,-4.0215,-4.0252,-4.0234,-4.031,-4.0574,-4.0797,-4.0886,-4.1046,-4.1215,-4.1092,-4.0848,-4.1028,-4.1364,-4.1594,-4.1789,-4.2272,-4.2826,-4.3189,-4.3928,-4.4622,-4.5401,-4.6253,-4.11,-4.1117,-4.1111,-4.111,-4.1111,-4.1116,-4.1117,-4.1091,-4.1064,-4.1013,-4.0996,-4.0926,-4.0878,-4.0868,-4.074,-4.0176,-3.9381,-3.9245,-3.8924,-3.8767,-3.893,-3.9057,-3.9234,-3.9566,-3.98,-3.9859,-4.0159,-4.0565,-4.0913,-4.096,-4.0988,-4.0976,-4.0991,-4.0979,-4.0984,-4.0988,-4.0991,-4.0917,-4.0897,-4.1059,-4.161,-4.1966,-4.2424,-4.2962,-4.333,-4.3738,-4.4192,-4.4641,-4.4645,-4.4679,-4.5132,-4.4789,-4.4176,-4.4032,-4.3815,-4.3434,-4.3241,-4.2883,-4.2472,-4.1527,-4.1313,-4.1089,-4.0691,-4.0635,-4.0941,-4.1017,-4.1036,-4.115,-4.1475,-4.1437,-4.1304,-4.1189,-4.1092,-4.0496,-4.0379,-4.0392,-3.9983,-3.9458,-3.8969,-3.8907,-3.8859,-3.923,-3.9533,-3.948,-3.9769,-3.9928,-4.0346,-4.0399,-4.0413,-4.0342,-4.0289,-4.027,-4.0252,-4.027,-4.027,-4.0307,-4.0289,-4.0457,-4.0835,-4.1193,-4.1389,-4.1581,-4.1428,-4.1168,-4.1518,-4.1897,-4.2346,-4.289,-4.3736,-4.4325,-4.4594,-4.5151,-4.6049,-4.6671,-4.7244,-4.1106,-4.1115,-4.1109,-4.1101,-4.1113,-4.1101,-4.1117,-4.1086,-4.1013,-4.0979,-4.0976,-4.0954,-4.0917,-4.0878,-4.0801,-4.0382,-3.9693,-3.9945,-3.9682,-3.965,-3.9851,-3.994,-4.0203,-4.0477,-4.0402,-4.0345,-4.0538,-4.0945,-4.0991,-4.0915,-4.0943,-4.0988,-4.0984,-4.0984,-4.0988,-4.098,-4.0952,-4.0985,-4.113,-4.154,-4.2121,-4.2676,-4.3319,-4.3826,-4.4234,-4.4602,-4.4955,-4.5157,-4.5211,-4.5611,-4.5634,-4.5445,-4.5021,-4.4819,-4.4641,-4.4249,-4.4061,-4.3685,-4.3149,-4.2876,-4.2761,-4.2672,-4.149,-4.1245,-4.1781,-4.1934,-4.1934,-4.2144,-4.2565,-4.2412,-4.2087,-4.1992,-4.1684,-4.1107,-4.085,-4.088,-4.0373,-3.9846,-3.9745,-3.9697,-3.9721,-4.0149,-4.0404,-4.0434,-4.0391,-4.0472,-4.0539,-4.0495,-4.043,-4.0379,-4.0362,-4.0342,-4.036,-4.0358,-4.0377,-4.0396,-4.0396,-4.0379,-4.0967,-4.169,-4.1694,-4.1899,-4.1699,-4.1668,-4.2237,-4.279,-4.3396,-4.4041,-4.4683,-4.5314,-4.5831,-4.6542,-4.7484,-4.7903,-4.8234,-4.1109,-4.1117,-4.11,-4.1111,-4.1113,-4.1103,-4.1117,-4.1106,-4.1025,-4.0993,-4.0996,-4.098,-4.0954,-4.0907,-4.0907,-4.049,-3.9985,-4.05,-4.0266,-4.0059,-4.0328,-4.0548,-4.0657,-4.0746,-4.0721,-4.081,-4.0908,-4.0927,-4.0982,-4.0935,-4.0935,-4.0982,-4.098,-4.098,-4.098,-4.0943,-4.0915,-4.1024,-4.1294,-4.1768,-4.2395,-4.3497,-4.411,-4.4645,-4.5192,-4.5522,-4.5699,-4.5673,-4.5689,-4.5795,-4.5781,-4.5781,-4.5757,-4.5786,-4.58,-4.5742,-4.5636,-4.5022,-4.4337,-4.4045,-4.4001,-4.3628,-4.262,-4.2412,-4.2546,-4.2794,-4.2678,-4.2735,-4.3002,-4.2888,-4.2717,-4.2623,-4.2525,-4.2061,-4.1684,-4.1293,-4.0723,-4.0429,-4.0444,-4.0424,-4.0391,-4.0534,-4.0515,-4.0569,-4.0583,-4.0554,-4.0558,-4.0543,-4.0479,-4.0413,-4.0396,-4.0449,-4.0447,-4.046,-4.0479,-4.0502,-4.046,-4.0425,-4.1747,-4.2473,-4.2379,-4.2338,-4.2589,-4.2811,-4.3169,-4.3739,-4.448,-4.4992,-4.5408,-4.6049,-4.678,-4.7313,-4.8045,-4.8607,-4.9021,-4.1114,-4.112,-4.1109,-4.1111,-4.1105,-4.1092,-4.1116,-4.1097,-4.1067,-4.1052,-4.0979,-4.0976,-4.0963,-4.0888,-4.0888,-4.0713,-4.0675,-4.0704,-4.0692,-4.0671,-4.0637,-4.0761,-4.08,-4.0812,-4.0846,-4.0867,-4.0898,-4.0917,-4.0917,-4.0897,-4.0888,-4.0917,-4.0982,-4.0991,-4.0954,-4.0927,-4.0888,-4.0946,-4.1211,-4.1828,-4.2557,-4.3524,-4.4344,-4.5163,-4.5673,-4.5925,-4.5899,-4.5827,-4.5805,-4.5815,-4.5815,-4.58,-4.5815,-4.5805,-4.58,-4.58,-4.5689,-4.5385,-4.4699,-4.45,-4.4476,-4.4395,-4.3655,-4.3541,-4.3616,-4.3555,-4.3342,-4.3378,-4.355,-4.3571,-4.3384,-4.3234,-4.2967,-4.2541,-4.2129,-4.1651,-4.1065,-4.0717,-4.0717,-4.0631,-4.0617,-4.0603,-4.0569,-4.0583,-4.0583,-4.0554,-4.0523,-4.0527,-4.0511,-4.0447,-4.043,-4.0482,-4.0726,-4.0781,-4.0658,-4.0642,-4.0543,-4.0693,-4.2101,-4.2986,-4.2611,-4.2724,-4.3434,-4.3904,-4.4167,-4.4846,-4.5682,-4.5975,-4.5922,-4.6928,-4.7682,-4.8113,-4.858,-4.9189,-4.975,-4.0891,-4.0608,-4.062,-4.0435,-4.0131,-4.0116,-4.0106,-4.0207,-4.0803,-4.1058,-4.0986,-4.0996,-4.0963,-4.0888,-4.0888,-4.0859,-4.0859,-4.0849,-4.0828,-4.0765,-4.08,-4.0808,-4.0808,-4.082,-4.0823,-4.0856,-4.0877,-4.0898,-4.0907,-4.0935,-4.0945,-4.0927,-4.0982,-4.0974,-4.0956,-4.0898,-4.0828,-4.0901,-4.117,-4.1782,-4.2483,-4.3327,-4.4452,-4.5117,-4.5602,-4.5874,-4.5874,-4.5819,-4.5805,-4.581,-4.581,-4.581,-4.581,-4.5819,-4.58,-4.58,-4.578,-4.5578,-4.5182,-4.504,-4.4938,-4.478,-4.4633,-4.4536,-4.4433,-4.4347,-4.4072,-4.3973,-4.4182,-4.4341,-4.4064,-4.3765,-4.3292,-4.2831,-4.2401,-4.1998,-4.148,-4.0938,-4.0783,-4.0679,-4.0626,-4.0598,-4.0598,-4.0612,-4.0579,-4.0554,-4.0539,-4.0523,-4.0508,-4.0476,-4.046,-4.0476,-4.0857,-4.1143,-4.1043,-4.1174,-4.1424,-4.1828,-4.2848,-4.3404,-4.2954,-4.3492,-4.4531,-4.4919,-4.5103,-4.5704,-4.6209,-4.6246,-4.6371,-4.7412,-4.8293,-4.867,-4.9195,-4.9965,-5.0489,-4.0413,-3.9724,-3.9852,-3.949,-3.8672,-3.8806,-3.8819,-3.8765,-4.0145,-4.0811,-4.0682,-4.0715,-4.0624,-4.0558,-4.0587,-4.0742,-4.0819,-4.0886,-4.0846,-4.08,-4.0808,-4.0796,-4.0796,-4.0808,-4.0823,-4.0796,-4.0828,-4.0898,-4.0963,-4.098,-4.098,-4.0991,-4.098,-4.0963,-4.0917,-4.0897,-4.0804,-4.0746,-4.1098,-4.1624,-4.2248,-4.3269,-4.4421,-4.4592,-4.5237,-4.5866,-4.5819,-4.5795,-4.581,-4.5805,-4.58,-4.58,-4.58,-4.58,-4.58,-4.5819,-4.5819,-4.5718,-4.5592,-4.5507,-4.5464,-4.5416,-4.5419,-4.5128,-4.4925,-4.4794,-4.4558,-4.4156,-4.427,-4.4322,-4.4125,-4.4195,-4.3958,-4.358,-4.3229,-4.2524,-4.1774,-4.12,-4.0764,-4.0673,-4.064,-4.067,-4.107,-4.1123,-4.1133,-4.0858,-4.1016,-4.1039,-4.0873,-4.0877,-4.0896,-4.0912,-4.1408,-4.1889,-4.1986,-4.2175,-4.2621,-4.3198,-4.3811,-4.3871,-4.3451,-4.4407,-4.5744,-4.5696,-4.5553,-4.6006,-4.6404,-4.6507,-4.6899,-4.7858,-4.8616,-4.9098,-4.9742,-5.0461,-5.0752,-3.9013,-3.8885,-3.9605,-3.9394,-3.875,-3.9316,-3.9158,-3.8643,-3.8931,-3.9117,-3.9117,-3.9135,-3.9457,-3.9995,-4.0121,-4.0334,-4.0759,-4.0834,-4.0812,-4.0808,-4.0796,-4.0815,-4.0803,-4.0808,-4.0804,-4.0818,-4.0859,-4.0915,-4.0976,-4.0984,-4.0984,-4.0991,-4.0976,-4.0954,-4.0888,-4.0867,-4.0745,-4.0626,-4.075,-4.1174,-4.172,-4.3077,-4.4263,-4.4759,-4.5445,-4.6143,-4.6113,-4.5829,-4.5824,-4.58,-4.58,-4.58,-4.58,-4.58,-4.58,-4.58,-4.5805,-4.5781,-4.575,-4.5703,-4.5601,-4.5495,-4.538,-4.5218,-4.5109,-4.5057,-4.483,-4.4399,-4.4166,-4.4183,-4.4298,-4.4486,-4.462,-4.4326,-4.3979,-4.3028,-4.2086,-4.148,-4.0866,-4.0751,-4.0717,-4.1079,-4.1503,-4.1658,-4.1629,-4.1889,-4.2341,-4.2441,-4.2047,-4.1915,-4.1973,-4.2066,-4.2387,-4.2768,-4.2868,-4.3104,-4.353,-4.3667,-4.4051,-4.4034,-4.394,-4.4757,-4.5638,-4.5815,-4.593,-4.6255,-4.659,-4.6948,-4.749,-4.8292,-4.8798,-4.9227,-4.9828,-5.0508,-5.0675,-3.8307,-3.8069,-3.8529,-3.871,-3.8633,-3.873,-3.8456,-3.8002,-3.7577,-3.7609,-3.8077,-3.8624,-3.9233,-3.9743,-3.9976,-4.0227,-4.0757,-4.08,-4.0808,-4.0815,-4.0803,-4.0803,-4.0796,-4.08,-4.0846,-4.0868,-4.0896,-4.0972,-4.102,-4.1046,-4.1052,-4.1,-4.0991,-4.0971,-4.0898,-4.0804,-4.0688,-4.0564,-4.0495,-4.0745,-4.1399,-4.2891,-4.4057,-4.4707,-4.5624,-4.6384,-4.6426,-4.6085,-4.5824,-4.58,-4.58,-4.58,-4.58,-4.58,-4.58,-4.5819,-4.5791,-4.5765,-4.57,-4.5651,-4.5584,-4.5476,-4.54,-4.5281,-4.5135,-4.5065,-4.4914,-4.4487,-4.3977,-4.3894,-4.4251,-4.4501,-4.4734,-4.4652,-4.419,-4.3431,-4.2707,-4.2082,-4.1644,-4.1434,-4.1652,-4.2193,-4.2502,-4.2526,-4.2512,-4.2512,-4.3042,-4.3102,-4.2857,-4.303,-4.3032,-4.3109,-4.3431,-4.3585,-4.3665,-4.3957,-4.4362,-4.442,-4.4364,-4.4461,-4.4594,-4.4959,-4.5414,-4.5552,-4.5858,-4.6303,-4.6654,-4.7126,-4.7759,-4.8512,-4.8926,-4.9313,-4.9915,-5.0405,-5.0457,-3.7795,-3.7334,-3.747,-3.7908,-3.8437,-3.7851,-3.7459,-3.7201,-3.6426,-3.652,-3.741,-3.8825,-3.949,-3.9926,-4.0286,-4.0595,-4.0776,-4.08,-4.0815,-4.0803,-4.0803,-4.0808,-4.08,-4.0804,-4.0868,-4.0915,-4.0972,-4.0987,-4.1006,-4.1056,-4.107,-4.1039,-4.0986,-4.0949,-4.0878,-4.08,-4.072,-4.0823,-4.0811,-4.0785,-4.1686,-4.2831,-4.3848,-4.4863,-4.5975,-4.699,-4.694,-4.6654,-4.6216,-4.625,-4.6399,-4.6283,-4.6167,-4.6148,-4.5935,-4.5921,-4.5795,-4.575,-4.5719,-4.569,-4.5566,-4.5457,-4.5419,-4.5322,-4.5201,-4.5068,-4.4919,-4.4619,-4.4107,-4.3988,-4.4345,-4.4615,-4.4851,-4.4919,-4.442,-4.3948,-4.3327,-4.2722,-4.244,-4.2154,-4.2593,-4.3139,-4.3371,-4.3376,-4.3376,-4.3342,-4.3354,-4.3278,-4.3401,-4.3899,-4.4205,-4.4208,-4.4305,-4.442,-4.4459,-4.4594,-4.4921,-4.4921,-4.4862,-4.5008,-4.5094,-4.4973,-4.4988,-4.5243,-4.5583,-4.6143,-4.6777,-4.7315,-4.7988,-4.8662,-4.9045,-4.9372,-4.9632,-5.0035,-5.0081,-3.6742,-3.7337,-3.8046,-3.845,-3.8555,-3.8371,-3.7977,-3.7218,-3.6414,-3.645,-3.7376,-3.8221,-3.9011,-3.9625,-3.9713,-4.0111,-4.0815,-4.082,-4.0796,-4.0803,-4.0827,-4.0812,-4.0826,-4.0878,-4.0904,-4.0953,-4.1007,-4.1031,-4.1047,-4.1091,-4.1111,-4.1081,-4.1026,-4.0957,-4.0878,-4.0851,-4.0957,-4.1232,-4.1675,-4.1818,-4.3273,-4.4153,-4.4384,-4.5611,-4.7203,-4.7929,-4.8188,-4.7979,-4.7913,-4.7908,-4.7753,-4.7366,-4.7076,-4.6806,-4.6612,-4.6254,-4.6109,-4.5928,-4.5918,-4.5714,-4.5569,-4.5438,-4.54,-4.5341,-4.5241,-4.5175,-4.5061,-4.5014,-4.4649,-4.4573,-4.4792,-4.495,-4.5142,-4.5073,-4.4746,-4.4412,-4.394,-4.3481,-4.3096,-4.3042,-4.3188,-4.3728,-4.4187,-4.4191,-4.4214,-4.4315,-4.4665,-4.4547,-4.4149,-4.4687,-4.5206,-4.515,-4.5074,-4.5208,-4.5208,-4.5036,-4.5207,-4.5262,-4.5194,-4.5,-4.477,-4.4463,-4.4549,-4.4879,-4.5462,-4.6091,-4.6722,-4.7399,-4.8096,-4.8737,-4.9127,-4.9424,-4.9574,-4.9671,-4.9759]}]]